[[{"header":{"parameterUnit":"m.s-1","parameterCategory":1,"la1":30.6,"la2":28.766,"lo1":-90.7593,"lo2":-88.6598,"dy":0.0162,"dx":0.0183,"nx":116,"ny":114,"refTime":"2023-06-05T00:00:00:Z","depth":0,"parameterNumber":2,"parameterNumberName":"U-component_of_WINDS"},"data":[0.0,0.0,0.0,0.0,0.0,0.0,0.0,0.0,0.0,0.0,0.0,0.0,0.0,0.0,0.0,0.0,0.0,0.0,0.0,0.0,0.0,0.0,0.0,0.0,0.0,0.0,0.0,0.0,0.0,0.0,0.0,0.0,0.0,0.0,0.0,0.0,0.0,0.0,0.0,0.0,0.0,0.0,0.0,0.0,0.0,0.0,0.0,0.0,0.0,0.0,0.0,0.0,0.0,0.0,0.0,0.0,0.0,0.0,0.0,0.0,0.0,0.0,0.0,0.0,0.0,0.0,0.0,0.0,0.0,0.0,0.0,0.0,0.0,0.0,0.0,0.0,0.0,0.0,0.0,0.0,0.0,0.0,0.0,0.0,0.0,0.0,0.0,0.0,0.0,0.0,0.0,0.0,0.0,0.0,0.0,0.0,0.0,0.0,0.0,0.0,0.0,0.0,0.0,0.0,0.0,0.0,0.0,0.0,0.0,0.0,0.0,0.0,0.0,0.0,0.0,0.0,0.0,0.0,0.0,0.0,0.0,0.0,0.0,0.0,0.0,0.0,0.0,0.0,0.0,0.0,0.0,0.0,0.0,0.0,0.0,0.0,0.0,0.0,0.0,0.0,0.0,0.0,0.0,0.0,0.0,0.0,0.0,0.0,0.0,0.0,0.0,0.0,0.0,0.0,0.0,0.0,0.0,0.0,0.0,0.0,0.0,0.0,0.0,0.0,0.0,0.0,0.0,0.0,0.0,0.0,0.0,0.0,0.0,0.0,0.0,0.0,0.0,0.0,0.0,0.0,0.0,0.0,0.0,0.0,0.0,0.0,0.0,0.0,0.0,0.0,0.0,0.0,0.0,0.0,0.0,0.0,0.0,0.0,0.0,0.0,0.0,0.0,0.0,0.0,0.0,0.0,0.0,0.0,0.0,0.0,0.0,0.0,0.0,0.0,0.0,0.0,0.0,0.0,0.0,0.0,0.0,0.0,0.0,0.0,0.0,0.0,0.0,0.0,0.0,0.0,0.0,0.0,0.0,0.0,0.0,0.0,0.0,0.0,0.0,0.0,0.0,0.0,0.0,0.0,0.0,0.0,0.0,0.0,0.0,0.0,0.0,0.0,0.0,0.0,0.0,0.0,0.0,0.0,0.0,0.0,0.0,0.0,0.0,0.0,0.0,0.0,0.0,0.0,0.0,0.0,0.0,0.0,0.0,0.0,0.0,0.0,0.0,0.0,0.0,0.0,0.0,0.0,0.0,0.0,0.0,0.0,0.0,0.0,0.0,0.0,0.0,0.0,0.0,0.0,0.0,0.0,0.0,0.0,0.0,0.0,0.0,0.0,0.0,0.0,0.0,0.0,0.0,0.0,0.0,0.0,0.0,0.0,0.0,0.0,0.0,0.0,0.0,0.0,0.0,0.0,0.0,0.0,0.0,0.0,0.0,0.0,0.0,0.0,0.0,0.0,0.0,0.0,0.0,0.0,0.0,0.0,0.0,0.0,0.0,0.0,0.0,0.0,0.0,0.0,0.0,0.0,0.0,0.0,0.0,0.0,0.0,0.0,0.0,0.0,0.0,0.0,0.0,0.0,0.0,0.0,0.0,0.0,0.0,0.0,0.0,0.0,0.0,0.0,0.0,0.0,0.0,0.0,0.0,0.0,0.0,0.0,0.0,0.0,0.0,0.0,0.0,0.0,0.0,0.0,0.0,0.0,0.0,0.0,0.0,0.0,0.0,0.0,0.0,0.0,0.0,0.0,0.0,0.0,0.0,0.0,0.0,0.0,0.0,0.0,0.0,0.0,0.0,0.0,0.0,0.0,0.0,0.0,0.0,0.0,0.0,0.0,0.0,0.0,0.0,0.0,0.0,0.0,0.0,0.0,0.0,0.0,0.0,0.0,0.0,0.0,0.0,0.0,0.0,0.0,0.0,0.0,0.0,0.0,0.0,0.0,0.0,0.0,0.0,0.0,0.0,0.0,0.0,0.0,0.0,0.0,0.0,0.0,0.0,0.0,0.0,0.0,0.0,0.0,0.0,0.0,0.0,0.0,0.0,0.0,0.0,0.0,0.0,0.0,0.0,0.0,0.0,0.0,0.0,0.0,0.0,0.0,0.0,0.0,0.0,0.0,0.0,0.0,0.0,0.0,0.0,0.0,0.0,0.0,0.0,0.0,0.0,0.0,0.0,0.0,0.0,0.0,0.0,0.0,0.0,0.0,0.0,0.0,0.0,0.0,0.0,0.0,0.0,0.0,0.0,0.0,0.0,0.0,0.0,0.0,0.0,0.0,0.0,0.0,0.0,0.0,0.0,0.0,0.0,0.0,0.0,0.0,0.0,0.0,0.0,0.0,0.0,0.0,0.0,0.0,0.0,0.0,0.0,0.0,0.0,0.0,0.0,0.0,0.0,0.0,0.0,0.0,0.0,0.0,0.0,0.0,0.0,0.0,0.0,0.0,0.0,0.0,0.0,0.0,0.0,0.0,0.0,0.0,0.0,0.0,0.0,0.0,0.0,0.0,0.0,0.0,0.0,0.0,0.0,0.0,0.0,0.0,0.0,0.0,0.0,0.0,0.0,0.0,0.0,0.0,0.0,0.0,0.0,0.0,0.0,0.0,0.0,0.0,0.0,0.0,0.0,0.0,0.0,0.0,0.0,0.0,0.0,0.0,0.0,0.0,0.0,0.0,0.0,0.0,0.0,0.0,0.0,0.0,0.0,0.0,0.0,0.0,0.0,0.0,0.0,0.0,0.0,0.0,0.0,0.0,0.0,0.0,0.0,0.0,0.0,0.0,0.0,0.0,0.0,0.0,0.0,0.0,0.0,0.0,0.0,0.0,0.0,0.0,0.0,0.0,0.0,0.0,0.0,0.0,0.0,0.0,0.0,0.0,0.0,0.0,0.0,0.0,0.0,0.0,0.0,0.0,0.0,0.0,0.0,0.0,0.0,0.0,0.0,0.0,0.0,0.0,0.0,0.0,0.0,0.0,0.0,0.0,0.0,0.0,0.0,0.0,0.0,0.0,0.0,0.0,0.0,0.0,0.0,0.0,0.0,0.0,0.0,0.0,0.0,0.0,0.0,0.0,0.0,0.0,0.0,0.0,0.0,0.0,0.0,0.0,0.0,0.0,0.0,0.0,0.0,0.0,0.0,0.0,0.0,0.0,0.0,0.0,0.0,0.0,0.0,0.0,0.0,0.0,0.0,0.0,0.0,0.0,0.0,0.0,0.0,0.0,0.0,0.0,0.0,0.0,0.0,0.0,0.0,0.0,0.0,0.0,0.0,0.0,0.0,0.0,0.0,0.0,0.0,0.0,0.0,0.0,0.0,0.0,0.0,0.0,0.0,0.0,0.0,0.0,0.0,0.0,0.0,0.0,0.0,0.0,0.0,0.0,0.0,0.0,0.0,0.0,0.0,0.0,0.0,0.0,0.0,0.0,0.0,0.0,0.0,0.0,0.0,0.0,0.0,0.0,0.0,0.0,0.0,0.0,0.0,0.0,0.0,0.0,0.0,0.0,0.0,0.0,0.0,0.0,0.0,0.0,0.0,0.0,0.0,0.0,0.0,0.0,0.0,0.0,0.0,0.0,0.0,0.0,0.0,0.0,0.0,0.0,0.0,0.0,0.0,0.0,0.0,0.0,0.0,0.0,0.0,0.0,0.0,0.0,0.0,0.0,0.0,0.0,0.0,0.0,0.0,0.0,0.0,0.0,0.0,0.0,0.0,0.0,0.0,0.0,0.0,0.0,0.0,0.0,0.0,0.0,0.0,0.0,0.0,0.0,0.0,0.0,0.0,0.0,0.0,0.0,0.0,0.0,0.0,0.0,0.0,0.0,0.0,0.0,0.0,0.0,0.0,0.0,0.0,0.0,0.0,0.0,0.0,0.0,0.0,0.0,0.0,0.0,0.0,0.0,0.0,0.0,0.0,0.0,0.0,0.0,0.0,0.0,0.0,0.0,0.0,0.0,0.0,0.0,0.0,0.0,0.0,0.0,0.0,0.0,0.0,0.0,0.0,0.0,0.0,0.0,0.0,0.0,0.0,0.0,0.0,0.0,0.0,0.0,0.0,0.0,0.0,0.0,0.0,0.0,0.0,0.0,0.0,0.0,0.0,0.0,0.0,0.0,0.0,0.0,0.0,0.0,0.0,0.0,0.0,0.0,0.0,0.0,0.0,0.0,0.0,0.0,0.0,0.0,0.0,0.0,0.0,0.0,0.0,0.0,0.0,0.0,0.0,0.0,0.0,0.0,0.0,0.0,0.0,0.0,0.0,0.0,0.0,0.0,0.0,0.0,0.0,0.0,0.0,0.0,0.0,0.0,0.0,0.0,0.0,0.0,0.0,0.0,0.0,0.0,0.0,0.0,0.0,0.0,0.0,0.0,0.0,0.0,0.0,0.0,0.0,0.0,0.0,0.0,0.0,0.0,0.0,0.0,0.0,0.0,0.0,0.0,0.0,0.0,0.0,0.0,0.0,0.0,0.0,0.0,0.0,0.0,0.0,0.0,0.0,0.0,0.0,0.0,0.0,0.0,0.0,0.0,0.0,0.0,0.0,0.0,0.0,0.0,0.0,0.0,0.0,0.0,0.0,0.0,0.0,0.0,0.0,0.0,0.0,0.0,0.0,0.0,0.0,0.0,0.0,0.0,0.0,0.0,0.0,0.0,0.0,0.0,0.0,0.0,0.0,0.0,0.0,0.0,0.0,0.0,0.0,0.0,0.0,0.0,0.0,0.0,0.0,0.0,0.0,0.0,0.0,0.0,0.0,0.0,0.0,0.0,0.0,0.0,0.0,0.0,0.0,0.0,0.0,0.0,0.0,0.0,0.0,0.0,0.0,0.0,0.0,0.0,0.0,0.0,0.0,0.0,0.0,0.0,0.0,0.0,0.0,0.0,0.0,0.0,0.0,0.0,0.0,0.0,0.0,0.0,0.0,0.0,0.0,0.0,0.0,0.0,0.0,0.0,0.0,0.0,0.0,0.0,0.0,0.0,0.0,0.0,0.0,0.0,0.0,0.0,0.0,0.0,0.0,0.0,0.0,0.0,0.0,0.0,0.0,0.0,0.0,0.0,0.0,0.0,0.0,0.0,0.0,0.0,0.0,0.0,0.0,0.0,0.0,0.0,0.0,0.0,0.0,0.0,0.0,0.0,0.0,0.0,0.0,0.0,0.0,0.0,0.0,0.0,0.0,0.0,0.0,0.0,0.0,0.0,0.0,0.0,0.0,0.0,0.0,0.0,0.0,0.0,0.0,0.0,0.0,0.0,0.0,0.0,0.0,0.0,0.0,0.0,0.0,0.0,0.0,0.0,0.0,0.0,0.0,0.0,0.0,0.0,0.0,0.0,0.0,0.0,0.0,0.0,0.0,0.0,0.0,0.0,0.0,0.0,0.0,0.0,0.0,0.0,0.0,0.0,0.0,0.0,0.0,0.0,0.0,0.0,0.0,0.0,0.0,0.0,0.0,0.0,0.0,0.0,0.0,0.0,0.0,0.0,0.0,0.0,0.0,0.0,0.0,0.0,0.0,0.0,0.0,0.0,0.0,0.0,0.0,0.0,0.0,0.0,0.0,0.0,0.0,0.0,0.0,0.0,0.0,0.0,0.0,0.0,0.0,0.0,0.0,0.0,0.0,0.0,0.0,0.0,0.0,0.0,0.0,0.0,0.0,0.0,0.0,0.0,0.0,0.0,0.0,0.0,0.0,0.0,0.0,0.0,0.0,0.0,0.0,0.0,0.0,0.0,0.0,0.0,0.0,0.0,0.0,0.0,0.0,0.0,0.0,0.0,0.0,0.0,0.0,0.0,0.0,0.0,0.0,0.0,0.0,0.0,0.0,0.0,0.0,0.0,0.0,0.0,0.0,0.0,0.0,0.0,0.0,0.0,0.0,0.0,0.0,0.0,0.0,0.0,0.0,0.0,0.0,0.0,0.0,0.0,0.0,0.0,0.0,0.0,0.0,0.0,0.0,0.0,0.0,0.0,0.0,0.0,0.0,0.0,0.0,0.0,0.0,0.0,0.0,0.0,0.0,0.0,0.0,0.0,0.0,0.0,0.0,0.0,0.0,0.0,0.0,0.0,0.0,0.0,0.0,0.0,0.0,0.0,-2.3053,-2.3174,0.0,0.0,0.0,0.0,0.0,0.0,0.0,0.0,0.0,0.0,0.0,0.0,0.0,0.0,0.0,0.0,0.0,0.0,0.0,0.0,0.0,0.0,0.0,0.0,0.0,0.0,0.0,0.0,0.0,0.0,0.0,0.0,0.0,0.0,0.0,0.0,0.0,0.0,-0.668,-0.6905,-0.7186,-0.7565,-0.8129,-0.8824,0.0,0.0,0.0,0.0,0.0,0.0,0.0,0.0,0.0,0.0,0.0,0.0,0.0,0.0,0.0,0.0,0.0,0.0,0.0,0.0,0.0,0.0,0.0,0.0,0.0,0.0,0.0,0.0,0.0,0.0,0.0,0.0,0.0,0.0,0.0,0.0,0.0,0.0,0.0,0.0,0.0,0.0,0.0,0.0,0.0,0.0,0.0,0.0,0.0,0.0,0.0,0.0,0.0,0.0,0.0,0.0,0.0,0.0,0.0,0.0,0.0,0.0,0.0,0.0,0.0,0.0,0.0,0.0,0.0,0.0,-2.3514,-2.3294,0.0,0.0,0.0,0.0,0.0,0.0,0.0,0.0,0.0,0.0,0.0,0.0,0.0,0.0,0.0,0.0,0.0,0.0,0.0,0.0,0.0,0.0,0.0,0.0,-0.7306,-0.7149,-0.7031,-0.6864,0.0,0.0,0.0,0.0,0.0,0.0,0.0,0.0,0.0,0.0,-0.6417,-0.6681,-0.7005,-0.7005,-0.7446,-0.8257,-0.8356,0.0,0.0,0.0,0.0,0.0,0.0,0.0,0.0,0.0,0.0,0.0,0.0,0.0,0.0,0.0,0.0,0.0,0.0,0.0,0.0,0.0,0.0,0.0,0.0,0.0,0.0,0.0,0.0,0.0,0.0,0.0,0.0,0.0,0.0,0.0,0.0,0.0,0.0,0.0,0.0,0.0,0.0,0.0,0.0,0.0,0.0,0.0,0.0,0.0,0.0,0.0,0.0,0.0,0.0,0.0,0.0,0.0,0.0,0.0,0.0,0.0,0.0,0.0,-2.4367,-2.4733,-2.5243,-2.5421,-2.5547,-2.5644,-2.3984,-2.3364,-2.3595,-2.3595,0.0,0.0,0.0,0.0,0.0,0.0,0.0,0.0,0.0,0.0,0.0,0.0,0.0,0.0,0.0,0.0,0.0,0.0,0.0,0.0,0.0,-0.6592,-0.6707,-0.6549,-0.6376,-0.6263,0.0,0.0,0.0,0.0,0.0,0.0,0.0,-0.5441,-0.5524,-0.569,-0.5817,-0.6055,-0.6229,-0.6229,-0.6506,-0.697,-0.7365,-0.7677,-0.7908,0.0,0.0,0.0,0.0,0.0,0.0,0.0,0.0,0.0,0.0,0.0,0.0,0.0,0.0,0.0,0.0,0.0,0.0,0.0,0.0,0.0,0.0,0.0,0.0,0.0,0.0,0.0,0.0,0.0,0.0,0.0,0.0,0.0,0.0,0.0,0.0,0.0,0.0,0.0,0.0,0.0,-1.4611,-1.5039,0.0,0.0,0.0,0.0,0.0,0.0,0.0,0.0,0.0,0.0,0.0,0.0,0.0,-2.1608,-2.22,-2.2972,-2.3638,-2.4218,-2.4566,-2.4809,-2.4885,-2.518,-2.5358,-2.5345,-2.5112,0.0,-2.5082,-2.5082,0.0,0.0,0.0,0.0,0.0,0.0,0.0,0.0,0.0,0.0,0.0,0.0,0.0,0.0,0.0,0.0,0.0,0.0,0.0,0.0,0.0,-0.6067,-0.6154,-0.605,-0.5828,-0.5609,-0.5395,-0.5336,0.0,0.0,0.0,0.0,-0.4922,-0.4925,-0.4991,-0.5121,-0.5192,-0.5301,-0.5377,-0.5377,-0.548,-0.5672,-0.6053,-0.6683,-0.7433,-0.7429,0.0,0.0,0.0,0.0,0.0,0.0,0.0,0.0,0.0,0.0,0.0,0.0,0.0,0.0,0.0,0.0,0.0,0.0,0.0,0.0,0.0,0.0,0.0,0.0,0.0,0.0,0.0,0.0,0.0,0.0,0.0,0.0,0.0,0.0,0.0,0.0,0.0,0.0,0.0,-1.4479,-1.5177,-1.5652,-1.6202,-1.6644,0.0,0.0,0.0,0.0,0.0,0.0,0.0,0.0,0.0,-2.111,-2.162,-2.2147,-2.2783,-2.3207,-2.3784,-2.4371,-2.4664,-2.5036,-2.54,-2.5602,-2.5711,-2.5899,-2.5899,-2.5844,-2.5751,-2.5686,-2.5189,-2.4469,0.0,0.0,0.0,0.0,-2.3803,-2.3803,0.0,0.0,0.0,0.0,0.0,0.0,0.0,0.0,0.0,0.0,0.0,0.0,-0.5443,-0.554,-0.5555,-0.5555,-0.5281,-0.4952,-0.468,-0.468,0.0,0.0,0.0,-0.4342,-0.4394,-0.4408,-0.4424,-0.4498,-0.4531,-0.4528,-0.455,-0.455,-0.455,-0.455,-0.4891,-0.562,-0.6732,-0.6784,-0.6908,-0.7075,0.0,0.0,0.0,0.0,0.0,0.0,0.0,0.0,0.0,0.0,0.0,0.0,0.0,0.0,0.0,0.0,0.0,0.0,0.0,0.0,0.0,0.0,0.0,0.0,0.0,0.0,0.0,0.0,0.0,0.0,0.0,0.0,0.0,0.0,0.0,0.0,0.0,-1.4906,-1.5563,-1.6314,-1.703,-1.7481,0.0,0.0,0.0,0.0,0.0,0.0,-2.0098,-2.0348,-2.0884,-2.1904,-2.2105,-2.2527,-2.3242,-2.3431,-2.3866,-2.4596,-2.4735,-2.5147,-2.5758,-2.5828,-2.5968,-2.6289,-2.6289,-2.6201,-2.6054,-2.5949,-2.5618,-2.5145,-2.534,-2.515,-2.4767,-2.4767,-2.4767,-2.4741,0.0,0.0,0.0,0.0,0.0,0.0,0.0,0.0,0.0,0.0,0.0,-0.5198,-0.5059,-0.4967,-0.4952,-0.4952,-0.468,-0.4408,-0.4079,-0.4021,-0.3913,-0.3638,-0.3686,-0.3746,-0.3751,-0.3791,-0.3781,-0.3597,-0.3765,-0.382,-0.3825,-0.3825,-0.3825,-0.3825,-0.3892,-0.4492,-0.5491,-0.5939,-0.626,-0.6437,-0.6578,0.0,0.0,0.0,0.0,0.0,0.0,0.0,0.0,0.0,0.0,0.0,0.0,0.0,0.0,0.0,0.0,0.0,0.0,0.0,0.0,0.0,0.0,0.0,0.0,0.0,0.0,0.0,0.0,0.0,0.0,0.0,0.0,0.0,0.0,0.0,0.0,0.0,0.0,-1.6587,-1.6719,0.0,0.0,0.0,0.0,-1.8415,-1.9568,-2.0425,-2.0851,-2.121,-2.16,-2.2058,-2.2195,-2.2628,-2.3398,-2.3607,-2.4097,-2.4826,-2.4921,-2.5134,-2.5312,-2.5535,-2.5758,-2.591,-2.591,-2.5886,-2.5894,-2.6067,-2.5768,-2.5319,-2.5319,-2.5306,-2.528,-2.528,-2.528,-2.5203,0.0,0.0,0.0,0.0,0.0,0.0,0.0,0.0,-0.4797,-0.4583,-0.4632,-0.466,-0.4519,-0.4389,-0.4298,-0.4298,-0.4079,-0.3802,-0.3463,-0.3408,-0.3329,-0.3113,-0.3092,-0.3109,-0.3111,-0.3111,-0.2975,-0.2775,-0.2871,-0.2887,-0.2757,-0.2757,-0.2757,-0.2757,-0.2887,-0.3086,-0.3551,-0.455,-0.5213,-0.5609,-0.5756,-0.5925,0.0,0.0,0.0,0.0,0.0,0.0,0.0,0.0,0.0,0.0,0.0,0.0,0.0,0.0,0.0,0.0,0.0,0.0,0.0,0.0,0.0,0.0,0.0,0.0,0.0,0.0,0.0,0.0,0.0,0.0,0.0,0.0,0.0,0.0,0.0,0.0,0.0,-1.6412,-1.6855,0.0,-1.8065,-1.8494,-1.8968,-1.9469,-1.9996,-2.0474,-2.0775,-2.0994,-2.1469,-2.2203,-2.2269,-2.2688,-2.3492,-2.3636,-2.3872,-2.4418,-2.4467,-2.4694,-2.4992,-2.5064,-2.5265,-2.5535,-2.5535,-2.5676,-2.5886,-2.5965,-2.577,-2.5532,-2.5715,-2.5614,-2.5294,-2.5294,-2.5294,-2.5268,0.0,0.0,0.0,0.0,0.0,0.0,0.0,0.0,-0.4403,-0.4184,-0.4207,-0.4165,-0.4026,-0.3862,-0.3744,-0.3688,-0.3466,-0.3246,-0.291,-0.2852,-0.2723,-0.258,-0.2458,-0.2422,-0.2414,-0.2262,-0.2149,-0.1947,-0.1879,-0.1814,-0.1748,-0.1681,-0.1614,-0.1614,-0.1813,-0.1879,-0.2014,-0.2883,-0.3751,-0.4489,-0.4891,-0.5098,-0.5203,0.0,0.0,0.0,0.0,0.0,0.0,0.0,0.0,0.0,0.0,0.0,0.0,0.0,0.0,0.0,0.0,0.0,0.0,0.0,0.0,0.0,0.0,0.0,0.0,0.0,0.0,0.0,0.0,0.0,0.0,0.0,0.0,0.0,0.0,-1.5097,-1.5877,-1.6224,-1.7001,-1.7694,-1.826,-1.8689,-1.9179,-1.9755,-2.0143,-2.0452,-2.069,-2.1042,-2.1605,-2.2193,-2.2331,-2.2673,-2.3405,-2.3383,-2.3593,-2.397,-2.397,-2.42,-2.4574,-2.4574,-2.4778,-2.5111,-2.5111,-2.5265,-2.556,-2.5618,-2.562,-2.5494,-2.5887,-2.5807,-2.5479,-2.5479,-2.5557,-2.5572,0.0,0.0,0.0,0.0,0.0,0.0,0.0,-0.4403,-0.4188,-0.3924,-0.3829,-0.3717,-0.3577,-0.3439,-0.3299,-0.3074,-0.2961,-0.274,-0.2465,-0.2296,-0.2161,-0.2058,-0.1813,-0.1634,-0.1546,-0.1345,-0.121,-0.1076,-0.0874,-0.0739,-0.0739,-0.0538,-0.047,-0.047,-0.0672,-0.0874,-0.1076,-0.121,-0.195,-0.3163,-0.3961,-0.4225,-0.4292,0.0,0.0,0.0,0.0,0.0,0.0,0.0,0.0,0.0,0.0,0.0,0.0,0.0,0.0,0.0,0.0,0.0,0.0,0.0,0.0,0.0,0.0,0.0,0.0,0.0,0.0,0.0,0.0,0.0,0.0,0.0,0.0,0.0,-1.4462,-1.4967,-1.5455,-1.6175,-1.6982,-1.7594,-1.7775,-1.8483,-1.9004,-1.9234,-1.9866,-2.0412,-2.0775,-2.1419,-2.1883,-2.2101,-2.2306,-2.2596,-2.3001,-2.3001,-2.315,-2.3593,-2.3593,-2.3824,-2.42,-2.4189,-2.4418,-2.479,-2.479,-2.479,-2.479,-2.5182,-2.5312,-2.5312,-2.5758,-2.591,-2.591,-2.591,-2.6037,-2.6027,0.0,0.0,0.0,0.0,0.0,0.0,0.0,-0.4056,-0.3751,-0.3575,-0.3449,-0.3268,-0.3024,-0.2958,-0.2745,-0.2462,-0.235,-0.2127,-0.1852,-0.1682,-0.1381,-0.1094,-0.0902,-0.08,-0.0672,-0.047,-0.0269,-0.0067,0.0,0.0067,0.0134,0.0202,0.0202,0.0202,0.0134,0.0134,0.0067,-0.0269,-0.0544,-0.0969,-0.228,-0.3109,-0.3597,0.0,0.0,0.0,0.0,0.0,0.0,0.0,0.0,0.0,0.0,0.0,0.0,0.0,0.0,0.0,0.0,0.0,0.0,0.0,0.0,0.0,0.0,0.0,0.0,0.0,0.0,0.0,0.0,0.0,0.0,0.0,-1.2668,-1.3422,-1.4117,-1.4909,-1.5638,-1.6237,-1.6746,-1.7393,-1.814,-1.8561,-1.8974,-1.9427,-1.9947,-2.04,-2.0621,-2.0961,-2.1339,-2.1655,-2.1873,-2.2101,-2.2327,-2.2478,-2.2703,-2.2927,-2.3075,-2.3298,-2.3519,-2.3666,-2.3897,-2.4127,-2.4273,-2.4418,-2.4574,-2.4849,-2.4921,-2.4992,-2.563,-2.591,-2.591,-2.591,-2.5664,-2.5339,0.0,0.0,0.0,0.0,0.0,0.0,0.0,-0.3796,-0.349,-0.322,-0.3072,-0.2921,-0.267,-0.2473,-0.2298,-0.2074,-0.1849,-0.1625,-0.1403,-0.1136,-0.0762,-0.0308,-0.0129,0.0,0.0134,0.0403,0.0605,0.0739,0.0874,0.1008,0.1076,0.1209,0.1276,0.121,0.1209,0.1142,0.1076,0.0806,0.0615,0.0421,-0.0496,-0.1422,-0.235,-0.2748,-0.3199,-0.3706,-0.3923,-0.4287,-0.4712,-0.4779,0.0,0.0,0.0,0.0,0.0,0.0,0.0,0.0,0.0,0.0,0.0,0.0,0.0,0.0,0.0,0.0,0.0,0.0,0.0,0.0,0.0,0.0,0.0,0.0,-1.2511,-1.3114,-1.3829,-1.4757,-1.5519,-1.5964,-1.6615,-1.7235,-1.7925,-1.8326,-1.8749,-1.9301,-1.9706,-1.9942,-2.0186,-2.0489,-2.0799,-2.1108,-2.1339,-2.1558,-2.1842,-2.2014,-2.2252,-2.2456,-2.2617,-2.2852,-2.3075,-2.3224,-2.3446,-2.3677,-2.3824,-2.4043,-2.4116,-2.4345,-2.449,-2.4646,0.0,0.0,0.0,0.0,-2.5022,-2.4609,0.0,0.0,0.0,0.0,0.0,0.0,0.0,-0.3619,-0.3357,-0.2957,-0.273,-0.2557,-0.2367,-0.2088,-0.1898,-0.174,-0.1403,-0.1122,-0.0954,-0.0579,-0.0119,0.0432,0.0572,0.0719,0.1007,0.1277,0.1479,0.1479,0.1883,0.2084,0.2085,0.2418,0.2485,0.2354,0.235,0.2216,0.2085,0.1883,0.1643,0.141,0.1299,0.0365,-0.0952,-0.1687,-0.2129,-0.2422,-0.3008,-0.3374,-0.3593,-0.3944,0.0,0.0,0.0,0.0,0.0,0.0,0.0,0.0,0.0,0.0,0.0,0.0,0.0,0.0,0.0,0.0,0.0,0.0,0.0,0.0,0.0,0.0,0.0,0.0,-1.2364,-1.2959,-1.3529,-1.4456,-1.5185,-1.5567,-1.6455,-1.7142,-1.7448,-1.7994,-1.8523,-1.8843,-1.9073,-1.9311,-1.9487,-1.9951,0.0,0.0,0.0,-2.1001,-2.142,-2.1624,-2.1787,-2.1993,-2.2166,-2.2402,-2.2628,-2.2777,-2.3001,-2.3224,-2.3372,-2.3519,-2.3519,-2.3683,-2.3857,-2.4039,-2.4529,-2.4707,-2.4708,-2.4431,-2.4142,-2.3807,0.0,0.0,0.0,0.0,0.0,0.0,0.0,-0.3391,-0.3037,-0.2776,-0.2523,-0.2239,-0.1862,-0.1785,-0.1578,-0.1119,-0.0898,-0.0561,0.0056,0.0174,0.0537,0.123,0.1269,0.1567,0.2079,0.2149,0.235,0.2688,0.2891,0.3023,0.322,0.3422,0.3491,0.3491,0.3489,0.3489,0.3422,0.3025,0.2904,0.2889,0.2323,0.1179,-0.0226,-0.0384,-0.0851,-0.1545,-0.1854,-0.2318,-0.2775,-0.3099,-0.345,-0.3734,-0.3878,-0.42,0.0,0.0,0.0,0.0,0.0,0.0,0.0,0.0,0.0,0.0,0.0,0.0,0.0,0.0,0.0,0.0,0.0,0.0,0.0,-1.1523,-1.2104,-1.2797,-1.3514,-1.4104,-1.4765,-1.5461,-1.6251,-1.6871,-1.7114,-1.7577,-1.7942,-1.8201,-1.8434,-1.8754,-1.9082,-1.939,-1.9627,-1.9794,-2.0186,-2.0566,-2.0789,-2.0944,-2.1185,-2.1349,-2.1578,0.0,-2.1959,-2.2176,-2.2402,-2.2553,-2.2777,-2.3001,-2.3117,-2.2939,-2.2775,-2.2682,-2.377,-2.4131,-2.4073,-2.3703,-2.323,-2.2805,0.0,0.0,0.0,0.0,0.0,0.0,0.0,-0.3258,-0.2901,-0.2549,-0.232,-0.2078,-0.1709,-0.1461,-0.1189,-0.0838,-0.0393,0.0112,0.0729,0.0797,0.1166,0.1864,0.1985,0.2236,0.2825,0.2998,0.3286,0.3623,0.3825,0.3956,0.4151,0.4353,0.4422,0.4422,0.4422,0.4422,0.4422,0.4156,0.4082,0.4138,0.3632,0.29,0.1925,0.1015,0.0314,-0.0235,-0.0627,-0.1098,-0.1642,-0.201,-0.2386,-0.2764,-0.3035,-0.322,-0.3483,0.0,0.0,0.0,0.0,0.0,0.0,0.0,0.0,0.0,0.0,0.0,0.0,0.0,0.0,-0.9246,-0.9643,0.0,-1.0846,-1.1248,-1.1944,-1.2575,-1.3041,-1.3596,-1.4345,-1.5323,-1.5883,-1.6312,-1.6722,-1.7049,-1.7302,-1.7546,-1.7861,-1.8193,-1.8523,-1.8754,-1.8993,-1.932,-1.9557,-1.9784,-2.0079,-2.0323,-2.0498,-2.0761,-2.1041,-2.1141,-2.0994,-2.1316,-2.1416,-2.1324,-2.1627,-2.1784,-2.1908,-2.2029,-2.2011,-2.194,-2.2457,-2.2798,-2.291,-2.2811,-2.2456,-2.2086,0.0,0.0,0.0,0.0,0.0,0.0,0.0,-0.3262,-0.2812,-0.2368,-0.2121,-0.1866,-0.154,-0.1186,-0.0858,-0.0503,0.0168,0.0729,0.1233,0.1402,0.1763,0.2466,0.2592,0.2921,0.3537,0.3816,0.4132,0.4553,0.4755,0.4954,0.5143,0.5348,0.5418,0.5481,0.5481,0.5481,0.5418,0.5246,0.5202,0.5294,0.5035,0.4737,0.43,0.2659,0.1645,0.1176,0.0549,0.0078,-0.0313,-0.0862,-0.1254,-0.1647,-0.204,-0.2245,-0.2436,-0.289,-0.3149,0.0,0.0,0.0,0.0,0.0,0.0,0.0,0.0,-0.7243,-0.7769,-0.8237,-0.8755,-0.9164,-0.9577,-1.0019,-1.0539,-1.0941,-1.1634,-1.2218,-1.2468,-1.3077,-1.3899,-1.4894,-1.5318,-1.565,-1.6147,-1.6402,-1.6648,-1.6894,-1.7212,-1.7538,-1.7789,-1.8031,-1.8353,-1.8754,-1.8843,-1.9073,-1.9441,-1.9618,-1.9882,-2.0136,-2.0401,-2.0321,-2.0053,-2.0366,-2.0356,-2.0135,-2.0502,-2.0673,-2.067,-2.1091,-2.1246,-2.1196,-2.1185,-2.1295,-2.157,-2.1843,-2.1783,-2.1561,0.0,0.0,0.0,0.0,0.0,0.0,0.0,0.0,-0.2776,-0.2368,-0.1932,-0.1513,-0.1193,-0.0942,-0.0522,0.0223,0.0729,0.1289,0.1847,0.2015,0.2442,0.317,0.3184,0.3583,0.4429,0.451,0.4832,0.5481,0.5686,0.5885,0.6199,0.6404,0.6605,0.6728,0.6728,0.6728,0.6675,0.6574,0.6553,0.6603,0.6159,0.594,0.5854,0.4921,0.3677,0.2275,0.1803,0.1411,0.094,0.0157,-0.0157,-0.0314,-0.0864,-0.1253,-0.1561,-0.1952,-0.2338,-0.2722,-0.3108,-0.3787,-0.4515,-0.4622,-0.5306,-0.597,0.0,-0.6585,-0.717,-0.736,-0.7851,-0.8263,-0.8677,-0.9234,-0.9863,-1.0361,-1.0964,-1.1547,-1.1975,-1.251,-1.3045,-1.3561,-1.4314,-1.4908,-1.5249,-1.5575,-1.5906,-1.617,-1.6402,-1.6722,-1.7221,-1.7383,-1.7627,-1.7861,-1.8273,-1.8585,-1.8816,-1.8993,-1.9231,-1.9381,-1.9245,-1.9269,-1.943,-1.93,-1.9472,-1.9713,-2.0063,-2.0122,-1.991,-2.0176,-2.008,-1.9831,-2.0151,-2.0249,-2.0379,-2.0843,-2.1012,-2.1031,0.0,0.0,0.0,0.0,0.0,0.0,0.0,0.0,0.0,0.0,-0.2016,-0.1547,-0.1138,-0.0502,0.0158,0.076,0.133,0.1793,0.224,0.2573,0.2981,0.3591,0.3721,0.4192,0.5054,0.5147,0.5588,0.6346,0.6416,0.6741,0.7129,0.7265,0.7396,0.7647,0.7587,0.7582,0.7657,0.7678,0.7679,0.7668,0.7492,0.7309,0.7088,0.6468,0.5619,0.4533,0.3368,0.2741,0.0,0.1647,0.1176,0.0706,0.0314,-0.0078,-0.0471,-0.102,-0.1256,-0.1574,-0.2232,-0.3091,-0.3816,-0.3853,-0.4532,-0.5134,-0.5281,-0.5893,-0.66,-0.6943,-0.7472,-0.8072,-0.8495,-0.9077,-0.9565,-0.9823,-1.0494,-1.0982,-1.1154,-1.1757,-1.2186,-1.2528,-1.3039,-1.3724,-1.4573,-1.4992,-1.5242,-1.5506,-1.5824,-1.6154,-1.6492,-1.673,-1.6894,-1.7131,-1.7456,-1.7708,-1.7951,-1.8103,-1.824,-1.825,-1.8392,-1.8297,-1.7907,-1.8108,-1.8199,-1.8315,-1.8586,-1.8834,-1.8947,-1.9073,-1.923,-1.9341,-1.9528,-1.9791,-2.0053,-2.0593,-2.0786,-2.0786,0.0,0.0,0.0,0.0,0.0,0.0,0.0,0.0,0.0,0.0,-0.2105,-0.1594,-0.0995,-0.01,0.0625,0.1117,0.1688,0.2216,0.2631,0.3074,0.3519,0.3962,0.4229,0.4752,0.5497,0.5728,0.6219,0.7062,0.7181,0.747,0.7992,0.8052,0.8242,0.8495,0.8431,0.8495,0.8576,0.8689,0.8705,0.8664,0.8729,0.8487,0.8169,0.7702,0.7169,0.6472,0.4849,0.3917,0.3446,0.2979,0.2352,0.1723,0.1334,0.102,0.0628,-0.0079,-0.0395,-0.0719,-0.1396,-0.2261,-0.2971,-0.3074,-0.3677,-0.4379,-0.4617,-0.5331,-0.597,-0.6416,-0.6966,-0.7584,-0.8109,-0.8552,-0.899,-0.9253,-0.9859,-1.0289,-1.0294,-1.0982,-1.1413,-1.1585,-1.1929,-1.2528,-1.3633,-1.4062,-1.4405,-1.4664,-1.5068,-1.5484,-1.5665,-1.5906,-1.6154,-1.6319,-1.6648,-1.6894,-1.7074,-1.7302,-1.7354,-1.7153,-1.7441,-1.7273,-1.6628,-1.7018,-1.7174,-1.7097,-1.7442,-1.7784,-1.8066,-1.825,-1.8586,-1.8865,-1.9142,-1.9407,-1.9736,-2.027,-2.054,-2.0669,0.0,0.0,0.0,0.0,0.0,0.0,0.0,0.0,0.0,0.0,0.0,0.0,0.0,0.0191,0.0788,0.1271,0.1864,0.2429,0.3067,0.3519,0.3962,0.4463,0.4739,0.5154,0.5797,0.6151,0.6763,0.7606,0.7817,0.8247,0.877,0.8894,0.9081,0.9274,0.939,0.9454,0.949,0.9616,0.9625,0.9676,0.9575,0.9463,0.917,0.8556,0.825,0.7791,0.5938,0.501,0.4543,0.3997,0.3446,0.2976,0.2352,0.2038,0.1647,0.0785,0.0,-0.0657,-0.0685,-0.1388,-0.2181,-0.2491,-0.3041,-0.3758,-0.4206,-0.465,-0.5184,-0.563,-0.6074,-0.6605,-0.7051,-0.7496,-0.8025,-0.8548,-0.899,-0.9432,-0.9602,-1.0207,-1.0636,-1.0636,-1.1063,-1.1494,-1.2015,-1.2875,-1.3483,-1.3737,-1.4146,-1.4566,-1.4734,-1.4999,-1.5249,-1.5394,-1.5906,-1.617,-1.617,-1.6492,-1.6555,-1.6198,-1.6338,-1.6137,-1.5823,-1.6182,-1.636,-1.6342,-1.6959,-1.7304,-1.7451,-1.7872,-1.8144,-1.8405,-1.8865,-1.9131,-1.9198,-1.9736,-2.014,-2.0475,0.0,0.0,0.0,0.0,0.0,0.0,0.0,0.0,0.0,0.0,0.0,0.0,0.0,0.0,0.0,0.0,0.2072,0.2673,0.3133,0.3753,0.4298,0.4736,0.5175,0.5652,0.6244,0.6792,0.7365,0.8027,0.8324,0.8765,0.9268,0.9332,0.946,0.9792,0.9786,0.9849,0.9887,1.0307,1.0396,1.0305,1.0533,1.0293,0.9846,0.9392,0.8937,0.8399,0.0,0.6395,0.5625,0.516,0.4535,0.3915,0.3448,0.2978,0.2515,0.1518,0.0735,0.0167,-0.0172,-0.0703,-0.1244,-0.17,-0.2242,-0.2781,-0.3226,-0.3849,-0.4385,-0.4924,-0.5544,-0.6074,-0.652,-0.7051,-0.7492,-0.7841,-0.8285,-0.864,-0.8899,-0.9428,-0.9777,-0.9946,-1.0381,-1.0722,-1.1063,-1.1929,-1.2619,-1.3045,-1.347,-1.373,-1.3815,-1.425,-1.4496,-1.4559,-1.4817,-1.5075,-1.5159,-1.5264,-1.524,-1.4997,-1.4893,-1.4854,-1.4808,-1.5333,-1.5559,-1.563,-1.6193,-1.6551,-1.6691,-1.7107,-1.7451,-1.7725,-1.8202,-1.8607,-1.8942,-1.9274,-1.9671,-2.014,0.0,0.0,0.0,0.0,0.0,0.0,0.0,0.0,0.0,0.0,0.0,0.0,0.0,0.0,0.0,0.0,0.0,0.2781,0.3237,0.3948,0.4522,0.4956,0.5454,0.5949,0.6473,0.7087,0.7671,0.826,0.8697,0.9122,0.9594,0.9716,0.9913,1.011,1.0174,1.0238,1.027,1.067,1.0734,1.0635,1.0873,1.0615,1.0109,0.9674,0.9278,0.0,0.8063,0.7423,0.6703,0.6089,0.5318,0.4618,0.4231,0.3626,0.2872,0.2205,0.142,0.0854,0.0612,0.0,-0.0538,-0.0987,-0.1525,-0.2063,-0.2599,-0.3135,-0.376,-0.4389,-0.4921,-0.5364,-0.6074,-0.6428,-0.6786,-0.7139,-0.758,-0.7955,-0.819,-0.8649,-0.9123,-0.9366,-0.9727,-1.0051,0.0,0.0,-1.1505,-1.2192,-1.2619,-1.2875,-1.2875,-1.3313,-1.3561,-1.3633,-1.3802,-1.3977,-1.423,-1.4173,-1.4055,-1.3966,-1.3733,-1.3768,-1.3912,-1.4482,-1.4768,-1.484,-1.5417,-1.5771,-1.5921,-1.6482,-1.683,-1.7166,-1.7725,-1.8134,-1.8539,-1.8942,-1.9341,-1.9736,0.0,0.0,0.0,0.0,0.0,0.0,0.0,0.0,0.0,0.0,0.0,0.0,0.0,0.0,0.0,0.0,0.0,0.0,0.3332,0.4044,0.4677,0.5069,0.5673,0.6109,0.6381,0.7048,0.7725,0.8299,0.8812,0.9327,0.9779,1.011,1.0301,1.0301,1.0498,1.0624,1.0581,1.0673,1.0725,1.0685,1.0635,1.0327,0.9985,0.9642,0.9285,0.889,0.8249,0.7926,0.7617,0.6641,0.5867,0.5243,0.4776,0.3905,0.2941,0.2674,0.2051,0.1484,0.1427,0.0718,0.0,-0.0269,-0.0897,-0.1524,-0.2239,-0.2688,-0.3136,-0.403,-0.4297,-0.4565,-0.5453,-0.563,-0.5899,-0.6615,-0.6972,-0.72,-0.7615,-0.8102,-0.8535,0.0,0.0,0.0,0.0,0.0,-1.0267,-1.117,-1.1671,-1.1929,-1.1929,-1.2357,-1.2619,-1.2619,-1.279,-1.3045,-1.3307,-1.3252,-1.314,-1.3023,-1.2885,-1.29,-1.3119,-1.3542,-1.3833,-1.4057,-1.4617,-1.4982,-1.5204,-1.5912,-1.6333,-1.6603,-1.7364,-1.7784,-1.8076,-1.8808,-1.9142,-1.9407,0.0,0.0,0.0,0.0,0.0,0.0,0.0,0.0,0.0,0.0,0.0,0.0,0.0,0.0,0.0,0.0,0.0,0.0,0.3001,0.3742,0.4402,0.4952,0.5614,0.6109,0.6381,0.721,0.7756,0.7983,0.8723,0.9297,0.9754,0.9958,1.0238,1.0561,1.0561,1.0624,1.0581,1.0673,1.0725,1.0685,1.0504,1.0263,0.9985,0.9567,0.9113,0.8689,0.8276,0.7843,0.753,0.69,0.6093,0.5243,0.4618,0.4062,0.3511,0.301,0.265,0.2271,0.1606,0.1076,0.0628,0.009,-0.0538,-0.0987,-0.1524,-0.2153,-0.2691,-0.3136,-0.3851,-0.4389,-0.4654,-0.5188,-0.5719,-0.5988,-0.6427,-0.6869,-0.7363,-0.7653,0.0,-0.8426,0.0,-0.8918,-0.9022,-0.9182,-0.9459,-0.9791,-1.0549,-1.1068,-1.1241,-1.1499,-1.1671,-1.1671,-1.1671,-1.1929,-1.2357,-1.2328,-1.206,-1.159,-1.1738,-1.1855,-1.2077,-1.2519,-1.2886,-1.3258,-1.3833,-1.4194,-1.4418,-1.5204,-1.563,-1.585,-1.6603,-1.7166,-1.7657,-1.8269,-1.8808,-1.9351,0.0,0.0,0.0,0.0,0.0,0.0,0.0,0.0,0.0,0.0,0.0,0.0,0.0,0.0,0.0,0.0,0.0,0.0,0.0,0.3354,0.4068,0.4624,0.5295,0.5832,0.6223,0.6944,0.7449,0.7717,0.8463,0.9034,0.9456,0.9737,1.0065,1.0371,1.0371,1.0371,1.0314,1.0283,1.0282,0.0,0.0,0.9653,0.9451,0.8904,0.8485,0.8115,0.7825,0.7425,0.6901,0.6451,0.5941,0.5321,0.4618,0.425,0.3967,0.335,0.301,0.2651,0.1968,0.1436,0.0987,0.0448,-0.0179,-0.0807,-0.1166,-0.1794,-0.2512,-0.2868,-0.3494,-0.4032,-0.43,-0.4835,-0.5369,-0.5547,-0.6006,-0.6471,-0.6901,-0.7221,-0.762,0.0,-0.8361,0.0,-0.8703,-0.8702,-0.877,-0.8864,-0.9648,-1.0207,-1.0381,-1.0636,-1.0727,-1.0727,-1.0809,-1.0973,-1.1277,-1.1334,-1.11,-1.0588,-1.0812,-1.0962,-1.1186,-1.1484,-1.1929,-1.2372,-1.2886,-1.3324,-1.3768,-1.4482,-1.5062,-1.5426,-1.6193,-1.6821,-1.7373,-1.8066,-1.8674,-1.9274,0.0,0.0,0.0,0.0,0.0,0.0,0.0,0.0,0.0,0.0,0.0,0.0,0.0,0.0,0.0,0.0,0.0,0.0,0.0,0.0,0.0,0.4128,0.4785,0.5366,0.5837,0.644,0.6968,0.733,0.7937,0.8525,0.9029,0.9358,0.9643,0.9799,0.9837,0.9856,0.9856,0.967,0.9606,0.9606,0.9017,0.8765,0.8571,0.0,0.0,0.0,0.7078,0.6648,0.0,0.5631,0.5482,0.5401,0.4618,0.4366,0.4112,0.3526,0.3118,0.2778,0.2333,0.1705,0.1076,0.0807,0.0,-0.0718,-0.0987,-0.1615,-0.2333,-0.2689,-0.3227,-0.3765,-0.4121,-0.448,-0.4839,-0.5282,-0.5657,-0.6054,-0.6441,-0.6969,-0.7501,-0.7925,-0.8137,-0.8371,-0.8512,-0.8343,-0.827,-0.8382,-0.9008,-0.9428,-0.9515,-0.9777,-0.9864,-0.9864,-1.012,-1.0174,-1.0156,-1.0308,-1.0237,-0.9765,-0.9916,-1.0143,-1.0368,-1.0588,-1.1037,-1.1558,-1.2003,-1.2526,-1.3119,-1.3912,-1.4561,-1.5204,-1.5912,-1.6612,-1.7235,-1.7998,-1.8607,-1.9208,0.0,0.0,0.0,0.0,0.0,0.0,0.0,0.0,0.0,0.0,-0.4652,-0.3605,0.0,0.0,0.0,0.0,0.0,0.0,0.0,0.0,0.0,0.0,0.3937,0.4542,0.5062,0.5664,0.6178,0.6599,0.7175,0.7648,0.796,0.8434,0.8719,0.8951,0.9116,0.9145,0.9145,0.8882,0.8753,0.8683,0.8042,0.7717,0.7652,0.0,0.0,0.0,0.0,0.0,0.0,0.0,0.4932,0.5004,0.454,0.4208,0.3948,0.3444,0.3118,0.2778,0.2333,0.1705,0.1076,0.0807,0.0,-0.0718,-0.0718,-0.1525,-0.2243,-0.2333,-0.296,-0.3587,-0.3676,-0.4302,-0.4748,-0.501,-0.5445,-0.5959,-0.6455,-0.6757,-0.7117,0.0,-0.7743,-0.7885,-0.8225,-0.8062,-0.7995,-0.8117,-0.8217,-0.8468,-0.8999,-0.9257,-0.9437,-0.9437,-0.9602,-0.9577,-0.925,-0.9409,-0.9354,-0.8932,-0.9079,-0.9306,-0.9549,-0.9916,-1.0293,-1.0738,-1.1335,-1.1929,-1.2526,-1.3339,-1.4065,-1.4776,-1.5559,-1.6333,-1.7047,-1.7803,-1.8472,-1.9198,0.0,0.0,0.0,0.0,0.0,0.0,0.0,-0.7523,-0.7056,-0.6592,-0.5771,-0.4865,-0.3774,-0.3067,-0.2406,0.0,0.0,0.0,0.0,0.0,0.0,0.0,0.0,0.0,0.0,0.4728,0.5167,0.5614,0.0,0.6575,0.6914,0.7305,0.7589,0.783,0.8007,0.8054,0.7937,0.7728,0.7577,0.7377,0.6859,0.6601,0.0,0.0,0.0,0.0,0.0,0.0,0.0,0.0,0.4185,0.4226,0.4151,0.3968,0.3699,0.311,0.2947,0.2777,0.1973,0.1436,0.0987,0.0448,-0.0179,-0.0718,-0.0897,-0.1512,-0.2125,-0.215,-0.2935,-0.3541,-0.358,-0.4123,-0.4567,-0.4921,-0.5233,-0.5637,-0.617,-0.6526,-0.6869,-0.7135,-0.7447,-0.7687,-0.7738,-0.7777,-0.7719,-0.7752,-0.7681,-0.7856,-0.8384,-0.8468,-0.8644,-0.8732,-0.8815,-0.8767,-0.8576,-0.8726,-0.8608,-0.832,-0.8449,-0.8703,-0.9013,-0.916,-0.9614,-1.0218,-1.0738,-1.1409,-1.2224,-1.3046,-1.3848,-1.4713,-1.563,-1.6403,-1.7176,-1.7988,-1.8731,-1.9473,0.0,0.0,0.0,0.0,0.0,0.0,0.0,-0.8185,-0.7724,-0.7273,-0.6846,-0.6155,-0.5038,-0.4121,-0.3331,0.0,0.0,0.0,0.0,0.0,0.0,0.0,0.0,0.0,0.0,0.0,0.0,0.445,0.4827,0.0,0.0,0.0,0.0,0.0,0.6542,0.6528,0.6392,0.6342,0.6098,0.0,0.0,0.5209,0.0,0.0,0.0,0.0,0.0,0.0,0.3601,0.0,0.3302,0.3214,0.337,0.3471,0.3342,0.2688,0.2593,0.2407,0.1612,0.1166,0.0718,0.0179,-0.0359,-0.0806,-0.107,-0.1671,-0.2093,-0.2296,-0.288,-0.3473,-0.3638,-0.4007,-0.4455,-0.4917,-0.5099,-0.5391,-0.5976,-0.6381,-0.67,-0.6828,-0.7244,0.0,-0.7443,-0.7495,-0.7536,-0.7383,-0.7413,-0.7591,-0.7852,-0.7944,-0.794,-0.8113,-0.8113,-0.8119,-0.8033,-0.815,-0.8053,-0.7827,-0.7922,-0.8141,-0.847,-0.8627,-0.9084,-0.9765,-1.0218,-1.1037,-1.2003,-1.282,-1.3768,-1.4776,-1.57,-1.6551,-1.7373,-1.8172,-1.8988,-1.9671,0.0,0.0,0.0,0.0,0.0,0.0,0.0,-0.8724,-0.8308,-0.7938,-0.7599,-0.7189,-0.6738,-0.5475,-0.443,0.0,0.0,0.0,0.0,0.0,0.0,0.0,0.0,0.0,0.0,0.0,0.0,0.2892,0.3171,0.0,0.0,0.0,0.0,0.0,0.0,0.4612,0.4475,0.4301,0.0,0.0,0.0,0.0,0.0,0.0,0.0,0.0,0.0,0.2279,0.2418,0.2399,0.2306,0.2352,0.2352,0.2475,0.262,0.2424,0.1967,0.1488,0.1427,0.0807,0.009,0.0,-0.0538,-0.1071,-0.1225,-0.1741,-0.2162,-0.2464,-0.3039,-0.3479,-0.3732,-0.4009,-0.4384,-0.4905,-0.5099,-0.5391,-0.5976,-0.6192,-0.641,-0.6728,0.0,0.0,-0.7346,-0.7495,-0.7536,-0.7383,-0.7227,-0.7319,-0.7852,-0.7944,-0.7944,-0.794,-0.794,-0.7857,-0.7688,-0.7669,-0.7507,-0.7194,-0.7577,-0.7721,-0.7638,-0.8394,-0.8851,-0.9155,-0.9916,-1.0812,-1.1781,-1.2599,-1.3688,-1.4974,-1.5771,-1.6621,-1.7442,-1.824,-1.8988,-1.9671,0.0,0.0,0.0,0.0,0.0,0.0,-0.9497,-0.9288,-0.8999,-0.8643,-0.8308,-0.8097,-0.8061,-0.7275,-0.6296,-0.5186,0.0,0.0,0.0,0.0,0.0,0.0,0.0,0.0,0.0,0.0,0.0445,0.1056,0.1278,0.0,0.0,0.0,0.0,0.0,0.0,0.2453,0.2308,0.2205,0.0,0.0,0.0,0.0,0.0,0.0,0.0,0.0,0.0,0.0,0.114,0.1224,0.1337,0.1459,0.1306,0.1327,0.144,0.1638,0.1508,0.1114,0.07,0.0264,-0.0088,-0.0529,-0.088,-0.1313,-0.1456,-0.2023,-0.2425,-0.2606,-0.3077,-0.3579,-0.3798,-0.4082,-0.4544,-0.4905,-0.5136,-0.5476,-0.5958,-0.6081,-0.6299,-0.6522,-0.6895,-0.7156,-0.7037,-0.7348,-0.7499,-0.7251,-0.7177,-0.7231,-0.7408,-0.7408,-0.7408,-0.7408,-0.7408,-0.7376,-0.7313,-0.7307,-0.7235,-0.7015,-0.7408,-0.7505,-0.7484,-0.8097,-0.8551,-0.9074,-0.9836,-1.0738,-1.1781,-1.2813,-1.3897,-1.5046,-1.6105,-1.7079,-1.7833,-1.8787,-1.9594,-2.0248,0.0,0.0,0.0,0.0,0.0,-0.9601,-0.9973,-0.9843,-0.9567,-0.9257,-0.9028,-0.8948,-0.9031,-0.8834,-0.8261,-0.7146,-0.6431,0.0,0.0,0.0,0.0,0.0,0.0,0.0,0.0,0.0,-0.1555,-0.0999,-0.0777,-0.05,0.0,0.0,0.0222,0.0334,0.0,0.0,0.0,0.0,0.0,0.0,0.0,0.0,0.0,0.0,0.0,0.0,0.0,0.0,0.0,0.0,0.0,0.06,0.0,0.0,0.0,0.0,0.0905,0.0587,0.0086,-0.0258,-0.0517,-0.0948,-0.1292,-0.1625,-0.1924,-0.2302,-0.269,-0.2796,-0.3253,-0.3749,-0.3923,-0.4299,-0.4683,-0.5078,-0.528,-0.5499,-0.5888,-0.5977,-0.6092,-0.6346,-0.6795,-0.7046,-0.6954,-0.7233,-0.7373,-0.7156,-0.7139,-0.7139,-0.7139,-0.7139,-0.7139,-0.7139,-0.7139,-0.7139,-0.7139,-0.7125,-0.7059,-0.6943,-0.7248,-0.7319,-0.733,-0.7872,-0.8403,-0.9074,-0.9836,-1.0812,-1.1929,-1.3098,-1.4178,-1.5259,-1.6524,-1.7491,-1.8385,-1.9264,-2.0064,-2.0764,0.0,0.0,0.0,0.0,0.0,0.0,-1.0588,-1.0312,-1.001,-0.9823,-0.9848,-0.9794,-0.9615,-1.0002,-1.0148,-0.9801,-0.8386,0.0,0.0,0.0,0.0,0.0,0.0,0.0,0.0,0.0,-0.3715,-0.3274,-0.2994,-0.2607,-0.2166,-0.2166,-0.2111,-0.1943,0.0,0.0,0.0,0.0,0.0,0.0,0.0,0.0,0.0,0.0,0.0,0.0,0.0,0.0,0.0,0.0,0.0,0.0,0.0,0.0,0.0,0.0,0.0081,-0.0327,-0.0335,-0.0757,-0.1261,-0.1261,-0.1682,-0.209,-0.2534,-0.2602,-0.2746,-0.3388,-0.3686,-0.3899,-0.4331,-0.4534,-0.4857,-0.5336,-0.5371,-0.5499,-0.5888,-0.5904,-0.6087,-0.662,-0.6736,-0.6935,-0.7214,-0.7138,-0.7143,-0.7139,-0.7139,-0.7139,-0.7139,-0.7139,-0.7139,-0.7139,-0.7139,-0.7139,-0.7139,-0.7139,-0.699,-0.6702,-0.7112,-0.7189,-0.6938,-0.7714,-0.8403,-0.9074,-0.9836,-1.1037,-1.2372,-1.331,-1.4537,-1.5903,-1.6821,-1.7852,-1.8875,-1.9407,-2.0129,-2.0955,0.0,0.0,0.0,0.0,0.0,0.0,0.0,-1.0802,-1.0582,-1.0351,-1.0371,-1.0446,-1.0655,-1.0857,-1.0981,-1.0963,-0.9811,0.0,0.0,0.0,0.0,0.0,0.0,0.0,0.0,0.0,-0.5837,-0.5404,-0.5245,-0.4965,-0.4576,-0.4474,-0.4365,-0.4249,-0.4258,-0.4288,0.0,0.0,0.0,0.0,0.0,0.0,0.0,0.0,0.0,0.0,0.0,0.0,0.0,0.0,0.0,0.0,0.0,0.0,0.0,-0.1003,-0.0784,-0.0798,-0.1062,-0.1314,-0.156,-0.1807,-0.2136,-0.245,-0.2712,-0.3015,-0.3322,-0.361,-0.3843,-0.4137,-0.4497,-0.4782,-0.5106,-0.5336,-0.5552,-0.5744,-0.5958,-0.6128,-0.6337,-0.6694,-0.696,-0.7176,-0.7356,-0.7168,-0.7139,-0.7139,-0.7139,-0.7139,-0.7139,-0.7139,-0.7139,-0.7139,-0.7139,-0.7139,-0.7139,-0.7139,-0.6993,-0.6702,-0.7116,-0.7193,-0.7099,-0.7944,-0.8632,-0.9241,-1.0363,-1.1484,-1.2599,-1.3818,-1.5029,-1.6237,-1.7354,-1.8307,-1.9243,-1.9987,-2.0764,-2.1526,0.0,0.0,0.0,0.0,0.0,0.0,0.0,-1.1255,-1.1067,-1.084,-1.0994,-1.1194,-1.1431,-1.1741,-1.1888,-1.1909,-1.125,0.0,0.0,0.0,0.0,0.0,0.0,0.0,0.0,-0.8041,-0.7776,-0.7458,-0.725,-0.7026,-0.6747,-0.6645,-0.6538,-0.6372,-0.6382,-0.6284,0.0,0.0,0.0,0.0,0.0,0.0,-0.5198,0.0,0.0,0.0,0.0,0.0,0.0,0.0,0.0,0.0,0.0,0.0,0.0,0.0,-0.176,-0.1634,-0.1752,-0.1844,-0.2004,-0.2325,-0.2647,-0.2878,-0.3149,-0.3372,-0.3682,-0.3997,-0.4153,-0.4453,-0.4826,-0.5032,-0.5276,-0.5598,-0.573,-0.5908,-0.6169,-0.6329,-0.6412,-0.6771,-0.7102,-0.7263,-0.7299,-0.7197,-0.7139,-0.7139,-0.7139,-0.7139,-0.7139,-0.7139,-0.7139,-0.7139,-0.7139,-0.7139,-0.7139,-0.7088,-0.6939,-0.6702,-0.7055,-0.7213,-0.7257,-0.8021,-0.8784,-0.962,-1.0663,-1.1774,0.0,-1.4322,-1.5525,-1.6655,-1.7833,-1.8844,-1.9704,-2.0431,-2.121,-2.1925,0.0,0.0,0.0,0.0,0.0,0.0,0.0,-1.1664,-1.1479,-1.1255,-1.1655,-1.194,-1.194,-1.255,-1.2822,-1.2569,0.0,0.0,0.0,0.0,0.0,0.0,0.0,0.0,0.0,-0.9695,-0.9488,-0.9332,-0.8999,-0.8783,-0.8685,-0.8685,-0.8521,-0.8258,-0.8252,-0.8106,-0.78,-0.7545,-0.7307,-0.7177,-0.6847,-0.6565,0.0,0.0,0.0,0.0,0.0,0.0,0.0,0.0,0.0,0.0,0.0,0.0,0.0,0.0,0.0,0.0,0.0,-0.2429,-0.2589,-0.2824,-0.2982,-0.3297,-0.3763,-0.3841,0.0,-0.4307,-0.4548,-0.4777,-0.5074,-0.529,-0.5628,-0.6042,-0.6083,-0.6169,-0.6432,-0.6438,-0.6532,-0.6795,-0.7192,-0.7312,-0.7153,-0.7139,-0.7139,-0.7139,-0.7139,-0.7139,-0.7139,-0.7139,-0.7139,-0.7139,-0.7129,-0.7126,-0.7126,-0.6993,-0.6848,-0.6685,-0.6947,-0.7186,-0.7257,-0.8097,-0.9008,-0.9997,-1.0812,-1.2063,-1.3608,-1.476,-1.5965,-1.707,-1.8327,-1.9386,-2.0172,-2.0764,-2.1486,-2.2259,0.0,0.0,0.0,0.0,0.0,0.0,0.0,0.0,0.0,0.0,-1.209,-1.2436,-1.2436,-1.2935,-1.3228,0.0,0.0,0.0,0.0,0.0,0.0,0.0,0.0,0.0,0.0,-1.1057,-1.0897,-1.0736,-1.0559,-1.0442,-1.0391,-1.0297,-1.0195,-1.0033,-0.9887,-0.9585,-0.9131,-0.8764,-0.8387,-0.8045,-0.7795,-0.7369,0.0,0.0,0.0,0.0,-0.5967,-0.555,0.0,0.0,0.0,0.0,0.0,0.0,0.0,0.0,-0.33,-0.3406,-0.3501,0.0,-0.3061,-0.3452,-0.3606,-0.3763,0.0,-0.4229,-0.4307,-0.4543,0.0,-0.5036,-0.551,-0.5698,-0.5895,-0.6228,-0.6343,-0.6435,-0.6704,-0.6975,-0.7091,-0.7068,-0.7278,-0.7312,-0.7153,-0.7139,-0.7139,-0.7139,-0.7139,-0.7139,-0.7139,-0.7139,-0.7139,-0.7139,-0.7034,-0.6976,-0.6976,-0.6946,-0.6881,-0.6774,-0.6973,-0.7261,-0.771,-0.847,-0.9306,-1.0218,-1.1484,-1.2732,-1.397,-1.5196,-1.6446,-1.7823,-1.8664,-1.9594,-2.0571,-2.1273,-2.1851,-2.242,0.0,0.0,0.0,0.0,0.0,0.0,0.0,0.0,0.0,0.0,0.0,0.0,0.0,0.0,0.0,0.0,0.0,0.0,0.0,0.0,0.0,0.0,0.0,0.0,-1.2126,-1.2076,-1.2017,-1.1868,-1.1751,-1.1781,-1.195,-1.1908,-1.1843,-1.1861,-1.1536,-1.1174,-1.0816,-1.0331,-0.9757,-0.9166,-0.876,0.0,0.0,0.0,0.0,0.0,-0.6574,-0.6213,0.0,-0.5491,-0.5027,-0.4628,0.0,0.0,0.0,0.0,-0.3958,-0.4168,-0.4293,-0.3925,-0.3608,-0.3997,-0.4073,-0.4151,-0.4616,0.0,0.0,0.0,0.0,-0.549,-0.5927,-0.602,-0.6192,-0.6502,-0.6612,-0.67,-0.6881,-0.7125,-0.7234,-0.7149,-0.7214,-0.7234,-0.7149,-0.7139,-0.7139,-0.7139,-0.7139,-0.7139,-0.7139,-0.7139,-0.7109,-0.7044,-0.7052,-0.7011,-0.6929,-0.6877,-0.6805,-0.6802,-0.7119,-0.75,-0.794,-0.878,-0.9685,-1.0663,-1.1929,-1.3171,-1.4394,-1.5613,-1.6862,-1.8104,-1.9065,-1.9987,-2.0828,-2.1537,-2.2111,-2.2604,0.0,0.0,0.0,0.0,0.0,0.0,0.0,0.0,0.0,0.0,0.0,0.0,0.0,0.0,0.0,0.0,0.0,0.0,0.0,0.0,0.0,0.0,0.0,-1.2968,-1.2968,-1.2822,-1.2774,-1.2822,-1.2783,-1.2945,-1.3292,-1.3359,-1.3423,-1.3495,-1.2931,-1.2555,-1.2351,-1.1792,-1.1058,-1.0294,-0.9736,0.0,0.0,0.0,0.0,0.0,0.0,0.0,0.0,-0.6179,-0.5804,-0.5425,-0.5096,0.0,0.0,0.0,0.0,0.0,-0.4927,-0.4678,-0.4465,-0.454,-0.454,-0.4621,-0.5029,0.0,0.0,0.0,0.0,0.0,-0.6282,-0.6344,0.0,-0.6776,-0.6881,-0.6881,-0.7054,-0.7139,-0.7139,-0.7139,-0.7139,-0.7139,-0.7139,-0.7139,-0.7139,-0.7139,-0.7139,-0.7139,-0.7139,-0.7119,-0.7051,-0.6932,-0.7133,-0.7109,-0.6946,-0.6852,-0.6867,-0.6922,-0.7324,-0.7791,-0.8255,-0.9094,-1.0067,-1.126,-1.2298,-1.3535,-1.4816,-1.6105,-1.7217,-1.824,-1.9462,-2.0324,-2.1031,-2.1675,-2.2247,-2.2751,0.0,0.0,0.0,0.0,0.0,0.0,0.0,0.0,0.0,0.0,0.0,0.0,0.0,0.0,0.0,0.0,0.0,0.0,0.0,0.0,0.0,0.0,-1.3334,-1.3122,-1.3122,-1.3122,-1.317,-1.3276,-1.3719,-1.3992,-1.4114,-1.4388,-1.4347,-1.4043,-1.3594,-1.3159,-1.2793,-1.2287,-1.1688,-1.1079,-1.0635,0.0,0.0,0.0,0.0,0.0,0.0,0.0,0.0,-0.6565,-0.6222,-0.5826,-0.576,0.0,0.0,0.0,0.0,0.0,-0.5614,-0.5735,-0.578,-0.5318,-0.5165,-0.5268,-0.5692,0.0,0.0,0.0,0.0,0.0,0.0,-0.6679,-0.677,-0.7051,-0.7054,-0.7051,-0.7139,-0.7139,-0.7139,-0.7139,-0.7139,-0.7139,-0.7139,-0.7139,-0.7139,-0.7139,-0.7139,-0.7139,-0.7139,-0.7194,-0.72,-0.7179,-0.717,-0.7108,-0.7108,-0.706,-0.7202,-0.737,-0.7646,-0.8165,-0.8927,-0.969,-1.0663,-1.1706,-1.2879,-1.4106,-1.5463,-1.6446,-1.756,-1.8741,-1.9605,-2.0388,-2.1221,-2.1937,-2.2383,-2.28,0.0,0.0,0.0,0.0,0.0,0.0,0.0,0.0,0.0,0.0,0.0,0.0,0.0,0.0,0.0,0.0,0.0,0.0,0.0,0.0,0.0,-1.4188,-1.3993,-1.3885,-1.3787,-1.4111,-1.4285,-1.4395,-1.4664,-1.5007,-1.5269,-1.5515,-1.5467,-1.5077,-1.4712,-1.4261,-1.3814,-1.3353,-1.2712,-1.1962,0.0,0.0,0.0,0.0,0.0,0.0,0.0,0.0,0.0,0.0,-0.6582,-0.6286,-0.6318,0.0,0.0,0.0,0.0,0.0,-0.6162,-0.6314,-0.6475,-0.6244,-0.6074,-0.5991,0.0,0.0,0.0,0.0,0.0,0.0,0.0,0.0,-0.7411,-0.7496,-0.7499,-0.7499,-0.7499,-0.7499,-0.7499,-0.7499,-0.7499,-0.7499,-0.7499,-0.7499,-0.7499,-0.7499,-0.7499,-0.746,-0.7371,-0.7386,-0.7352,-0.718,-0.7196,-0.7315,-0.7293,-0.7454,-0.7569,-0.7629,-0.8089,-0.8699,-0.9539,-1.0212,-1.1111,-1.2224,-1.3448,-1.4601,-1.5754,-1.7001,-1.8037,-1.9075,-1.9878,-2.0646,-2.14,-2.2173,-2.28,-2.321,0.0,0.0,0.0,0.0,0.0,0.0,0.0,0.0,0.0,0.0,0.0,0.0,0.0,0.0,0.0,0.0,0.0,0.0,0.0,0.0,-1.4222,-1.4591,-1.4668,-1.462,-1.4469,-1.4945,-1.5226,-1.5226,-1.5499,-1.585,-1.6275,-1.6423,-1.6259,-1.5914,-1.5604,-1.5177,-1.4656,-1.424,-1.3544,-1.2747,0.0,0.0,0.0,0.0,0.0,0.0,0.0,0.0,0.0,0.0,0.0,0.0,0.0,0.0,0.0,-0.6478,-0.6599,-0.6809,-0.6662,-0.6912,-0.7173,-0.7173,0.0,0.0,0.0,0.0,0.0,0.0,0.0,0.0,0.0,-0.7944,-0.7944,-0.7944,-0.7944,-0.7944,-0.7944,-0.7944,-0.7944,-0.7944,-0.7944,-0.7944,-0.7944,-0.7944,-0.7837,-0.7796,-0.7796,-0.7722,-0.7554,-0.7509,-0.7458,-0.7282,-0.7402,-0.7552,-0.7638,-0.7872,-0.8021,-0.8012,-0.8551,-0.9236,-1.0067,-1.0738,-1.1706,-1.2886,-1.3954,-1.498,-1.5983,-1.7281,-1.8231,-1.895,-1.9921,-2.0864,-2.1714,-2.242,-2.309,-2.3628,0.0,0.0,0.0,0.0,0.0,0.0,0.0,0.0,0.0,0.0,0.0,0.0,0.0,0.0,0.0,0.0,0.0,0.0,0.0,0.0,-1.4497,-1.4876,-1.5167,-1.5195,-1.4956,-1.5112,-1.5278,-1.5392,-1.6041,-1.646,-1.6765,-1.674,-1.6477,-1.5914,-1.574,-1.5313,-1.4647,-1.4309,-1.3932,-1.3408,-1.2879,0.0,0.0,0.0,0.0,0.0,0.0,0.0,0.0,0.0,0.0,0.0,0.0,0.0,-0.7134,-0.7134,-0.7287,-0.7451,-0.7451,-0.7734,-0.8025,-0.8025,-0.7544,0.0,-0.7316,-0.7472,0.0,-0.78,0.0,0.0,0.0,-0.7944,-0.7944,-0.7944,-0.7944,-0.7944,-0.7944,-0.7944,-0.7944,-0.7944,-0.7944,-0.7944,-0.7944,-0.7944,-0.7789,-0.7629,-0.7617,-0.755,-0.7307,-0.7404,-0.7468,-0.7676,-0.7754,-0.7893,-0.8025,-0.8475,-0.8627,-0.8623,-0.9089,-0.9695,-1.0513,-1.1484,-1.2439,-1.3462,-1.4466,-1.5348,-1.6206,-1.7006,-1.7728,-1.839,-1.9514,-2.0919,-2.2359,-2.2616,-2.309,-2.3628,0.0,0.0,0.0,0.0,0.0,0.0,0.0,0.0,0.0,0.0,0.0,0.0,0.0,0.0,0.0,0.0,0.0,0.0,0.0,0.0,-1.4733,-1.5034,-1.5361,-1.5593,-1.5669,-1.6116,-1.6363,-1.6417,-1.6786,-1.6915,-1.6818,-1.6818,-1.6477,-1.5914,-1.5856,-1.5498,-1.4843,-1.4597,-1.4181,-1.364,-1.3103,-1.2602,0.0,0.0,0.0,0.0,0.0,0.0,0.0,0.0,-0.7714,-0.783,-0.785,-0.7858,-0.7782,-0.7722,-0.7831,-0.7948,-0.7872,-0.8167,-0.8479,-0.8479,-0.8488,0.0,0.0,-0.8417,-0.8649,-0.8719,-0.8732,0.0,0.0,0.0,-0.856,-0.856,-0.8384,-0.83,-0.83,-0.83,-0.83,-0.83,-0.83,-0.83,-0.83,-0.8198,-0.8103,-0.8037,-0.7926,-0.7871,-0.7785,-0.7793,-0.7865,-0.7983,-0.8064,-0.825,-0.8479,-0.8861,-0.9241,-0.9609,-0.9771,-1.0368,-1.126,-1.2003,-1.2959,-1.4034,-1.4738,-1.5531,-1.6466,-1.7115,-1.7729,-1.8488,-1.995,-2.1065,-2.197,-2.2494,-2.309,-2.3628,0.0,0.0,0.0,0.0,0.0,0.0,0.0,0.0,0.0,0.0,0.0,0.0,0.0,0.0,0.0,0.0,0.0,0.0,-1.5468,-1.5108,-1.5013,-1.5277,-1.5421,-1.5737,-1.6299,-1.6623,-1.6915,-1.7011,-1.72,-1.7099,-1.6818,-1.6818,-1.6477,-1.5961,-1.5914,-1.5566,-1.5029,-1.4775,-1.4359,-1.383,-1.3338,-1.2858,0.0,0.0,0.0,0.0,0.0,0.0,0.0,0.0,-0.8154,-0.8291,-0.8226,-0.831,-0.8431,-0.8312,-0.8441,-0.8579,-0.8503,-0.8748,-0.9084,-0.9084,0.0,0.0,-0.925,-0.932,-0.9432,-0.9432,-0.9349,-0.9262,-0.9262,0.0,-0.8999,-0.8999,-0.8915,-0.8828,-0.8828,-0.8828,-0.8828,-0.8828,-0.8773,-0.8736,-0.8736,-0.8483,-0.8346,-0.8371,-0.8164,-0.8095,-0.8073,-0.8064,-0.816,-0.8259,-0.8403,-0.8627,-0.9008,-0.9316,-0.9771,-1.0368,-1.0588,-1.1111,-1.1929,-1.2666,-1.3484,-1.4308,-1.5034,-1.5655,-1.6326,-1.6924,-1.7725,-1.8692,-2.0143,-2.1117,-2.175,-2.242,-2.309,-2.3628,0.0,0.0,0.0,0.0,0.0,0.0,0.0,0.0,0.0,0.0,0.0,0.0,0.0,0.0,0.0,0.0,0.0,0.0,-1.5832,-1.5468,-1.5384,-1.5581,-1.5397,-1.5764,-1.6662,-1.6567,-1.6635,-1.7011,-1.72,-1.7099,-1.6818,-1.6818,-1.6581,-1.6114,-1.5961,-1.5624,-1.5156,-1.4834,-1.4419,-1.401,-1.3631,-1.3216,-1.2765,0.0,0.0,0.0,0.0,0.0,0.0,0.0,-0.8688,-0.8974,-0.8628,-0.874,-0.8952,-0.8835,-0.8974,-0.9206,-0.9206,-0.9556,-0.9922,0.0,0.0,0.0,-1.0395,-0.9906,-0.9602,-0.9602,-0.9432,-0.9349,-0.9349,-0.9349,-0.9349,-0.9262,-0.9262,-0.9262,-0.9257,-0.9257,-0.9257,-0.9257,-0.9073,-0.8869,-0.8869,-0.87,-0.8513,-0.8396,-0.8379,-0.8299,-0.8111,-0.8102,-0.8255,-0.8699,-0.8703,-0.9008,-0.962,-0.9846,-1.0218,-1.0812,-1.1409,-1.1929,-1.2372,-1.3317,-1.4009,-1.4385,-1.5325,-1.5678,-1.5741,-1.6397,-1.7584,-1.8999,-1.9877,-2.0864,-2.194,-2.2469,-2.309,-2.3628,0.0,0.0,0.0,0.0,0.0,0.0,0.0,0.0,0.0,0.0,0.0,0.0,0.0,0.0,0.0,0.0,0.0,0.0,-1.6293,-1.5888,-1.5572,-1.5384,-1.5493,-1.5616,-1.5858,-1.6052,-1.6479,-1.7211,-1.7278,-1.7211,-1.6965,-1.6864,-1.6648,-1.6316,-1.6029,-1.5672,-1.5303,-1.502,-1.4666,-1.43,-1.3881,-1.3519,-1.3174,0.0,0.0,0.0,0.0,0.0,0.0,0.0,0.0,0.0,-0.9509,-0.9575,-0.9664,-0.9542,-0.9716,-0.9979,-0.9979,-1.0353,0.0,-1.0738,0.0,0.0,0.0,-1.091,0.0,0.0,-1.0294,-1.0207,-1.0038,-0.9864,-0.9689,-0.9515,-0.9432,-0.9209,-0.9064,-0.9046,-0.8998,-0.8866,-0.8713,-0.8678,-0.8678,-0.8585,-0.8444,-0.8387,-0.826,-0.8236,-0.8331,-0.8475,-0.8632,-0.8865,-0.9316,-0.9614,-0.9846,-1.0438,-1.0962,-1.1409,-1.2157,-1.2599,-1.2739,-1.3314,-1.3995,-1.4763,-1.5098,-1.5492,-1.5984,-1.6722,-1.7566,-1.8414,-1.9282,-2.0325,-2.1375,-2.1916,-2.2765,-2.3628,0.0,0.0,0.0,0.0,0.0,0.0,0.0,0.0,0.0,0.0,0.0,0.0,0.0,0.0,0.0,0.0,0.0,0.0,0.0,-1.6324,-1.5944,-1.5614,-1.5579,-1.5553,-1.5519,-1.5914,-1.6317,-1.6861,-1.694,-1.6917,-1.6741,-1.6778,-1.6705,-1.6477,-1.6134,-1.5778,-1.5478,-1.5254,-1.4893,-1.4469,-1.4181,-1.3881,-1.3425,0.0,0.0,0.0,0.0,0.0,0.0,0.0,0.0,0.0,-1.0181,-1.0321,-1.0364,-1.018,-1.0381,-1.0742,-1.0742,-1.1144,0.0,-1.1558,-1.175,-1.1872,-1.1822,0.0,0.0,0.0,-1.068,-1.057,-1.0229,-1.0045,-0.9875,-0.9625,-0.9455,-0.9324,-0.9108,-0.909,-0.905,-0.885,-0.877,-0.8725,-0.8725,-0.862,-0.8498,-0.8498,-0.8471,-0.8484,-0.8637,-0.8861,-0.9089,-0.9322,-0.9695,-1.0067,-1.0368,-1.0962,-1.1428,-1.1906,-1.2494,-1.2863,-1.3097,-1.3669,-1.4239,-1.4792,-1.5173,-1.5681,-1.6266,-1.7027,-1.7634,-1.8196,-1.906,-2.0085,-2.1141,-2.1682,-2.2627,-2.3628,0.0,0.0,0.0,0.0,0.0,0.0,0.0,0.0,0.0,0.0,0.0,0.0,0.0,0.0,0.0,0.0,0.0,0.0,0.0,0.0,-1.633,-1.6076,-1.5691,-1.5555,-1.5631,-1.5962,-1.6098,-1.6098,-1.6365,-1.6406,-1.6278,-1.6586,-1.6687,-1.6564,-1.6265,-1.5951,-1.573,-1.5478,-1.5059,-1.4588,-1.4529,-1.4112,-1.3571,-1.3511,0.0,0.0,0.0,0.0,0.0,0.0,0.0,0.0,-1.0866,-1.0958,-1.1122,-1.0814,-1.108,-1.1458,-1.1485,-1.1901,-1.2345,-1.2372,-1.2457,0.0,-1.2336,-1.204,-1.1629,-1.082,0.0,-1.0471,-1.0024,-0.9989,-0.9907,-0.9668,-0.9668,-0.9572,-0.938,-0.9294,-0.9289,-0.9271,-0.9105,-0.8996,-0.8996,-0.8894,-0.878,-0.878,-0.8941,-0.9022,-0.9022,-0.9251,-0.9549,-0.9922,-0.9992,-1.0357,-1.1075,-1.1298,-1.1674,-1.2107,-1.253,-1.2927,-1.3369,-1.415,-1.452,-1.4577,-1.5517,-1.6161,-1.6684,-1.7245,-1.7744,-1.8185,-1.9001,-2.0037,-2.1186,-2.1679,-2.2577,-2.3628,0.0,0.0,0.0,0.0,0.0,0.0,0.0,0.0,0.0,0.0,0.0,0.0,0.0,0.0,0.0,0.0,0.0,0.0,0.0,0.0,-1.636,-1.6411,-1.5913,-1.5674,-1.569,-1.5579,-1.5441,-1.5348,-1.5842,-1.6111,-1.6082,-1.631,-1.6319,-1.621,-1.6321,-1.6249,-1.5999,-1.5584,-1.5352,-1.5177,-1.4706,-1.441,-1.4231,-1.3692,-1.3229,0.0,0.0,0.0,0.0,0.0,0.0,0.0,-1.192,-1.1935,-1.1809,-1.1615,-1.1703,-1.1926,-1.2176,-1.2527,0.0,0.0,-1.3205,-1.3056,-1.2969,-1.2734,-1.2314,-1.1445,-1.119,-1.0935,-1.0562,-1.0471,-1.0308,-0.9907,-0.9826,-0.9761,-0.9582,-0.9557,-0.9493,-0.9329,-0.9269,-0.9239,-0.9239,-0.9194,-0.917,-0.917,-0.9246,-0.9322,-0.9473,-0.9695,-0.9916,-1.0368,-1.0663,-1.0935,-1.1159,-1.152,-1.1874,-1.2204,-1.2689,-1.3114,-1.3493,-1.3631,-1.4247,-1.5065,-1.5624,-1.6275,-1.6955,-1.7357,-1.781,-1.8379,-1.8647,-1.9756,-2.1136,-2.1336,-2.2342,-2.3628,0.0,0.0,0.0,0.0,0.0,0.0,0.0,0.0,0.0,0.0,0.0,0.0,0.0,0.0,0.0,0.0,0.0,0.0,0.0,0.0,-1.6625,-1.668,-1.625,-1.5957,-1.5937,-1.5671,-1.548,-1.539,-1.5636,-1.5773,-1.5775,-1.5978,-1.6158,-1.6267,-1.6261,-1.6269,-1.6249,-1.5951,-1.571,-1.5352,-1.5059,-1.4765,-1.4469,-1.4112,-1.3758,-1.3355,-1.3118,0.0,0.0,0.0,0.0,0.0,0.0,0.0,-1.2666,-1.2405,-1.2476,-1.2695,-1.3025,0.0,0.0,-1.3765,0.0,-1.3621,-1.3348,-1.3078,-1.2689,-1.2222,-1.1714,-1.1219,-1.0779,-1.0601,-1.0444,-0.998,-0.9901,-0.9781,-0.9509,-0.9493,-0.9448,-0.9337,-0.9322,-0.9322,-0.9322,-0.9322,-0.9322,-0.9473,-0.9544,-0.9695,-0.9846,-1.0143,-1.0387,-1.0563,-1.0918,-1.1225,-1.1364,-1.179,-1.2121,-1.2483,-1.2953,-1.3413,-1.3864,-1.411,-1.4671,-1.5478,-1.5989,-1.6503,-1.7011,-1.7412,-1.792,-1.8422,-1.8625,-1.966,-2.1124,-2.1313,-2.2356,-2.3628,0.0,0.0,0.0,0.0,0.0,0.0,0.0,0.0,0.0,0.0,0.0,0.0,0.0,0.0,0.0,0.0,0.0,0.0,0.0,0.0,0.0,-1.6876,-1.6574,-1.6423,-1.6318,-1.61,-1.5881,-1.5804,-1.5659,0.0,0.0,0.0,-1.5953,-1.6326,-1.6181,-1.6274,-1.6373,-1.641,-1.6077,-1.5536,-1.5478,-1.5118,-1.4647,-1.4597,-1.43,-1.395,-1.395,-1.3821,-1.3683,-1.3683,0.0,0.0,0.0,0.0,-1.345,-1.326,-1.3302,-1.3515,-1.3794,0.0,-1.4266,-1.4331,-1.4346,0.0,-1.3848,-1.3411,-1.3112,-1.3112,-1.228,-1.1465,-1.1004,-1.0738,-1.0519,-1.0143,-0.9992,-0.9906,-0.9497,-0.9412,-0.9401,-0.936,-0.9355,-0.937,-0.9412,-0.9381,-0.9445,-0.9707,-0.982,-1.0021,-1.0244,-1.0609,-1.0803,-1.0802,-1.1146,-1.1427,-1.1682,-1.2094,-1.2402,-1.2726,-1.3243,-1.3774,-1.4369,-1.4911,-1.5323,-1.5788,-1.6343,-1.6797,-1.7123,-1.7534,-1.7986,-1.8476,-1.8691,-1.9715,-2.1124,-2.1437,-2.2426,-2.3688,0.0,0.0,0.0,0.0,0.0,0.0,0.0,0.0,0.0,0.0,0.0,0.0,0.0,0.0,0.0,0.0,0.0,0.0,-1.6232,0.0,0.0,-1.6718,-1.6965,-1.6989,-1.6791,-1.665,-1.6423,-1.6156,-1.6113,0.0,0.0,0.0,0.0,-1.5586,-1.6194,-1.6407,-1.6298,-1.6377,-1.6327,-1.6202,-1.5652,-1.5352,-1.5235,-1.4824,-1.4656,-1.4529,-1.4469,-1.441,-1.435,-1.435,-1.435,0.0,0.0,0.0,-1.407,-1.4061,-1.3985,-1.3926,-1.4184,0.0,-1.5095,0.0,-1.5204,-1.4982,0.0,0.0,-1.3912,0.0,-1.2847,-1.1832,-1.1639,-1.126,-1.0962,-1.0738,-1.0513,-1.0295,-1.0008,-0.9975,-0.9902,-0.969,-0.9662,-0.9745,-0.9958,-0.9785,-0.9751,-1.0036,-0.9993,-1.0084,-1.0295,-1.0639,-1.0969,-1.1276,-1.1614,-1.1878,-1.1971,-1.2297,-1.2582,-1.2808,-1.3666,-1.4363,-1.4911,-1.5381,-1.572,-1.5874,-1.64,-1.6909,-1.7468,-1.7656,-1.803,-1.8572,-1.8744,-1.9715,-2.1124,-2.163,-2.2553,-2.3688,0.0,0.0,0.0,0.0,0.0,0.0,0.0,0.0,0.0,0.0,0.0,0.0,0.0,0.0,0.0,-1.6452,-1.6163,-1.6053,-1.6247,-1.6369,-1.6486,-1.6541,-1.6873,-1.6997,-1.6756,-1.6988,-1.6947,-1.6577,0.0,0.0,0.0,-1.602,-1.5916,0.0,0.0,0.0,0.0,-1.6493,-1.6406,-1.6374,-1.6077,-1.5778,-1.5546,-1.5186,-1.5069,-1.4961,-1.4902,-1.4902,-1.4902,-1.501,-1.5001,-1.5001,-1.5001,0.0,0.0,0.0,-1.4775,-1.468,-1.486,-1.5195,-1.5521,0.0,-1.5273,-1.507,-1.4917,-1.4449,-1.4037,-1.4037,-1.3277,-1.2424,-1.2168,-1.1559,-1.1022,-1.0814,-1.0593,-1.0414,-1.0095,-1.0007,-0.9967,-0.9718,-0.9776,-0.9886,-1.0001,-0.9979,-1.0096,-1.0278,-1.0387,-1.0528,-1.0742,-1.1149,-1.1411,-1.145,-1.1976,-1.2217,-1.2153,-1.2594,-1.3075,-1.3588,-1.4121,-1.4656,-1.5245,-1.5652,-1.5951,-1.6192,-1.6581,-1.7032,-1.7523,-1.7755,-1.8127,-1.8649,-1.9258,-2.0134,-2.1218,-2.2027,-2.2936,-2.3878,0.0,0.0,0.0,0.0,0.0,0.0,0.0,0.0,0.0,0.0,0.0,0.0,0.0,0.0,0.0,0.0,-1.6452,-1.6266,-1.6216,-1.6174,-1.6188,-1.6347,-1.6733,-1.691,-1.6767,-1.7156,-1.7288,0.0,0.0,0.0,-1.6723,-1.6491,-1.6352,0.0,-1.5939,-1.6033,0.0,0.0,0.0,0.0,-1.6389,-1.6202,-1.5846,-1.5604,-1.5488,-1.5391,-1.5439,-1.5439,-1.5439,-1.5594,-1.5642,-1.5642,-1.5642,-1.5642,0.0,0.0,0.0,0.0,0.0,0.0,-1.586,-1.5716,-1.5551,-1.5357,0.0,0.0,-1.4362,-1.4304,-1.3711,-1.3138,-1.277,-1.193,-1.1286,-1.108,-1.0873,-1.0573,-1.0236,-1.0155,-1.0063,-0.9793,-0.9923,-1.0083,-1.0149,-1.0232,-1.0418,-1.0554,-1.077,-1.0933,-1.1068,-1.1671,-1.1831,-1.1661,-1.2232,-1.2562,-1.249,-1.3042,-1.3649,-1.4437,-1.4597,-1.5058,-1.5694,-1.6045,-1.6403,-1.6712,-1.6871,-1.7145,-1.759,-1.7854,-1.8236,-1.8714,-1.9607,-2.0496,-2.1287,-2.2407,-2.327,-2.4008,0.0,0.0,0.0,0.0,0.0,0.0,0.0,0.0,0.0,0.0,0.0,0.0,-1.7811,-1.7542,-1.7264,-1.6993,-1.6738,-1.6425,-1.6042,-1.6353,-1.6478,-1.6203,-1.6675,0.0,-1.716,-1.7215,-1.7349,0.0,0.0,0.0,-1.7352,-1.7002,-1.6791,-1.6658,-1.6344,-1.6043,-1.587,0.0,0.0,0.0,0.0,0.0,0.0,-1.5972,-1.5856,-1.5856,-1.6009,-1.6056,-1.6056,-1.6239,-1.6239,-1.6239,-1.6239,-1.6239,-1.6239,0.0,0.0,0.0,0.0,-1.6437,0.0,-1.6727,-1.6573,-1.6256,0.0,0.0,-1.5413,-1.5098,-1.4487,-1.3857,-1.3564,-1.2638,-1.1833,-1.1833,-1.1485,-1.1112,-1.0717,-1.0678,-1.0515,-1.0059,-1.0155,-1.0393,-1.0659,-1.0632,-1.0651,-1.085,-1.1012,-1.1108,-1.1108,-1.1737,-1.2103,-1.2088,-1.2522,-1.2821,-1.2989,-1.3769,-1.4428,-1.497,-1.5245,-1.5743,-1.6567,-1.6866,-1.7183,-1.7467,-1.7305,-1.7434,-1.7711,-1.7975,-1.8302,-1.8714,-1.9607,-2.0527,-2.1419,-2.2451,-2.3328,-2.4171,0.0,0.0,0.0,0.0,0.0,0.0,0.0,0.0,0.0,0.0,0.0,0.0,0.0,-1.7772,-1.7542,-1.7288,-1.6876,-1.6554,-1.6274,-1.6253,-1.6158,-1.5906,-1.6323,-1.6498,-1.6374,-1.6782,0.0,0.0,0.0,-1.7461,-1.7787,-1.7434,-1.7199,-1.6989,-1.6429,-1.6168,-1.622,-1.6612,0.0,0.0,0.0,0.0,0.0,0.0,-1.6353,-1.6353,-1.6524,-1.6581,-1.6581,-1.6797,-1.6965,-1.7078,-1.7078,-1.7123,-1.7224,-1.7224,0.0,0.0,0.0,0.0,0.0,-1.6719,-1.6524,-1.6277,-1.6118,-1.5749,-1.5448,-1.5326,-1.4781,-1.4257,-1.4005,-1.3064,-1.2217,-1.2032,-1.1832,-1.1468,-1.117,-1.1092,-1.0987,-1.0688,-1.08,-1.0975,-1.1078,-1.1185,-1.129,-1.146,-1.1626,-1.1809,-1.1872,-1.2367,-1.2674,-1.2674,-1.3164,-1.358,-1.3941,-1.4488,-1.4902,-1.5245,-1.5584,-1.6163,-1.6907,-1.7193,-1.7717,-1.8306,-1.8449,-1.8191,-1.7711,-1.815,-1.8663,-1.9345,-2.0317,-2.1193,-2.2071,-2.3129,-2.3813,-2.4319,0.0,0.0,0.0,0.0,0.0,0.0,0.0,0.0,0.0,0.0,0.0,0.0,0.0,0.0,-1.843,-1.7854,-1.7223,-1.6747,-1.6517,-1.6328,-1.6108,-1.5839,-1.6114,-1.6213,-1.607,-1.6502,0.0,0.0,0.0,0.0,0.0,-1.7582,-1.7411,-1.7393,-1.6833,-1.6485,0.0,0.0,0.0,-1.6967,0.0,0.0,-1.719,0.0,0.0,-1.6853,-1.7032,-1.7088,-1.7145,-1.7423,-1.7634,-1.7799,-1.7799,-1.7897,0.0,0.0,0.0,0.0,-1.7634,0.0,0.0,0.0,-1.6888,-1.6662,-1.6503,-1.6218,-1.5864,-1.5748,-1.54,-1.4982,-1.4688,-1.3974,-1.326,-1.2605,-1.2297,-1.205,-1.174,-1.1677,-1.1553,-1.1358,-1.149,-1.1622,-1.1622,-1.1872,-1.2058,-1.212,-1.2359,-1.2544,-1.2605,-1.3103,-1.3407,-1.3519,-1.3941,-1.4359,-1.4706,-1.5079,-1.5371,-1.571,-1.5941,-1.6523,-1.7322,-1.7717,-1.8202,-1.883,-1.9358,-1.9143,-1.843,-1.8823,-1.9356,-2.0061,-2.106,-2.1836,-2.2513,-2.3554,-2.4157,-2.4523,0.0,0.0,0.0,0.0,0.0,0.0,0.0,0.0,0.0,-2.0995,0.0,0.0,0.0,0.0,0.0,-1.8735,-1.7741,-1.705,-1.6785,-1.6654,-1.6456,-1.6185,-1.6098,-1.6157,-1.6388,0.0,0.0,0.0,0.0,0.0,0.0,0.0,-1.7413,-1.7787,-1.7556,-1.6973,-1.6268,0.0,-1.6717,-1.7018,0.0,-1.7209,-1.7656,0.0,0.0,0.0,-1.759,-1.7711,-1.7767,-1.8041,0.0,0.0,0.0,0.0,0.0,0.0,0.0,0.0,0.0,0.0,0.0,0.0,0.0,0.0,-1.7301,-1.7123,-1.6888,-1.6425,-1.6368,-1.614,-1.5584,-1.541,-1.4991,-1.3623,-1.3094,-1.2805,-1.2544,-1.2428,-1.2297,-1.2112,-1.2236,-1.2367,-1.2367,-1.2613,-1.2867,-1.2867,-1.3155,-1.3329,-1.3329,-1.3761,-1.4181,-1.4529,-1.4843,-1.5079,-1.5235,-1.5546,-1.5972,-1.6431,-1.6441,-1.689,-1.7744,-1.8409,-1.8819,-1.8994,-1.9973,-2.0148,-1.9807,-2.0006,-2.0344,-2.0761,-2.1703,-2.2334,-2.2783,-2.3729,-2.439,-2.4835,0.0,0.0,0.0,0.0,0.0,0.0,-1.9992,-2.0081,-2.0349,0.0,0.0,0.0,-2.0807,-2.0553,-2.0174,-1.9647,-1.9225,-1.8884,-1.8583,-1.8407,-1.8181,-1.7921,-1.7366,-1.7022,-1.6834,0.0,0.0,0.0,-1.6617,-1.7073,-1.8078,-1.7768,0.0,0.0,-1.7922,-1.7557,-1.7141,-1.6965,0.0,-1.735,-1.7459,-1.7774,0.0,0.0,0.0,0.0,0.0,-1.8344,-1.8398,-1.8667,-1.8881,-1.9146,0.0,0.0,0.0,0.0,0.0,0.0,-1.9239,0.0,0.0,0.0,0.0,0.0,-1.8061,-1.7886,-1.771,-1.7501,-1.7179,-1.6899,-1.6616,-1.6265,-1.5911,-1.54,-1.4579,-1.3941,-1.364,-1.3519,-1.3519,-1.3459,-1.3519,-1.3519,-1.3519,-1.3588,-1.3709,-1.383,-1.4052,-1.4231,-1.4291,-1.4647,-1.4942,-1.5177,-1.5468,-1.5642,-1.57,-1.6114,-1.641,-1.6524,-1.6874,-1.7348,-1.7919,-1.8718,-1.9381,-2.0045,-2.0671,-2.1121,-2.1254,-2.0711,-2.0861,-2.1458,-2.2014,-2.2807,-2.3612,-2.4195,-2.4593,-2.5005,0.0,0.0,0.0,0.0,0.0,-1.9794,-2.059,-2.0969,-2.1416,0.0,0.0,0.0,-2.1791,-2.1301,-2.0869,-2.0594,-2.0118,-1.9707,-1.9405,-1.9211,-1.9029,-1.8797,-1.8255,-1.7889,-1.7637,-1.7208,-1.712,-1.7332,-1.7146,-1.7525,-1.8396,-1.8164,-1.8258,0.0,0.0,0.0,0.0,0.0,0.0,0.0,-1.7774,0.0,0.0,-1.8518,-1.8464,0.0,0.0,0.0,-1.8987,-1.9251,-1.95,0.0,0.0,0.0,0.0,0.0,0.0,0.0,0.0,0.0,0.0,0.0,0.0,0.0,-1.8922,-1.8697,-1.8536,-1.8387,-1.8073,-1.7799,-1.7501,-1.7268,-1.6978,-1.6662,-1.614,-1.5439,-1.4756,-1.4647,-1.4597,-1.4597,-1.4597,-1.4597,-1.4597,-1.4647,-1.4697,-1.4756,-1.5001,-1.5118,-1.5294,-1.5468,-1.5642,-1.5758,-1.6046,-1.6228,-1.6285,-1.6627,-1.6853,-1.6965,-1.7256,-1.7623,-1.8081,-1.8971,-1.9755,-2.0306,-2.1233,-2.1737,-2.2013,-2.168,-2.1832,-2.2246,-2.2602,-2.3288,-2.4067,-2.4492,-2.4865,-2.5258,0.0,0.0,-1.4218,-1.4545,-1.7822,-2.0659,-2.148,-2.2169,-2.2908,0.0,-2.3616,-2.3407,-2.3144,-2.2415,-2.1843,-2.1584,-2.0764,-2.0142,-1.9816,-1.9651,-1.9483,-1.9299,-1.9015,-1.8819,-1.8668,-1.853,-1.8392,-1.8238,-1.8113,-1.8305,-1.8736,-1.855,-1.8657,-1.9031,0.0,0.0,0.0,0.0,0.0,-1.8435,-1.8037,-1.8449,0.0,0.0,-1.9093,-1.9093,-1.9408,-1.9473,-1.9512,-1.9811,-2.0067,0.0,0.0,0.0,0.0,0.0,-2.0709,0.0,0.0,0.0,0.0,0.0,-2.0003,0.0,-1.9759,-1.95,-1.9291,-1.9146,-1.8999,-1.8774,-1.8363,-1.8255,-1.8093,-1.7655,-1.76,-1.7146,-1.5948,-1.568,-1.5584,-1.5584,-1.5584,-1.5584,-1.5584,-1.5738,-1.5776,-1.5776,-1.5911,-1.6104,-1.6228,-1.6228,-1.6285,-1.641,-1.657,-1.6751,-1.6874,-1.7022,-1.7234,-1.7523,-1.7579,-1.7755,-1.8173,-1.9183,-1.9796,-2.0146,-2.1511,-2.2101,-2.2224,-2.2702,-2.2909,-2.2969,-2.3343,-2.376,-2.4229,-2.4664,-2.5147,-2.5577,0.0,0.0,-1.1735,-1.4179,-1.7822,-2.0659,-2.148,-2.2245,-2.3008,-2.3707,-2.3616,-2.3448,-2.3289,-2.3003,-2.2743,-2.2461,-2.2183,-2.1891,-2.1619,-2.1437,-2.1249,-2.1103,-2.0383,-1.9881,-1.973,-1.9099,-1.8724,-1.8529,-1.8437,-1.8609,-1.9007,-1.8925,-1.9046,-1.9317,0.0,0.0,0.0,0.0,0.0,-1.9288,-1.8647,-1.8881,-1.9695,-1.9643,-1.9656,-1.9708,-1.9978,-2.0029,-2.0131,-2.0586,-2.0785,-2.0885,0.0,0.0,0.0,-2.1215,0.0,0.0,0.0,0.0,0.0,0.0,-2.0759,0.0,-2.0459,-2.0258,-2.0118,-1.9965,-1.9759,-1.9604,-1.9488,-1.9214,-1.8963,-1.8857,-1.875,-1.8267,-1.7079,-1.6866,-1.6866,-1.6866,-1.6866,-1.6866,-1.6866,-1.6856,-1.6922,-1.6922,-1.6944,-1.6965,-1.6965,-1.6965,-1.7022,-1.7022,-1.719,-1.7357,-1.7357,-1.7479,-1.7634,-1.7799,-1.7909,-1.8084,-1.8391,-1.9051,-1.9545,-1.9941,-2.1091,-2.1668,-2.1919,-2.271,-2.3078,-2.3138,-2.3641,-2.4041,-2.4465,-2.5077,-2.5591,-2.6042,0.0,0.0,-1.0522,-1.2041,-1.7189,-2.1239,-2.1642,-2.2685,-2.3579,-2.3921,-2.4133,-2.4185,-2.4035,-2.4208,-2.4243,-2.3969,-2.3833,-2.3636,-2.3313,-2.2828,-2.2465,-2.2269,-2.1425,-2.0882,-2.0697,-2.0252,-1.9984,-1.9845,-1.9704,-1.9686,-1.9814,-1.9713,-1.9656,-1.9669,0.0,0.0,0.0,0.0,-1.9336,-1.9778,-1.9139,0.0,-2.0207,-2.0207,-2.0207,-2.0258,-2.0472,-2.0673,-2.0871,-2.1277,-2.1423,0.0,-2.1712,-2.1793,-2.1793,-2.1793,-2.1793,-2.1793,0.0,0.0,0.0,-2.1616,-2.1458,0.0,0.0,-2.0483,-2.0272,-1.9887,-1.9629,-1.9484,-1.9423,-1.9179,-1.8982,-1.8883,-1.8784,-1.8472,-1.7879,-1.7972,-1.8093,-1.8093,-1.8038,-1.7972,-1.7972,-1.7929,-1.7875,-1.7875,-1.7897,-1.7843,-1.7733,-1.7733,-1.7744,-1.7634,-1.7755,-1.7865,-1.7975,-1.8041,-1.8139,-1.8236,-1.829,-1.8464,-1.8703,-1.9266,-1.9725,-2.0049,-2.1047,-2.1506,-2.1716,-2.266,-2.3076,-2.3218,-2.3761,-2.4332,-2.4808,-2.5245,-2.5742,-2.6312,-0.0719,0.0,-1.0071,-1.0212,-1.6645,-2.1839,-2.2005,-2.3217,-2.4186,-2.4275,-2.4717,-2.4974,-2.4939,-2.5387,0.0,0.0,-2.5125,-2.4895,-2.4628,-2.3947,-2.3429,-2.3231,-2.2498,-2.1979,-2.1691,-2.1567,-2.1407,-2.1151,-2.099,-2.0794,-2.0628,-2.0475,-2.027,-2.0061,0.0,0.0,0.0,0.0,0.0,-2.0396,0.0,-2.0094,-2.0759,-2.0759,-2.0759,-2.0772,-2.1082,-2.1326,-2.1568,-2.1841,-2.1949,-2.1983,-2.2217,-2.231,0.0,0.0,0.0,0.0,0.0,-2.231,-2.231,-2.2217,-2.1946,-2.1597,0.0,0.0,0.0,-1.9665,-1.9481,-1.9333,-1.9229,-1.9093,-1.9002,-1.8865,-1.876,-1.8701,-1.8701,-1.8969,-1.9076,-1.8882,-1.8903,-1.8911,-1.8911,-1.8915,-1.8881,-1.8815,-1.8815,-1.8709,-1.8494,-1.8494,-1.8398,-1.8302,-1.8247,-1.8356,-1.8518,-1.853,-1.8572,-1.8721,-1.8721,-1.8827,-1.9117,-1.954,-1.9843,-2.0151,-2.0982,-2.1385,-2.1534,-2.2498,-2.2998,-2.3244,-2.3953,-2.4549,-2.5104,-2.5467,-2.596,-2.6563,-0.0719,-0.5776,0.0,-1.1028,-1.7054,-2.2038,-2.2737,-2.3621,-2.4408,-2.5001,-2.502,-2.5195,0.0,0.0,0.0,0.0,0.0,-2.5097,-2.4954,-2.459,-2.4357,-2.4326,-2.4041,-2.3549,-2.276,-2.265,-2.2212,-2.1355,-2.1277,-2.1151,-2.1038,-2.0827,-2.0579,0.0,-2.0135,0.0,0.0,0.0,-2.0852,0.0,-2.1396,-2.131,0.0,-2.1326,-2.1326,-2.1313,-2.1602,-2.1793,-2.1996,-2.2231,-2.2417,-2.2509,-2.2618,-2.2709,-2.2799,-2.2799,0.0,0.0,-2.2799,-2.2799,-2.2799,-2.2799,-2.2216,-2.1579,-2.1508,0.0,-2.0255,-2.0185,0.0,-1.9998,-1.9998,0.0,0.0,-1.9734,-1.9734,-1.9734,-1.9734,-1.9754,-1.9461,-1.8567,-1.8951,-1.9242,-1.9242,-1.9712,-1.9914,-1.9695,-1.9643,-1.9488,-1.9121,-1.9081,-1.9028,-1.8881,-1.8881,-1.8881,-1.8946,-1.8946,-1.8987,-1.9133,-1.9133,-1.9186,-1.9368,-1.9429,-1.9611,-1.9872,-2.0514,-2.0967,-2.1404,-2.2068,-2.2628,-2.3125,-2.4292,-2.4991,-2.5412,-2.6014,-2.6563,-2.7167,-0.0719,-0.5732,0.0,0.0,-1.7103,-2.2077,-2.2886,-2.408,-2.4957,-2.5163,-2.5958,0.0,0.0,0.0,0.0,0.0,0.0,-2.6533,-2.6295,-2.5729,-2.5367,-2.5278,-2.4698,-2.4185,-2.379,-2.3664,-2.3172,-2.2273,-2.2147,-2.1809,-2.1214,-2.1055,-2.086,-2.0628,-2.0864,0.0,-2.0948,0.0,-2.198,0.0,0.0,-2.2478,0.0,-2.1983,-2.1902,-2.1996,-2.2184,-2.231,-2.2434,-2.2723,-2.2859,-2.2904,-2.3038,-2.3127,0.0,-2.3275,0.0,0.0,0.0,-2.3304,-2.3128,-2.276,-2.2294,-2.1686,-2.0949,-2.045,-2.0026,-1.9669,0.0,0.0,0.0,0.0,0.0,0.0,-1.9302,-1.9262,-1.9262,-1.9262,-1.9267,-1.9271,-1.9442,-1.9615,-1.9877,-2.0368,-2.061,-2.0396,-2.0396,-2.0207,-1.9811,-1.9759,-1.9656,-1.9356,-1.9356,-1.9303,-1.921,-1.921,-1.9263,-1.9303,-1.9303,-1.9408,-1.9604,-1.9604,-1.9759,-2.0029,-2.0476,-2.0733,-2.099,-2.1928,-2.2479,-2.2831,-2.3914,-2.4718,-2.5388,-2.6208,-2.693,-2.7524,-0.073,0.0,0.0,0.0,-1.7423,-2.2464,-2.3492,-2.4649,-2.5507,-2.5801,-2.6877,0.0,-2.7551,-2.8012,0.0,0.0,-2.7789,-2.7612,-2.7369,-2.6788,-2.6371,-2.6202,-2.5578,-2.5094,-2.4782,-2.4639,-2.416,-2.3314,-2.3125,-2.2702,-2.2036,-2.1843,-2.1664,-2.1514,0.0,-2.1895,-2.1833,0.0,-2.2964,-2.2782,-2.3258,-2.3304,-2.3024,-2.2586,-2.2449,-2.254,-2.2692,-2.2768,-2.2889,-2.3127,-2.326,-2.3304,-2.3407,-2.3538,-2.364,0.0,0.0,0.0,-2.3426,-2.3263,-2.2981,-2.2461,-2.2028,-2.1521,-2.0578,-2.0147,-1.9806,-1.9338,-1.925,0.0,0.0,0.0,-1.9124,-1.9124,0.0,-1.9049,-1.9049,-1.9049,-1.919,-1.9559,-1.9639,-1.9952,-2.0552,-2.0908,-2.111,-2.1091,-2.1042,-2.0858,-2.0422,-2.0435,-2.022,-1.9811,-1.9811,-1.9759,-1.9629,-1.9577,-1.9577,-1.9629,-1.9577,-1.9668,-1.9914,-1.9914,-2.0067,-2.0321,-2.051,-2.066,-2.0898,-2.1722,-2.221,-2.2511,-2.3497,-2.4319,-2.5106,-2.6221,-2.7143,-2.7894,-0.0805,-0.6436,0.0,0.0,0.0,-2.3493,-2.509,-2.5384,-2.5892,-2.7356,-2.757,0.0,0.0,0.0,0.0,0.0,0.0,-2.776,-2.7701,-2.7491,-2.7289,-2.7147,-2.7066,-2.6627,-2.5768,-2.5622,-2.5154,-2.4365,-2.4097,-2.3951,-2.3901,-2.3568,-2.3363,-2.3192,-2.2976,-2.3101,-2.3499,-2.3365,-2.355,-2.3952,-2.3824,-2.3696,-2.3508,0.0,-2.2889,-2.2889,-2.3038,-2.3172,-2.3319,-2.3466,-2.3625,-2.3782,-2.3782,-2.3882,-2.3982,-2.3982,-2.3527,-2.3026,-2.3026,-2.254,-2.2055,-2.2024,-2.1409,-2.0835,-2.079,-2.022,-1.9705,-1.969,-1.969,-1.969,-1.969,-1.969,-1.969,-1.969,-1.969,0.0,0.0,-1.969,-1.9472,-1.8917,-1.9344,-2.0158,-2.1234,-2.1375,-2.1493,-2.1752,-2.1746,-2.1568,-2.0983,-2.0983,-2.0785,-2.0372,-2.0372,-2.0321,-2.0182,-2.0042,-2.0042,-2.0182,-2.0029,-2.0029,-2.0182,-2.0182,-2.0321,-2.061,-2.061,-2.0908,-2.1375,-2.1388,-2.1739,-2.2315,-2.3174,-2.3891,-2.4609,-2.5916,-2.7221,-2.8352,0.0,0.0,0.0,0.0,0.0,0.0,-2.5164,-2.6279,-2.7094,-2.7533,-2.8015,-2.8354,0.0,-2.8398,-2.8318,-2.8126,-2.8532,-2.8718,-2.8491,-2.8921,-2.9106,-2.8928,-2.8345,-2.7868,-2.7547,-2.6918,-2.619,-2.5348,-2.5156,-2.4775,-2.4195,-2.3935,-2.3769,-2.3634,0.0,-2.3967,0.0,0.0,0.0,0.0,0.0,-2.3994,-2.3894,-2.3508,-2.3377,-2.3377,-2.3523,-2.3566,-2.3668,-2.3812,-2.3925,-2.3918,-2.3508,-2.3478,-2.3533,-2.3062,-2.2825,-2.2748,-2.2748,-2.2486,-2.2156,-2.1716,-2.1314,-2.0965,-2.0559,-2.0284,-2.0096,-2.0096,-2.0096,-2.0096,-2.0096,-2.0096,-2.0096,-2.0096,-2.0096,-2.0096,0.0,-2.0096,-2.001,-1.9833,-2.0049,-2.0352,-2.0628,-2.1382,-2.183,-2.1702,-2.2098,-2.2091,-2.1568,-2.1471,-2.1229,-2.0785,-2.0623,-2.0472,-2.0321,-2.0182,-2.0182,-2.0182,-2.0131,-2.0246,-2.0398,-2.0422,-2.0586,-2.0812,-2.1033,-2.1215,-2.1423,-2.1793,-2.2137,-2.2523,-2.3151,-2.3985,-2.5046,-2.6425,-2.7441,-2.8383,-0.0974,0.0,0.0,0.0,0.0,0.0,-2.5926,-2.7017,-2.7739,-2.7966,-2.8385,-2.8612,-2.8406,-2.838,-2.8425,-2.8546,-2.9016,-2.9337,-2.9435,-2.9898,-3.0085,-2.9907,-2.9371,-2.8891,-2.8518,-2.7917,-2.7169,-2.6304,-2.616,-2.5776,-2.5159,-2.4963,-2.4762,-2.4659,0.0,-2.4887,-2.4719,-2.501,-2.4966,0.0,0.0,-2.4328,0.0,-2.4021,-2.3867,-2.3739,-2.3867,-2.3925,-2.4009,-2.4151,-2.4066,-2.3856,-2.34,-2.3211,-2.3049,-2.2592,-2.2372,-2.2238,-2.2238,-2.1999,-2.1616,-2.1186,-2.1007,-2.0864,-2.0466,-2.0357,-2.0357,-2.0357,-2.0357,-2.0357,-2.0357,-2.0357,-2.0357,-2.0357,-2.0357,-2.0357,0.0,-2.0357,-2.0357,-2.0357,-2.0354,-2.0385,-2.048,-2.1395,-2.1968,-2.1874,-2.2422,-2.2586,-2.2137,-2.1902,-2.1616,-2.1229,-2.1019,-2.0822,-2.0636,-2.0422,-2.0385,-2.0448,-2.0347,-2.0398,-2.0625,-2.0699,-2.0799,-2.1023,-2.1291,-2.1471,-2.1664,-2.2091,-2.2463,-2.2814,-2.3304,-2.4081,-2.5087,-2.6578,-2.791,-2.9264,-0.1333,-0.808,0.0,0.0,-1.9895,0.0,0.0,-2.7643,-2.7911,-2.8603,-2.8637,-2.8536,-2.8406,-2.8327,-2.8595,-2.9333,-2.9383,-2.9674,-3.0421,-3.0437,-3.0349,-3.024,-3.0173,-2.9758,-2.885,-2.8615,-2.8117,-2.7282,-2.7105,-2.6892,-2.6725,-2.6521,-2.6347,0.0,-2.6007,0.0,-2.5616,-2.541,-2.524,-2.5107,-2.4886,-2.4726,-2.463,-2.463,-2.4385,-2.4067,-2.412,-2.4219,-2.4343,-2.441,-2.4082,-2.36,-2.3522,-2.3086,-2.2571,-2.254,-2.2072,-2.1572,-2.1572,-2.1058,-2.0527,-2.0527,-2.0527,-2.0527,-2.0527,-2.0527,-2.0527,-2.0527,-2.0527,-2.0527,-2.0527,-2.0527,-2.0527,-2.0527,-2.0527,-2.0527,-2.0527,-2.0527,-2.0527,-2.0527,-2.0289,-2.0309,-2.0825,-2.1439,-2.1959,-2.2256,-2.279,-2.2994,-2.2646,-2.237,-2.203,-2.1664,-2.1471,-2.1277,-2.1033,-2.0772,-2.0736,-2.0888,-2.0675,-2.0675,-2.0901,-2.0951,-2.1023,-2.1229,-2.1375,-2.1664,-2.2044,-2.2324,-2.2723,-2.3172,-2.3653,-2.4204,-2.4923,-2.6414,-2.8614,-3.0858,-0.1832,-0.841,-1.5959,0.0,-2.5392,-2.7132,-2.7551,-2.8021,-2.8402,-2.8601,-2.851,-2.8406,-2.8327,-2.83,-2.8595,-2.9333,-2.9875,-3.0505,-3.1227,-3.1849,-3.2104,-3.1938,-3.1426,-3.1006,-3.0715,-2.946,-2.8666,-2.838,-2.7538,-2.7117,-2.7053,0.0,0.0,0.0,0.0,-2.6134,-2.6023,-2.5824,-2.5584,-2.5301,-2.5107,-2.4989,-2.4989,-2.4926,-2.4846,-2.4726,-2.4549,-2.4508,-2.443,-2.4013,-2.3834,-2.3658,-2.2582,-2.2248,-2.2115,-2.1623,-2.1353,-2.1226,-2.1226,-2.1067,-2.094,-2.094,-2.094,-2.094,-2.094,-2.094,-2.094,-2.094,-2.094,-2.094,-2.094,-2.094,-2.094,0.0,0.0,-2.094,-2.094,-2.094,-2.094,-2.094,-2.0744,-2.0605,-2.0535,-2.1535,-2.2132,-2.2033,-2.2909,-2.3348,-2.2994,-2.2709,-2.2388,-2.2044,-2.1793,-2.1568,-2.1277,-2.1118,-2.1033,-2.0947,-2.0898,-2.0898,-2.0997,-2.1193,-2.1291,-2.1375,-2.1793,-2.2137,-2.2324,-2.2768,-2.3216,-2.3653,-2.4173,-2.5322,-2.6787,-2.775,-2.9092,-3.0666,-0.2393,-0.9328,0.0,-2.6603,0.0,-2.8662,-2.8033,-2.8272,-2.851,-2.851,-2.8406,-2.8327,-2.83,-2.8273,-2.8558,-2.9333,-3.0083,-3.082,-3.1591,-3.2392,-3.2805,-3.269,-3.2299,-3.1877,-3.1444,-3.0497,-2.9642,-2.8846,-2.8254,-2.7716,-2.7293,0.0,0.0,0.0,0.0,-2.64,-2.6277,-2.6026,-2.5791,-2.553,-2.5394,-2.5262,0.0,-2.5162,-2.5139,-2.5091,-2.4618,-2.439,-2.4328,-2.3973,-2.3512,-2.2972,-2.2179,-2.1802,-2.1599,-2.1231,-2.1103,-2.1135,-2.1135,-2.1167,-2.1183,-2.1183,-2.1183,-2.1183,-2.1183,-2.1151,-2.1135,-2.1135,-2.1103,-2.1119,-2.1119,-2.1119,-2.1119,0.0,0.0,-2.1119,-2.1119,-2.1119,-2.1119,-2.1119,-2.099,-2.0859,-2.0726,-2.1771,-2.2339,-2.2103,-2.3152,-2.3681,-2.3348,-2.3068,-2.2799,-2.2434,-2.217,-2.1949,-2.1664,-2.1471,-2.1326,-2.1277,-2.118,-2.1229,-2.1277,-2.1471,-2.1616,-2.1712,-2.2184,-2.2463,-2.2678,-2.3172,-2.3653,-2.4147,-2.495,-2.6118,-2.7402,-2.8322,-2.9506,-3.0907,-0.374,-1.0844,0.0,0.0,0.0,-3.0024,-2.8792,-2.8542,-2.8515,-2.8515,-2.8371,-2.8273,-2.8273,-2.8209,-2.8503,-2.9305,-2.9964,-3.0713,-3.1635,-3.2349,-3.2745,-3.2805,-3.2805,-3.2471,-3.1732,-3.1576,-3.0769,-2.9251,-2.9013,-2.8452,-2.7573,0.0,0.0,0.0,0.0,0.0,0.0,-2.6154,-2.5937,-2.5754,-2.5659,-2.56,-2.5454,-2.5394,-2.5307,-2.5147,-2.4521,-2.4201,-2.4111,-2.3978,-2.3135,-2.2128,-2.2048,-2.16,-2.1183,-2.1183,-2.1231,-2.1247,-2.1247,-2.1294,-2.1356,-2.1356,-2.1356,-2.1356,-2.1356,-2.1294,-2.1247,-2.1247,-2.1231,-2.1183,-2.1183,-2.1183,-2.1183,0.0,-2.1135,-2.1135,-2.1135,-2.1135,-2.1135,-2.1135,-2.1103,0.0,-2.1103,-2.2039,-2.2565,-2.2399,-2.3452,-2.3979,-2.3681,-2.348,-2.3172,-2.2799,-2.2586,-2.2324,-2.2091,-2.1841,-2.1712,-2.1664,-2.1568,-2.1568,-2.1664,-2.1841,-2.1983,-2.2123,-2.2555,-2.2814,-2.3068,-2.3681,-2.423,-2.4768,-2.5819,-2.6657,-2.7425,-2.8513,-2.9845,-3.1331,-0.8521,0.0,0.0,0.0,0.0,-2.9994,-2.9761,-2.9343,-2.9069,-2.9069,-2.8472,-2.8053,-2.8053,-2.8042,-2.8344,-2.9095,-2.9378,-3.0101,-3.1542,-3.18,-3.2206,-3.2848,-3.2934,-3.2894,-3.2719,-3.2045,-3.1502,-3.1217,-2.9708,-2.8868,-2.8623,-2.7823,0.0,0.0,0.0,0.0,-2.6624,-2.6418,0.0,-2.6096,-2.599,-2.5881,-2.5807,-2.5824,-2.5411,-2.4857,-2.4743,-2.4479,-2.401,-2.2844,-2.242,-2.2247,-2.1617,-2.1454,-2.1497,-2.1497,-2.1528,-2.1528,-2.1528,-2.1528,-2.1559,-2.1559,-2.1559,-2.1559,-2.1559,-2.1528,-2.1528,-2.1528,-2.1528,-2.1497,-2.1497,-2.1497,-2.1497,-2.1497,-2.1419,-2.134,-2.134,-2.1309,-2.1262,-2.1262,-2.1215,-2.1183,-2.1183,-2.2194,-2.2839,-2.2818,-2.3708,-2.4204,-2.4036,-2.3724,-2.3436,-2.3216,-2.2949,-2.2723,-2.2509,-2.2324,-2.2184,-2.2091,-2.2091,-2.2091,-2.2091,-2.237,-2.2495,-2.2603,-2.3054,-2.345,-2.3794,-2.4323,-2.5128,-2.6106,-2.6757,-2.7289,-2.7848,-2.9076,-3.027,-3.1419,-1.0061,0.0,0.0,0.0,-2.7962,-3.1095,-3.1095,-3.0182,-2.9413,-2.91,-2.8359,-2.7836,-2.7836,-2.7864,-2.8035,-2.8376,-2.8888,-2.9704,-3.0889,-3.1382,-3.2032,-3.2912,-3.2979,-3.3011,-3.3042,-3.2616,-3.224,-3.1816,-3.0848,-2.9946,-2.9094,-2.8539,-2.7984,-2.7461,0.0,-2.7038,0.0,0.0,-2.6504,-2.6399,-2.6241,-2.6134,-2.6059,-2.599,-2.5458,-2.4751,-2.4374,-2.3844,-2.3284,-2.2588,-2.22,-2.1906,-2.1564,-2.1511,-2.162,-2.1634,-2.1664,-2.1724,-2.1738,-2.1797,-2.1827,-2.1827,-2.1827,-2.1827,-2.1827,-2.1797,-2.1738,-2.1724,-2.1664,-2.1634,-2.162,-2.1589,-2.1589,-2.1589,-2.1542,-2.1495,-2.1495,-2.1481,-2.1419,-2.1371,-2.1309,-2.1439,-2.1795,-2.2609,-2.3056,-2.2927,-2.3998,-2.4564,-2.4317,-2.4094,-2.3867,-2.3668,-2.3363,-2.3127,-2.2963,-2.2768,-2.2632,-2.2586,-2.2586,-2.2586,-2.2678,-2.2889,-2.3113,-2.329,-2.3736,-2.4116,-2.4486,-2.5281,-2.6073,-2.6905,-2.7396,-2.7794,-2.8246,-2.9025,-3.0277,-3.1713,0.0,-1.4071,0.0,0.0,-2.6892,-3.0725,-3.0725,-3.0124,-2.9534,-2.9134,-2.8237,-2.7642,-2.7642,-2.7701,-2.773,-2.776,-2.8382,-2.9189,-3.0059,-3.0889,-3.1751,-3.2693,-3.2921,-3.3073,-3.3135,-3.3135,-3.2847,-3.2194,-3.1888,-3.1112,-2.9828,-2.9485,-2.8853,-2.7947,0.0,-2.7198,-2.704,-2.6875,-2.6742,-2.664,-2.6469,-2.6347,-2.6258,-2.5969,-2.537,-2.4576,-2.3835,-2.3095,-2.247,-2.247,-2.2108,-2.1634,-2.1634,-2.1664,-2.1694,-2.1738,-2.1797,-2.184,-2.1928,-2.1969,-2.1998,-2.1998,-2.1998,-2.1998,-2.1998,-2.1969,-2.1928,-2.184,-2.1797,-2.1738,-2.1694,-2.1664,-2.1664,-2.1664,-2.1634,-2.162,-2.162,-2.162,-2.1608,-2.1676,-2.1693,-2.1955,-2.2622,-2.3252,-2.3497,-2.3242,-2.4347,-2.4886,-2.462,-2.4441,-2.4261,-2.4109,-2.3769,-2.3553,-2.3451,-2.3172,-2.3068,-2.3068,-2.3068,-2.3157,-2.3304,-2.3537,-2.3752,-2.4078,-2.4471,-2.4934,-2.5395,-2.6265,-2.6985,-2.753,-2.7908,-2.8298,-2.8676,-2.8929,-3.0179,-3.1787,0.0,0.0,0.0,-1.4247,-2.0934,-2.6224,-2.6224,-2.7947,-2.9369,-2.9673,-2.8432,-2.7526,-2.7526,-2.7509,-2.7557,-2.76,-2.7742,-2.8229,-2.9172,-3.0024,-3.0927,-3.1864,-3.266,-3.3135,-3.3262,-3.3262,-3.3226,-3.3154,-3.2355,-3.1864,-3.1631,-3.0826,-2.9869,-2.8754,-2.7932,-2.7417,-2.7181,-2.7149,-2.7038,-2.6859,-2.6708,-2.6607,-2.647,-2.5681,-2.4913,-2.4161,-2.3427,-2.2675,-2.207,-2.207,-2.1949,-2.1797,-2.1797,-2.1869,-2.1969,-2.1969,-2.1969,-2.1998,-2.1998,-2.1998,-2.1998,-2.1998,-2.1998,-2.1998,-2.1998,-2.1998,-2.1998,-2.1998,-2.1969,-2.1969,-2.1969,-2.1911,-2.1869,-2.1869,-2.1768,-2.1694,-2.1694,-2.1634,-2.1835,-2.249,-2.2572,-2.2867,-2.3604,-2.4204,-2.4489,-2.4366,-2.4814,-2.5068,-2.4966,-2.4726,-2.4564,-2.4457,-2.4109,-2.394,-2.394,-2.3653,-2.361,-2.3696,-2.3696,-2.3824,-2.4021,-2.4199,-2.4486,-2.4823,-2.5297,-2.6002,-2.6838,-2.7251,-2.7672,-2.8156,-2.8428,-2.8748,-2.9064,-2.9334,-3.0093,-3.113,-0.6626,-1.0164,-1.3193,-1.33,-1.8117,-2.2004,-2.2004,-2.407,-2.5724,-2.5886,-2.6647,-2.7201,-2.7201,-2.7261,-2.7324,-2.7355,-2.7539,-2.8052,-2.8976,-2.9875,-3.0808,-3.1882,-3.2673,-3.3196,-3.3422,-3.3422,-3.3452,-3.3481,-3.3096,-3.2611,-3.2083,-3.169,-3.0689,-2.916,-2.8141,-2.7642,-2.7474,-2.74,-2.7261,-2.707,-2.6973,-2.6892,-2.6657,-2.5798,-2.5007,-2.4188,-2.3371,-2.2635,-2.1998,-2.1998,-2.1969,-2.1911,-2.1911,-2.2015,-2.2118,-2.2163,-2.222,-2.2231,-2.2287,-2.2287,-2.2287,-2.2287,-2.2287,-2.2287,-2.2287,-2.226,-2.2231,-2.2192,-2.2073,-2.1998,-2.1998,-2.1969,-2.1969,-2.1969,-2.1899,-2.1976,-2.2424,-2.2429,-2.2648,-2.3342,-2.3424,-2.3671,-2.4325,-2.4601,-2.4909,-2.5297,-2.5293,-2.5262,-2.5162,-2.4989,-2.491,-2.4871,-2.463,-2.4492,-2.4492,-2.4287,-2.4287,-2.441,-2.441,-2.4542,-2.4831,-2.5051,-2.5491,-2.6108,-2.6522,-2.7046,-2.7613,-2.7929,-2.828,-2.8652,-2.8952,-2.9212,-2.9436,-2.9663,-3.0315,-3.1267,-0.6945,-0.9489,-1.1606,-1.159,-1.5008,-1.7792,-1.7852,-2.0101,-2.1814,-2.1873,-2.3971,-2.5848,-2.6901,-2.7087,-2.7166,-2.7181,-2.7386,-2.7796,-2.8581,-2.966,-3.0658,-3.1577,-3.2595,-3.3256,-3.3509,-3.352,-3.3549,-3.3605,-3.3549,-3.3201,-3.2581,-3.2043,-3.1042,-2.973,-2.8497,-2.7864,-2.776,-2.763,-2.7478,-2.7324,-2.723,-2.6982,-2.6565,-2.5703,-2.4876,-2.4069,-2.322,-2.2584,-2.2158,-2.2158,-2.2158,-2.213,-2.2101,-2.2175,-2.2304,-2.2349,-2.2422,-2.246,-2.2515,-2.2525,-2.2552,-2.2525,-2.2542,-2.2525,-2.2515,-2.246,-2.2422,-2.2366,-2.2248,-2.213,-2.213,-2.2073,-2.2044,-2.2044,-2.217,-2.2475,-2.2979,-2.3198,-2.3551,-2.4199,-2.4282,-2.4546,-2.5168,-2.5198,-2.536,-2.5885,-2.5696,-2.5508,-2.5432,-2.5339,-2.5285,-2.5262,-2.5052,-2.4974,-2.4974,-2.4895,-2.4895,-2.5091,-2.5098,-2.5297,-2.5677,-2.5986,-2.6556,-2.7278,-2.7596,-2.7984,-2.8332,-2.8585,-2.8828,-2.9135,-2.9416,-2.9608,-2.9732,-2.9921,-3.0396,-3.1138,-0.7184,-0.7395,-0.7604,-0.7604,-1.0834,-1.3558,-1.3732,-1.6323,-1.832,-1.8534,-2.0498,-2.3164,-2.6613,-2.7007,-2.7072,-2.7181,-2.7213,-2.7338,-2.7672,-2.9299,-3.0366,-3.07,-3.2355,-3.3352,-3.3509,-3.3549,-3.3605,-3.3605,-3.3605,-3.3587,-3.355,-3.1828,-3.0892,-3.0592,-2.8933,-2.8126,-2.7968,-2.7789,-2.7659,-2.7587,-2.7434,-2.6891,-2.601,-2.5227,-2.4367,-2.3522,-2.276,-2.2487,-2.2487,-2.2487,-2.2487,-2.2487,-2.2338,-2.2377,-2.2487,-2.2487,-2.2542,-2.2605,-2.2605,-2.2632,-2.2685,-2.2623,-2.2605,-2.2579,-2.2515,-2.2515,-2.2515,-2.2515,-2.2432,-2.2394,-2.2394,-2.2282,-2.2214,-2.2214,-2.2761,-2.317,-2.3217,-2.3821,-2.451,-2.5113,-2.5163,-2.5445,-2.612,-2.6063,-2.5974,-2.601,-2.5917,-2.5844,-2.5701,-2.5701,-2.5663,-2.5605,-2.5454,-2.5378,-2.5378,-2.5384,-2.5497,-2.5701,-2.5819,-2.609,-2.6488,-2.7172,-2.7694,-2.8085,-2.8449,-2.8795,-2.9086,-2.924,-2.94,-2.9605,-2.9748,-2.9883,-3.0007,-3.0157,-3.0199,-3.0469,-0.7407,-0.7484,-0.7484,-0.7484,-0.8647,-0.9551,-0.9503,-1.2274,-1.437,-1.4288,-1.6803,-1.983,-2.3094,-2.5464,-2.6808,-2.6858,-2.7053,-2.7307,-2.7539,-2.8697,-2.9798,-3.0664,-3.1833,-3.2803,-3.3559,-3.3671,-3.3753,-3.3788,-3.3842,-3.3834,-3.3689,-3.1919,-3.1012,-3.0848,-2.9161,-2.83,-2.8126,-2.8053,-2.7922,-2.7695,-2.707,-2.6679,-2.6225,-2.478,-2.404,-2.3684,-2.2934,-2.2632,-2.2632,-2.2632,-2.2659,-2.2685,-2.2659,-2.2632,-2.2632,-2.2685,-2.2764,-2.2816,-2.2816,-2.2816,-2.2842,-2.2816,-2.2816,-2.2816,-2.279,-2.2712,-2.2605,-2.2515,-2.2487,-2.246,-2.246,-2.2394,-2.2338,-2.2338,-2.2861,-2.3446,-2.3967,-2.4624,-2.533,-2.5999,-2.6082,-2.6132,-2.626,-2.6225,-2.6206,-2.6151,-2.6132,-2.6023,-2.5844,-2.5844,-2.5844,-2.5864,-2.5828,-2.5864,-2.5994,-2.6049,-2.6227,-2.647,-2.659,-2.6982,-2.7596,-2.8103,-2.8492,-2.8805,-2.903,-2.928,-2.9514,-2.9641,-2.9794,-2.9954,-3.0047,-3.0136,-3.0222,-3.0304,-3.0348,-3.059,-0.7484,-0.7484,-0.7484,-0.7484,-0.7642,-0.7736,-0.7616,-0.9446,-1.0731,-1.0614,-1.3314,-1.5988,-1.7933,-2.2125,-2.5304,-2.6572,-2.694,-2.7198,-2.7434,-2.8408,-2.9473,-3.0617,-3.1611,-3.2607,-3.3587,-3.3753,-3.386,-3.3895,-3.3972,-3.3799,-3.3356,-3.1887,-3.1008,-3.0602,-2.9174,-2.8458,-2.8345,-2.8264,-2.7958,-2.7455,-2.6929,-2.63,-2.5602,-2.447,-2.3832,-2.3493,-2.2946,-2.279,-2.279,-2.279,-2.2816,-2.2842,-2.2893,-2.2876,-2.285,-2.2868,-2.2902,-2.2995,-2.302,-2.3045,-2.3045,-2.2995,-2.2995,-2.297,-2.2919,-2.2842,-2.2738,-2.2632,-2.2579,-2.2569,-2.2542,-2.2487,-2.2432,-2.2432,-2.3214,-2.3955,-2.4397,-2.5292,-2.6051,-2.6504,-2.6554,-2.6468,-2.6382,-2.6382,-2.6364,-2.631,-2.631,-2.6239,-2.6115,-2.6063,-2.6099,-2.617,-2.6206,-2.6312,-2.6469,-2.659,-2.6774,-2.7019,-2.7404,-2.7865,-2.8504,-2.8847,-2.9135,-2.9418,-2.9588,-2.9746,-2.9943,-3.0052,-3.015,-3.0253,-3.0309,-3.0344,-3.0378,-3.0411,-3.0441,-3.0681,-0.7484,-0.7484,-0.7484,-0.7484,-0.7646,-0.7808,-0.7816,-0.7776,-0.7794,-0.7787,-1.0128,-1.1861,-1.2101,-1.7386,-2.2399,-2.6014,-2.667,-2.704,-2.7373,-2.8264,-2.9342,-3.054,-3.1567,-3.2591,-3.3587,-3.3788,-3.3921,-3.3921,-3.3943,-3.3511,-3.2705,-3.1765,-3.0882,-3.0051,-2.9075,-2.8612,-2.8587,-2.8406,-2.7808,-2.7022,-2.6881,-2.5852,-2.4406,-2.4259,-2.3726,-2.3003,-2.2944,-2.2944,-2.2944,-2.2944,-2.2944,-2.2944,-2.3052,-2.3102,-2.3095,-2.3045,-2.307,-2.3144,-2.3193,-2.3241,-2.3265,-2.3144,-2.3119,-2.3052,-2.2927,-2.2919,-2.2893,-2.2816,-2.2764,-2.2685,-2.2649,-2.2569,-2.2515,-2.2515,-2.3692,-2.4601,-2.4601,-2.581,-2.6674,-2.6606,-2.6606,-2.6572,-2.652,-2.6485,-2.6485,-2.6485,-2.6485,-2.6485,-2.6485,-2.6382,-2.6382,-2.652,-2.6572,-2.6657,-2.6758,-2.7006,-2.7258,-2.75,-2.8201,-2.8748,-2.9129,-2.9399,-2.9678,-2.9934,-3.006,-3.0188,-3.0328,-3.039,-3.0447,-3.0501,-3.0501,-3.0501,-3.0501,-3.0501,-3.0511,-3.0752,-0.7484,-0.7484,-0.7484,-0.7484,-0.7795,-0.7912,-0.7645,-0.7833,-0.7947,-0.7584,-0.8156,-0.9507,-1.184,-1.3467,-1.6617,-2.2312,-2.5209,-2.6875,-2.7166,-2.7622,-2.8657,-3.035,-3.098,-3.2019,-3.3634,-3.3868,-3.4049,-3.4197,-3.356,-3.3128,-3.29,-3.1357,-3.0465,-3.0149,-2.9295,-2.881,-2.8687,-2.8587,-2.8016,-2.7173,-2.6437,-2.5533,-2.4551,-2.3874,-2.3448,-2.3217,-2.3217,-2.3217,-2.3217,-2.3217,-2.3217,-2.3217,-2.3241,-2.3265,-2.3241,-2.3241,-2.3241,-2.3265,-2.3265,-2.3289,-2.3289,-2.3265,-2.3217,-2.3151,-2.307,-2.3003,-2.297,-2.2893,-2.2816,-2.2764,-2.2764,-2.2659,-2.2596,-2.2596,-2.3745,-2.4658,-2.4601,-2.5892,-2.6792,-2.6674,-2.6674,-2.6657,-2.6572,-2.6589,-2.6554,-2.6485,-2.6485,-2.652,-2.6572,-2.6537,-2.6555,-2.664,-2.6674,-2.6875,-2.723,-2.7386,-2.7789,-2.8404,-2.8832,-2.9193,-2.9494,-2.9765,-2.9973,-3.015,-3.0273,-3.0386,-3.0452,-3.0521,-3.0549,-3.0585,-3.0585,-3.0585,-3.0574,-3.0574,-3.0585,-3.0808,-0.7484,-0.7484,-0.7561,-0.7642,-0.7872,-0.797,-0.7651,-0.7872,-0.7929,-0.7579,-0.7526,-0.8247,-0.9926,-1.1353,-1.3644,-1.7136,-2.1776,-2.5212,-2.6948,-2.7373,-2.8263,-2.9822,-3.0232,-3.1111,-3.2582,-3.2834,-3.3054,-3.3258,-3.2765,-3.2356,-3.1924,-3.0939,-3.0239,-2.9765,-2.9246,-2.8929,-2.8815,-2.8337,-2.7647,-2.6765,-2.5852,-2.5008,-2.4221,-2.37,-2.3471,-2.343,-2.3383,-2.3383,-2.3383,-2.3383,-2.3383,-2.3401,-2.3424,-2.3448,-2.343,-2.3476,-2.343,-2.3407,-2.3476,-2.3476,-2.3476,-2.3407,-2.3313,-2.3241,-2.3168,-2.3119,-2.3052,-2.297,-2.2919,-2.285,-2.2816,-2.2738,-2.2806,-2.3106,-2.407,-2.4885,-2.5214,-2.6209,-2.6909,-2.6859,-2.6825,-2.6759,-2.6742,-2.6674,-2.6623,-2.6589,-2.6589,-2.6589,-2.6657,-2.6657,-2.6691,-2.6792,-2.6842,-2.7053,-2.7434,-2.7836,-2.8291,-2.8839,-2.9169,-2.9475,-2.9734,-3.0011,-3.0215,-3.0352,-3.0439,-3.054,-3.0585,-3.0621,-3.0657,-3.0661,-3.0661,-3.0661,-3.0661,-3.0661,-3.0886,-3.1374,-0.7484,-0.7484,-0.7561,-0.7804,-0.7953,-0.8045,-0.7865,-0.7938,-0.7929,-0.7579,-0.7661,-0.7731,-0.7731,-1.012,-1.1905,-1.2454,-1.7802,-2.2626,-2.6058,-2.7056,-2.8027,-2.9236,-2.9575,-3.0231,-3.1283,-3.1597,-3.1823,-3.2016,-3.1885,-3.1456,-3.0727,-3.053,-3.002,-2.9293,-2.9115,-2.8966,-2.8796,-2.799,-2.7082,-2.6085,-2.5346,-2.4538,-2.3786,-2.3696,-2.3629,-2.3607,-2.3562,-2.3539,-2.3539,-2.3539,-2.3539,-2.3539,-2.3607,-2.3607,-2.3629,-2.37,-2.3634,-2.3567,-2.3678,-2.37,-2.3656,-2.3562,-2.3407,-2.3313,-2.3241,-2.3217,-2.3168,-2.3052,-2.3003,-2.297,-2.2868,-2.2903,-2.3154,-2.3712,-2.4534,-2.5313,-2.5901,-2.6593,-2.7007,-2.7007,-2.6959,-2.6926,-2.6926,-2.6792,-2.6742,-2.6742,-2.6691,-2.6691,-2.6691,-2.6691,-2.6775,-2.6926,-2.7055,-2.7261,-2.7587,-2.8201,-2.8694,-2.9026,-2.9338,-2.9644,-2.9921,-3.018,-3.0367,-3.0509,-3.0559,-3.0643,-3.07,-3.07,-3.0695,-3.069,-3.069,-3.069,-3.069,-3.069,-3.1227,-3.2047,-0.7484,-0.7484,-0.7561,-0.7804,-0.7953,-0.8045,-0.7865,-0.7938,-0.8003,-0.772,-0.7666,-0.7797,-0.7922,-0.8253,-0.9514,-1.2161,-1.5743,-1.9303,-2.2724,-2.5793,-2.801,-2.9077,-2.9557,-3.0283,-3.1341,-3.1755,-3.2016,-3.2083,-3.1349,-3.0957,-3.0845,-3.0035,-2.9544,-2.9293,-2.9251,-2.8836,-2.8138,-2.7945,-2.6964,-2.5507,-2.5335,-2.4704,-2.3876,-2.3855,-2.381,-2.3761,-2.3761,-2.3718,-2.3656,-2.3656,-2.3656,-2.3678,-2.3678,-2.3721,-2.3765,-2.3771,-2.3813,-2.3831,-2.3721,-2.37,-2.3678,-2.3607,-2.3517,-2.3448,-2.3383,-2.3289,-2.3193,-2.3168,-2.3095,-2.2977,-2.2952,-2.3371,-2.3759,-2.388,-2.5052,-2.5911,-2.597,-2.6639,-2.7038,-2.7007,-2.6975,-2.6975,-2.6975,-2.6909,-2.6876,-2.6876,-2.6742,-2.6691,-2.6691,-2.6691,-2.6775,-2.6992,-2.7055,-2.7369,-2.8014,-2.838,-2.8749,-2.9082,-2.9378,-2.968,-2.9988,-3.0213,-3.0367,-3.0509,-3.0559,-3.064,-3.07,-3.0703,-3.071,-3.069,-3.069,-3.069,-3.069,-3.069,-3.1254,-3.2101,-0.7484,-0.7565,-0.7723,-0.7953,-0.8102,-0.8232,-0.8157,-0.816,-0.8115,-0.787,-0.7926,-0.7982,-0.8112,-0.8047,-0.8533,-0.9894,-1.2785,-1.5967,-1.9381,-2.4537,-2.7757,-2.8428,-2.891,-2.9552,-3.0357,-3.063,-3.079,-3.0847,-3.0471,-3.0283,-3.0302,-2.9833,-2.9569,-2.9512,-2.9394,-2.8866,-2.8024,-2.7518,-2.6591,-2.5407,-2.4907,-2.4463,-2.4074,-2.4016,-2.3974,-2.3912,-2.3912,-2.3891,-2.3852,-2.3852,-2.3852,-2.3852,-2.3852,-2.3873,-2.3912,-2.3896,-2.3896,-2.3876,-2.3813,-2.3786,-2.3761,-2.3718,-2.3629,-2.3539,-2.3471,-2.3383,-2.3289,-2.3217,-2.3144,-2.3217,-2.3587,-2.3859,-2.4329,-2.5136,-2.5808,-2.6372,-2.6726,-2.704,-2.7233,-2.7186,-2.7105,-2.7055,-2.7055,-2.7007,-2.6942,-2.6942,-2.6876,-2.6792,-2.6792,-2.6742,-2.6775,-2.6942,-2.7215,-2.76,-2.8042,-2.838,-2.8694,-2.9007,-2.9334,-2.9645,-2.991,-3.0142,-3.0318,-3.0455,-3.052,-3.0586,-3.0649,-3.0653,-3.0668,-3.0695,-3.0695,-3.0703,-3.0749,-3.1234,-3.1953,-3.2827,-0.7561,-0.7723,-0.7876,-0.8102,-0.8327,-0.841,-0.8429,-0.8409,-0.8348,-0.8147,-0.823,-0.8299,-0.8242,-0.8236,-0.8172,-0.7982,-1.0631,-1.3765,-1.717,-2.2949,-2.6746,-2.7872,-2.8456,-2.8984,-2.9492,-2.9626,-2.9737,-2.9823,-2.9823,-2.9823,-2.9806,-2.9774,-2.9719,-2.9682,-2.9344,-2.8687,-2.781,-2.6953,-2.6061,-2.5208,-2.4543,-2.4247,-2.4228,-2.4171,-2.4095,-2.4056,-2.4056,-2.4056,-2.4054,-2.4054,-2.4054,-2.4054,-2.4054,-2.4036,-2.4056,-2.4056,-2.4016,-2.3958,-2.3917,-2.3873,-2.3828,-2.3807,-2.3721,-2.3629,-2.3539,-2.3471,-2.3383,-2.3265,-2.3217,-2.3397,-2.4112,-2.4366,-2.489,-2.6214,-2.6551,-2.6852,-2.7352,-2.7438,-2.7407,-2.7345,-2.7247,-2.7166,-2.7166,-2.7087,-2.704,-2.704,-2.6942,-2.6926,-2.6893,-2.6792,-2.6792,-2.6893,-2.731,-2.7677,-2.794,-2.8255,-2.8569,-2.8858,-2.9206,-2.9512,-2.9736,-2.9988,-3.018,-3.033,-3.0417,-3.0501,-3.0577,-3.0585,-3.0621,-3.0684,-3.0673,-3.068,-3.0773,-3.1666,-3.254,-3.3394,-0.7723,-0.7804,-0.7953,-0.8327,-0.8403,-0.8486,-0.8651,-0.8675,-0.8662,-0.8586,-0.8581,-0.8559,-0.8473,-0.8306,-0.8172,-0.7982,-1.0631,-1.3765,-1.717,-2.077,-2.4331,-2.7834,-2.8731,-2.9246,-2.9492,-2.9626,-2.977,-2.9888,-2.9888,-2.9888,-2.9888,-2.9893,-2.9825,-2.9662,-2.8838,-2.7977,-2.7118,-2.6242,-2.537,-2.4557,-2.4501,-2.4393,-2.4284,-2.4303,-2.4247,-2.4192,-2.4192,-2.419,-2.419,-2.419,-2.419,-2.419,-2.419,-2.419,-2.4192,-2.4192,-2.4172,-2.4151,-2.4016,-2.3937,-2.3876,-2.3834,-2.3789,-2.3761,-2.3607,-2.3539,-2.3471,-2.3383,-2.3289,-2.3446,-2.4239,-2.4857,-2.5502,-2.6359,-2.7016,-2.7444,-2.7496,-2.7496,-2.7496,-2.7496,-2.7421,-2.7376,-2.7376,-2.7215,-2.7103,-2.7103,-2.7023,-2.6959,-2.6893,-2.6893,-2.6893,-2.6893,-2.7215,-2.7539,-2.7818,-2.8091,-2.8388,-2.8718,-2.8925,-2.9209,-2.9531,-2.9734,-2.9934,-3.0138,-3.0267,-3.0394,-3.0519,-3.0501,-3.0539,-3.0604,-3.0602,-3.061,-3.0707,-3.1588,-3.246,-3.3324,-0.7804,-0.803,-0.8255,-0.8403,-0.8637,-0.8765,-0.891,-0.9005,-0.9078,-0.9188,-0.9044,-0.8958,-0.9064,-0.8788,-0.8436,-0.8172,-0.8842,-1.1608,-1.7042,-1.8547,-2.2008,-2.8233,-2.8989,-2.9373,-2.9626,-2.9753,-2.9907,-3.0022,-3.0022,-3.0022,-3.0022,-2.9975,-2.9907,-2.9784,-2.8902,-2.8041,-2.7182,-2.6287,-2.5415,-2.4617,-2.4584,-2.4515,-2.4409,-2.4429,-2.4375,-2.4321,-2.4284,-2.4247,-2.4266,-2.4266,-2.4266,-2.4266,-2.4266,-2.4247,-2.4266,-2.4266,-2.4247,-2.4247,-2.4153,-2.4037,-2.3955,-2.3876,-2.3834,-2.3789,-2.3739,-2.3629,-2.3539,-2.3471,-2.3383,-2.3702,-2.4908,-2.5315,-2.5905,-2.7151,-2.7578,-2.7694,-2.7587,-2.7557,-2.7557,-2.7496,-2.7483,-2.7452,-2.7452,-2.7359,-2.7296,-2.7296,-2.7152,-2.7023,-2.6959,-2.6825,-2.6792,-2.6893,-2.7007,-2.7247,-2.7539,-2.7818,-2.8101,-2.8388,-2.8676,-2.8943,-2.9209,-2.9494,-2.9717,-2.9924,-3.0056,-3.0196,-3.0316,-3.0406,-3.049,-3.053,-3.053,-3.0887,-3.1514,-3.2337,-3.3218,-3.4109,-0.7953,-0.8178,-0.8403,-0.8556,-0.8794,-0.9022,-0.9175,-0.9345,-0.9516,-0.9661,-0.9502,-0.9349,-0.9394,-0.9105,-0.87,-0.8306,-0.7917,-0.9982,-1.5391,-1.7768,-2.1943,-2.8535,-2.9144,-2.9474,-2.9717,-2.9891,-3.0022,-3.0132,-3.0161,-3.0142,-3.0128,-3.0083,-3.0019,-2.9915,-2.8768,-2.791,-2.7296,-2.6136,-2.5302,-2.4714,-2.4679,-2.4631,-2.4564,-2.4549,-2.4517,-2.4465,-2.4411,-2.4393,-2.4393,-2.4393,-2.4393,-2.4393,-2.4393,-2.4375,-2.4357,-2.4375,-2.4358,-2.4321,-2.4247,-2.4135,-2.4056,-2.3996,-2.3896,-2.3834,-2.3789,-2.3721,-2.3629,-2.3539,-2.3494,-2.3886,-2.5374,-2.5614,-2.6118,-2.7681,-2.7917,-2.7871,-2.7736,-2.7736,-2.7707,-2.7617,-2.7587,-2.7539,-2.7526,-2.7483,-2.7438,-2.7407,-2.7264,-2.712,-2.7007,-2.6859,-2.6792,-2.6842,-2.6893,-2.7007,-2.7247,-2.7539,-2.7806,-2.8007,-2.8317,-2.8608,-2.8832,-2.9148,-2.9415,-2.9645,-2.9836,-2.9996,-3.0147,-3.0292,-3.0386,-3.0475,-3.0769,-3.1274,-3.1961,-3.3064,-3.3877,-3.4565,-0.8327,-0.8403,-0.8556,-0.8946,-0.9022,-0.9175,-0.9549,-0.9771,-0.9911,-0.9902,-0.9871,-0.9685,-0.9416,-0.9165,-0.8894,-0.8517,-0.8182,-0.9188,-1.1953,-1.8771,-2.4552,-2.8718,-2.9225,-2.9531,-2.9789,-3.001,-3.0132,-3.0204,-3.0272,-3.0266,-3.0188,-3.0199,-3.0171,-3.0018,-2.8303,-2.7504,-2.7399,-2.565,-2.4861,-2.4806,-2.4806,-2.476,-2.4701,-2.4701,-2.4666,-2.4599,-2.4599,-2.4599,-2.4599,-2.4599,-2.4599,-2.4599,-2.4599,-2.4564,-2.4495,-2.4498,-2.4447,-2.4394,-2.4321,-2.4266,-2.4191,-2.4113,-2.3996,-2.3896,-2.3816,-2.381,-2.3761,-2.3629,-2.3539,-2.3934,-2.5425,-2.5657,-2.6145,-2.7748,-2.8014,-2.8014,-2.8014,-2.8014,-2.7986,-2.7917,-2.7795,-2.7689,-2.7617,-2.7526,-2.7465,-2.7407,-2.7407,-2.7282,-2.7007,-2.6926,-2.6842,-2.6691,-2.6842,-2.6893,-2.6893,-2.7215,-2.7465,-2.7587,-2.7858,-2.8138,-2.8396,-2.8742,-2.9042,-2.9314,-2.957,-2.9805,-3.0022,-3.0142,-3.0245,-3.0401,-3.1326,-3.1707,-3.1931,-3.3647,-3.4306,-3.4433,-0.8551,-0.8708,-0.887,-0.917,-0.9473,-0.9695,-0.9771,-1.0067,-1.034,-1.049,-1.0325,-1.0095,-1.0012,-0.9598,-0.9204,-0.877,-0.8247,-1.0286,-1.5616,-2.0196,-2.457,-2.8732,-2.927,-2.9608,-2.9855,-3.0019,-3.0157,-3.0266,-3.0279,-3.0279,-3.0266,-3.0266,-3.0226,-3.0114,-2.8992,-2.8136,-2.7495,-2.6365,-2.5522,-2.4945,-2.4889,-2.4861,-2.4832,-2.4791,-2.476,-2.4726,-2.4695,-2.4676,-2.466,-2.4682,-2.4666,-2.4666,-2.4615,-2.4599,-2.4564,-2.4513,-2.4497,-2.4462,-2.4393,-2.4358,-2.4303,-2.4209,-2.4094,-2.4016,-2.3896,-2.3834,-2.3789,-2.3761,-2.3696,-2.4096,-2.5631,-2.5843,-2.631,-2.7905,-2.8099,-2.8071,-2.8014,-2.8014,-2.7986,-2.7957,-2.79,-2.7842,-2.7813,-2.7647,-2.7557,-2.7526,-2.7373,-2.7184,-2.7007,-2.6926,-2.6842,-2.6691,-2.6691,-2.6691,-2.6691,-2.7023,-2.723,-2.7307,-2.7582,-2.7847,-2.8055,-2.8404,-2.8707,-2.903,-2.9251,-2.9494,-2.9734,-2.9905,-3.0426,-3.1097,-3.1429,-3.2353,-3.3532,-3.4045,-3.4646,-3.5253,-0.8937,-0.9094,-0.9322,-0.9473,-0.9771,-1.0067,-1.0218,-1.0513,-1.0812,-1.1037,-1.0724,-1.0534,-1.0534,-1.0048,-0.9524,-0.9081,-0.8306,-1.0657,-1.7325,-1.9541,-2.3059,-2.8562,-2.923,-2.9608,-2.994,-3.0064,-3.0213,-3.0349,-3.0343,-3.0355,-3.0367,-3.0343,-3.0324,-3.0228,-2.9353,-2.8651,-2.8101,-2.7216,-2.6352,-2.5545,-2.5473,-2.5256,-2.4945,-2.4889,-2.4861,-2.4827,-2.4798,-2.4783,-2.4768,-2.4757,-2.4742,-2.4726,-2.4695,-2.4663,-2.4629,-2.458,-2.4564,-2.453,-2.4464,-2.4429,-2.4412,-2.4303,-2.4209,-2.4113,-2.3996,-2.3917,-2.3834,-2.381,-2.3765,-2.4118,-2.529,-2.5751,-2.6348,-2.7611,-2.8022,-2.8209,-2.8136,-2.8109,-2.8081,-2.8042,-2.7986,-2.7946,-2.7906,-2.7783,-2.7677,-2.7557,-2.7404,-2.7215,-2.7055,-2.6975,-2.6876,-2.6792,-2.6674,-2.6606,-2.6606,-2.6759,-2.6908,-2.7021,-2.723,-2.7478,-2.7713,-2.8055,-2.8396,-2.8718,-2.9007,-2.9251,-2.9513,-3.0075,-3.0686,-3.1366,-3.2142,-3.3125,-3.4169,-3.457,-3.5066,-3.5572,-0.9322,-0.9549,-0.9695,-0.9922,-1.0143,-1.0443,-1.0812,-1.1037,-1.126,-1.1409,-1.1177,-1.0981,-1.0955,-1.0403,-0.9945,-0.9588,-0.8296,-1.0391,-1.7054,-1.7435,-2.065,-2.7871,-2.8973,-2.957,-2.9972,-3.0128,-3.0266,-3.041,-3.0406,-3.0439,-3.0499,-3.0444,-3.041,-3.0371,-2.9505,-2.9084,-2.8964,-2.816,-2.7332,-2.653,-2.6441,-2.5958,-2.5228,-2.5139,-2.5088,-2.5029,-2.4945,-2.4912,-2.4917,-2.4842,-2.4808,-2.4813,-2.4802,-2.4772,-2.4707,-2.4698,-2.4666,-2.458,-2.4528,-2.4497,-2.4482,-2.443,-2.4303,-2.419,-2.4132,-2.4016,-2.3896,-2.3837,-2.381,-2.4017,-2.4707,-2.5422,-2.6152,-2.6986,-2.7697,-2.82,-2.8219,-2.8192,-2.8156,-2.8109,-2.8099,-2.8042,-2.7917,-2.7888,-2.7801,-2.7526,-2.7452,-2.7327,-2.7117,-2.7023,-2.6992,-2.6893,-2.6691,-2.6589,-2.6589,-2.652,-2.6537,-2.6691,-2.6859,-2.7105,-2.7373,-2.7713,-2.8055,-2.837,-2.8773,-2.9112,-2.946,-3.0448,-3.1036,-3.1465,-3.3211,-3.3977,-3.4213,-3.5129,-3.5493,-3.552,-0.9695,-0.9922,-1.0143,-1.0519,-1.0738,-1.0962,-1.126,-1.1409,-1.1632,-1.1855,-1.1775,-1.1613,-1.1312,-1.0976,-1.0542,-0.9938,-0.8694,-0.9526,-1.3371,-1.6044,-1.9519,-2.4107,-2.754,-2.9513,-2.9905,-3.0104,-3.0267,-3.0406,-3.0458,-3.0499,-3.0499,-3.0488,-3.0447,-3.0386,-3.0186,-2.9721,-2.9051,-2.8816,-2.8248,-2.7477,-2.7414,-2.7287,-2.7045,-2.6371,-2.6085,-2.5984,-2.5304,-2.5051,-2.5044,-2.4985,-2.4926,-2.487,-2.4889,-2.4827,-2.4783,-2.4707,-2.4692,-2.466,-2.4596,-2.4547,-2.4497,-2.4464,-2.4412,-2.4321,-2.4209,-2.4132,-2.4054,-2.3976,-2.3896,-2.4109,-2.4886,-2.5086,-2.5396,-2.6213,-2.6453,-2.6745,-2.7356,-2.7394,-2.7575,-2.8174,-2.8164,-2.8071,-2.7986,-2.7853,-2.7689,-2.7526,-2.7496,-2.7373,-2.7117,-2.7023,-2.6992,-2.6893,-2.6657,-2.652,-2.652,-2.6345,-2.6345,-2.6554,-2.6674,-2.6892,-2.7105,-2.7417,-2.776,-2.811,-2.8448,-2.9138,-3.0028,-3.0423,-3.1456,-3.2879,-3.345,-3.4165,-3.4893,-3.5184,-3.5354,-3.552,-1.0293,-1.0513,-1.0738,-1.1037,-1.1335,-1.1632,-1.1781,-1.2003,-1.2224,-1.2378,-1.2267,-1.2038,-1.1737,-1.1436,-1.0875,-1.0072,-0.9022,-0.9648,-1.2552,-1.5862,-1.9313,-2.2948,-2.702,-2.9378,-2.9803,-3.0037,-3.0235,-3.0398,-3.0469,-3.0519,-3.0559,-3.051,-3.0471,-3.0449,-3.0447,-3.0194,-2.9759,-2.9706,-2.9194,-2.8464,-2.8391,-2.813,-2.7704,-2.7232,-2.7075,-2.6943,-2.609,-2.5468,-2.5095,-2.5063,-2.5025,-2.4985,-2.4964,-2.4917,-2.4889,-2.4783,-2.4738,-2.4742,-2.4679,-2.4596,-2.4547,-2.4497,-2.4446,-2.4358,-2.4228,-2.4171,-2.4132,-2.4074,-2.3996,-2.4083,-2.4502,-2.4817,-2.5131,-2.5552,-2.5881,-2.6231,-2.6621,-2.662,-2.6713,-2.7118,-2.7049,-2.6961,-2.6853,-2.7049,-2.7116,-2.6922,-2.727,-2.7404,-2.7233,-2.7072,-2.6975,-2.6959,-2.6657,-2.6485,-2.6485,-2.631,-2.6239,-2.6345,-2.6537,-2.6742,-2.6942,-2.731,-2.763,-2.7933,-2.8703,-2.9435,-3.0174,-3.1191,-3.2259,-3.3299,-3.3938,-3.451,-3.5018,-3.5141,-3.5324,-3.5507,-1.0887,-1.1111,-1.1335,-1.1558,-1.1855,-1.215,-1.2452,-1.2599,-1.2826,-1.3046,-1.2827,-1.26,-1.223,-1.1786,-1.1139,-1.0193,-0.9408,-0.9905,-1.2086,-1.5202,-1.8516,-2.2018,-2.5943,-2.8556,-2.9623,-2.9943,-3.0209,-3.0398,-3.0469,-3.053,-3.0598,-3.053,-3.052,-3.052,-3.0519,-3.0509,-3.0509,-3.0439,-3.0023,-2.9417,-2.9366,-2.892,-2.8245,-2.811,-2.803,-2.7919,-2.7044,-2.6144,-2.5328,-2.5175,-2.5132,-2.5114,-2.5063,-2.5023,-2.4977,-2.4856,-2.4832,-2.4787,-2.4742,-2.466,-2.4596,-2.4528,-2.4462,-2.4375,-2.4266,-2.4228,-2.4171,-2.4133,-2.4056,-2.4016,-2.4016,-2.4502,-2.4896,-2.4896,-2.5415,-2.5842,-2.5899,-2.5823,-2.5823,-2.59,-2.5843,-2.5717,-2.5614,-2.6194,-2.6538,-2.6312,-2.7043,-2.7452,-2.733,-2.7122,-2.7007,-2.7007,-2.6691,-2.652,-2.6485,-2.631,-2.6203,-2.6203,-2.6415,-2.6623,-2.6876,-2.7353,-2.7718,-2.8035,-2.9208,-2.9954,-3.0436,-3.207,-3.2969,-3.343,-3.4381,-3.479,-3.4908,-3.5124,-3.5324,-3.5479,-1.1484,-1.1706,-1.2003,-1.2378,-1.2452,-1.2673,-1.3046,-1.3119,-1.3273,-1.3645,-1.368,-1.342,-1.3006,-1.2121,-1.129,-1.0491,-0.997,-0.9415,-0.8742,-1.1515,-1.4725,-1.8283,-2.19,-2.5607,-2.9439,-2.9899,-3.0202,-3.0398,-3.0471,-3.053,-3.0598,-3.0598,-3.0588,-3.0569,-3.052,-3.0491,-3.051,-3.049,-3.0422,-3.0325,-3.0306,-3.0237,-3.0045,-2.9292,-2.9012,-2.8895,-2.8018,-2.7129,-2.6269,-2.545,-2.5195,-2.518,-2.5187,-2.5088,-2.4999,-2.4977,-2.4917,-2.4875,-2.4802,-2.4742,-2.4676,-2.4596,-2.4547,-2.4479,-2.4393,-2.4284,-2.421,-2.4192,-2.4134,-2.4094,-2.4094,-2.4107,-2.414,-2.4081,-2.4151,-2.4439,-2.5063,-2.5036,-2.5218,-2.5919,-2.5768,-2.5614,-2.5605,-2.6194,-2.6538,-2.6312,-2.7043,-2.7452,-2.733,-2.7122,-2.7007,-2.7007,-2.6742,-2.6554,-2.6485,-2.6347,-2.6295,-2.6295,-2.6434,-2.6572,-2.6759,-2.774,-2.8377,-2.871,-2.9766,-3.0743,-3.1675,-3.222,-3.3025,-3.3926,-3.4302,-3.4604,-3.483,-3.5089,-3.5242,-3.5343,-1.215,-1.2378,-1.2599,-1.29,-1.3119,-1.3346,-1.3499,-1.363,-1.3775,-1.4072,-1.4145,-1.3955,-1.3403,-1.2462,-1.1622,-1.0989,-1.0421,-0.9588,-0.849,-1.1082,-1.4223,-1.7671,-2.1182,-2.5057,-2.9345,-2.9801,-3.0104,-3.0336,-3.0458,-3.054,-3.0598,-3.0598,-3.0607,-3.0597,-3.0568,-3.0568,-3.0558,-3.0549,-3.0568,-3.0568,-3.0568,-3.0559,-3.0511,-3.0124,-2.995,-2.9814,-2.8926,-2.7758,-2.6533,-2.6119,-2.5625,-2.5195,-2.5191,-2.5125,-2.5051,-2.5012,-2.4991,-2.4917,-2.4832,-2.4753,-2.4692,-2.4647,-2.4564,-2.4495,-2.4462,-2.4375,-2.4284,-2.421,-2.4191,-2.4153,-2.417,-2.4094,-2.4036,-2.3976,-2.3917,-2.4003,-2.4306,-2.4248,-2.4302,-2.4569,-2.4437,-2.4314,-2.4314,-2.5253,-2.5817,-2.5703,-2.6775,-2.7359,-2.7201,-2.7072,-2.6975,-2.6959,-2.6708,-2.6589,-2.6485,-2.6382,-2.6495,-2.6911,-2.7052,-2.7212,-2.7454,-2.8031,-2.8726,-2.9484,-3.0529,-3.1306,-3.1959,-3.2746,-3.345,-3.4023,-3.4245,-3.452,-3.4811,-3.4963,-3.5107,-3.5261]},{"header":{"parameterUnit":"m.s-1","parameterCategory":1,"la1":30.6,"la2":28.766,"lo1":-90.7593,"lo2":-88.6598,"dy":0.0162,"dx":0.0183,"nx":116,"ny":114,"refTime":"2023-06-05T00:00:00:Z","depth":0,"parameterNumber":3,"parameterNumberName":"V-component_of_WINDS"},"data":[0.0,0.0,0.0,0.0,0.0,0.0,0.0,0.0,0.0,0.0,0.0,0.0,0.0,0.0,0.0,0.0,0.0,0.0,0.0,0.0,0.0,0.0,0.0,0.0,0.0,0.0,0.0,0.0,0.0,0.0,0.0,0.0,0.0,0.0,0.0,0.0,0.0,0.0,0.0,0.0,0.0,0.0,0.0,0.0,0.0,0.0,0.0,0.0,0.0,0.0,0.0,0.0,0.0,0.0,0.0,0.0,0.0,0.0,0.0,0.0,0.0,0.0,0.0,0.0,0.0,0.0,0.0,0.0,0.0,0.0,0.0,0.0,0.0,0.0,0.0,0.0,0.0,0.0,0.0,0.0,0.0,0.0,0.0,0.0,0.0,0.0,0.0,0.0,0.0,0.0,0.0,0.0,0.0,0.0,0.0,0.0,0.0,0.0,0.0,0.0,0.0,0.0,0.0,0.0,0.0,0.0,0.0,0.0,0.0,0.0,0.0,0.0,0.0,0.0,0.0,0.0,0.0,0.0,0.0,0.0,0.0,0.0,0.0,0.0,0.0,0.0,0.0,0.0,0.0,0.0,0.0,0.0,0.0,0.0,0.0,0.0,0.0,0.0,0.0,0.0,0.0,0.0,0.0,0.0,0.0,0.0,0.0,0.0,0.0,0.0,0.0,0.0,0.0,0.0,0.0,0.0,0.0,0.0,0.0,0.0,0.0,0.0,0.0,0.0,0.0,0.0,0.0,0.0,0.0,0.0,0.0,0.0,0.0,0.0,0.0,0.0,0.0,0.0,0.0,0.0,0.0,0.0,0.0,0.0,0.0,0.0,0.0,0.0,0.0,0.0,0.0,0.0,0.0,0.0,0.0,0.0,0.0,0.0,0.0,0.0,0.0,0.0,0.0,0.0,0.0,0.0,0.0,0.0,0.0,0.0,0.0,0.0,0.0,0.0,0.0,0.0,0.0,0.0,0.0,0.0,0.0,0.0,0.0,0.0,0.0,0.0,0.0,0.0,0.0,0.0,0.0,0.0,0.0,0.0,0.0,0.0,0.0,0.0,0.0,0.0,0.0,0.0,0.0,0.0,0.0,0.0,0.0,0.0,0.0,0.0,0.0,0.0,0.0,0.0,0.0,0.0,0.0,0.0,0.0,0.0,0.0,0.0,0.0,0.0,0.0,0.0,0.0,0.0,0.0,0.0,0.0,0.0,0.0,0.0,0.0,0.0,0.0,0.0,0.0,0.0,0.0,0.0,0.0,0.0,0.0,0.0,0.0,0.0,0.0,0.0,0.0,0.0,0.0,0.0,0.0,0.0,0.0,0.0,0.0,0.0,0.0,0.0,0.0,0.0,0.0,0.0,0.0,0.0,0.0,0.0,0.0,0.0,0.0,0.0,0.0,0.0,0.0,0.0,0.0,0.0,0.0,0.0,0.0,0.0,0.0,0.0,0.0,0.0,0.0,0.0,0.0,0.0,0.0,0.0,0.0,0.0,0.0,0.0,0.0,0.0,0.0,0.0,0.0,0.0,0.0,0.0,0.0,0.0,0.0,0.0,0.0,0.0,0.0,0.0,0.0,0.0,0.0,0.0,0.0,0.0,0.0,0.0,0.0,0.0,0.0,0.0,0.0,0.0,0.0,0.0,0.0,0.0,0.0,0.0,0.0,0.0,0.0,0.0,0.0,0.0,0.0,0.0,0.0,0.0,0.0,0.0,0.0,0.0,0.0,0.0,0.0,0.0,0.0,0.0,0.0,0.0,0.0,0.0,0.0,0.0,0.0,0.0,0.0,0.0,0.0,0.0,0.0,0.0,0.0,0.0,0.0,0.0,0.0,0.0,0.0,0.0,0.0,0.0,0.0,0.0,0.0,0.0,0.0,0.0,0.0,0.0,0.0,0.0,0.0,0.0,0.0,0.0,0.0,0.0,0.0,0.0,0.0,0.0,0.0,0.0,0.0,0.0,0.0,0.0,0.0,0.0,0.0,0.0,0.0,0.0,0.0,0.0,0.0,0.0,0.0,0.0,0.0,0.0,0.0,0.0,0.0,0.0,0.0,0.0,0.0,0.0,0.0,0.0,0.0,0.0,0.0,0.0,0.0,0.0,0.0,0.0,0.0,0.0,0.0,0.0,0.0,0.0,0.0,0.0,0.0,0.0,0.0,0.0,0.0,0.0,0.0,0.0,0.0,0.0,0.0,0.0,0.0,0.0,0.0,0.0,0.0,0.0,0.0,0.0,0.0,0.0,0.0,0.0,0.0,0.0,0.0,0.0,0.0,0.0,0.0,0.0,0.0,0.0,0.0,0.0,0.0,0.0,0.0,0.0,0.0,0.0,0.0,0.0,0.0,0.0,0.0,0.0,0.0,0.0,0.0,0.0,0.0,0.0,0.0,0.0,0.0,0.0,0.0,0.0,0.0,0.0,0.0,0.0,0.0,0.0,0.0,0.0,0.0,0.0,0.0,0.0,0.0,0.0,0.0,0.0,0.0,0.0,0.0,0.0,0.0,0.0,0.0,0.0,0.0,0.0,0.0,0.0,0.0,0.0,0.0,0.0,0.0,0.0,0.0,0.0,0.0,0.0,0.0,0.0,0.0,0.0,0.0,0.0,0.0,0.0,0.0,0.0,0.0,0.0,0.0,0.0,0.0,0.0,0.0,0.0,0.0,0.0,0.0,0.0,0.0,0.0,0.0,0.0,0.0,0.0,0.0,0.0,0.0,0.0,0.0,0.0,0.0,0.0,0.0,0.0,0.0,0.0,0.0,0.0,0.0,0.0,0.0,0.0,0.0,0.0,0.0,0.0,0.0,0.0,0.0,0.0,0.0,0.0,0.0,0.0,0.0,0.0,0.0,0.0,0.0,0.0,0.0,0.0,0.0,0.0,0.0,0.0,0.0,0.0,0.0,0.0,0.0,0.0,0.0,0.0,0.0,0.0,0.0,0.0,0.0,0.0,0.0,0.0,0.0,0.0,0.0,0.0,0.0,0.0,0.0,0.0,0.0,0.0,0.0,0.0,0.0,0.0,0.0,0.0,0.0,0.0,0.0,0.0,0.0,0.0,0.0,0.0,0.0,0.0,0.0,0.0,0.0,0.0,0.0,0.0,0.0,0.0,0.0,0.0,0.0,0.0,0.0,0.0,0.0,0.0,0.0,0.0,0.0,0.0,0.0,0.0,0.0,0.0,0.0,0.0,0.0,0.0,0.0,0.0,0.0,0.0,0.0,0.0,0.0,0.0,0.0,0.0,0.0,0.0,0.0,0.0,0.0,0.0,0.0,0.0,0.0,0.0,0.0,0.0,0.0,0.0,0.0,0.0,0.0,0.0,0.0,0.0,0.0,0.0,0.0,0.0,0.0,0.0,0.0,0.0,0.0,0.0,0.0,0.0,0.0,0.0,0.0,0.0,0.0,0.0,0.0,0.0,0.0,0.0,0.0,0.0,0.0,0.0,0.0,0.0,0.0,0.0,0.0,0.0,0.0,0.0,0.0,0.0,0.0,0.0,0.0,0.0,0.0,0.0,0.0,0.0,0.0,0.0,0.0,0.0,0.0,0.0,0.0,0.0,0.0,0.0,0.0,0.0,0.0,0.0,0.0,0.0,0.0,0.0,0.0,0.0,0.0,0.0,0.0,0.0,0.0,0.0,0.0,0.0,0.0,0.0,0.0,0.0,0.0,0.0,0.0,0.0,0.0,0.0,0.0,0.0,0.0,0.0,0.0,0.0,0.0,0.0,0.0,0.0,0.0,0.0,0.0,0.0,0.0,0.0,0.0,0.0,0.0,0.0,0.0,0.0,0.0,0.0,0.0,0.0,0.0,0.0,0.0,0.0,0.0,0.0,0.0,0.0,0.0,0.0,0.0,0.0,0.0,0.0,0.0,0.0,0.0,0.0,0.0,0.0,0.0,0.0,0.0,0.0,0.0,0.0,0.0,0.0,0.0,0.0,0.0,0.0,0.0,0.0,0.0,0.0,0.0,0.0,0.0,0.0,0.0,0.0,0.0,0.0,0.0,0.0,0.0,0.0,0.0,0.0,0.0,0.0,0.0,0.0,0.0,0.0,0.0,0.0,0.0,0.0,0.0,0.0,0.0,0.0,0.0,0.0,0.0,0.0,0.0,0.0,0.0,0.0,0.0,0.0,0.0,0.0,0.0,0.0,0.0,0.0,0.0,0.0,0.0,0.0,0.0,0.0,0.0,0.0,0.0,0.0,0.0,0.0,0.0,0.0,0.0,0.0,0.0,0.0,0.0,0.0,0.0,0.0,0.0,0.0,0.0,0.0,0.0,0.0,0.0,0.0,0.0,0.0,0.0,0.0,0.0,0.0,0.0,0.0,0.0,0.0,0.0,0.0,0.0,0.0,0.0,0.0,0.0,0.0,0.0,0.0,0.0,0.0,0.0,0.0,0.0,0.0,0.0,0.0,0.0,0.0,0.0,0.0,0.0,0.0,0.0,0.0,0.0,0.0,0.0,0.0,0.0,0.0,0.0,0.0,0.0,0.0,0.0,0.0,0.0,0.0,0.0,0.0,0.0,0.0,0.0,0.0,0.0,0.0,0.0,0.0,0.0,0.0,0.0,0.0,0.0,0.0,0.0,0.0,0.0,0.0,0.0,0.0,0.0,0.0,0.0,0.0,0.0,0.0,0.0,0.0,0.0,0.0,0.0,0.0,0.0,0.0,0.0,0.0,0.0,0.0,0.0,0.0,0.0,0.0,0.0,0.0,0.0,0.0,0.0,0.0,0.0,0.0,0.0,0.0,0.0,0.0,0.0,0.0,0.0,0.0,0.0,0.0,0.0,0.0,0.0,0.0,0.0,0.0,0.0,0.0,0.0,0.0,0.0,0.0,0.0,0.0,0.0,0.0,0.0,0.0,0.0,0.0,0.0,0.0,0.0,0.0,0.0,0.0,0.0,0.0,0.0,0.0,0.0,0.0,0.0,0.0,0.0,0.0,0.0,0.0,0.0,0.0,0.0,0.0,0.0,0.0,0.0,0.0,0.0,0.0,0.0,0.0,0.0,0.0,0.0,0.0,0.0,0.0,0.0,0.0,0.0,0.0,0.0,0.0,0.0,0.0,0.0,0.0,0.0,0.0,0.0,0.0,0.0,0.0,0.0,0.0,0.0,0.0,0.0,0.0,0.0,0.0,0.0,0.0,0.0,0.0,0.0,0.0,0.0,0.0,0.0,0.0,0.0,0.0,0.0,0.0,0.0,0.0,0.0,0.0,0.0,0.0,0.0,0.0,0.0,0.0,0.0,0.0,0.0,0.0,0.0,0.0,0.0,0.0,0.0,0.0,0.0,0.0,0.0,0.0,0.0,0.0,0.0,0.0,0.0,0.0,0.0,0.0,0.0,0.0,0.0,0.0,0.0,0.0,0.0,0.0,0.0,0.0,0.0,0.0,0.0,0.0,0.0,0.0,0.0,0.0,0.0,0.0,0.0,0.0,0.0,0.0,0.0,0.0,0.0,0.0,0.0,0.0,0.0,0.0,0.0,0.0,0.0,0.0,0.0,0.0,0.0,0.0,0.0,0.0,0.0,0.0,0.0,0.0,0.0,0.0,0.0,0.0,0.0,0.0,0.0,0.0,0.0,0.0,0.0,0.0,0.0,0.0,0.0,0.0,0.0,0.0,0.0,0.0,0.0,0.0,0.0,0.0,0.0,0.0,0.0,0.0,0.0,0.0,0.0,0.0,0.0,0.0,0.0,0.0,0.0,0.0,0.0,0.0,0.0,0.0,0.0,0.0,0.0,0.0,0.0,0.0,0.0,0.0,0.0,0.0,0.0,0.0,0.0,0.0,0.0,0.0,0.0,0.0,0.0,0.0,0.0,0.0,0.0,0.0,0.0,0.0,0.0,0.0,0.0,0.0,0.0,0.0,0.0,0.0,0.0,0.0,0.0,0.0,0.0,0.0,0.0,0.0,0.0,0.0,0.0,0.0,0.0,0.0,0.0,0.0,0.0,0.0,0.0,0.0,0.0,0.0,0.0,0.0,0.0,0.0,0.0,0.0,0.0,0.0,0.0,0.0,0.0,0.0,0.0,0.0,0.0,0.0,0.0,0.0,0.0,0.0,0.0,0.0,0.0,0.0,0.0,0.0,0.0,0.0,2.3459,2.3174,0.0,0.0,0.0,0.0,0.0,0.0,0.0,0.0,0.0,0.0,0.0,0.0,0.0,0.0,0.0,0.0,0.0,0.0,0.0,0.0,0.0,0.0,0.0,0.0,0.0,0.0,0.0,0.0,0.0,0.0,0.0,0.0,0.0,0.0,0.0,0.0,0.0,0.0,2.4294,2.49,2.5268,2.5136,2.5206,2.5447,0.0,0.0,0.0,0.0,0.0,0.0,0.0,0.0,0.0,0.0,0.0,0.0,0.0,0.0,0.0,0.0,0.0,0.0,0.0,0.0,0.0,0.0,0.0,0.0,0.0,0.0,0.0,0.0,0.0,0.0,0.0,0.0,0.0,0.0,0.0,0.0,0.0,0.0,0.0,0.0,0.0,0.0,0.0,0.0,0.0,0.0,0.0,0.0,0.0,0.0,0.0,0.0,0.0,0.0,0.0,0.0,0.0,0.0,0.0,0.0,0.0,0.0,0.0,0.0,0.0,0.0,0.0,0.0,0.0,0.0,2.4779,2.4016,0.0,0.0,0.0,0.0,0.0,0.0,0.0,0.0,0.0,0.0,0.0,0.0,0.0,0.0,0.0,0.0,0.0,0.0,0.0,0.0,0.0,0.0,0.0,0.0,2.4663,2.4729,2.4723,2.4749,0.0,0.0,0.0,0.0,0.0,0.0,0.0,0.0,0.0,0.0,2.5977,2.6797,2.7581,2.7581,2.7547,2.7437,2.7121,0.0,0.0,0.0,0.0,0.0,0.0,0.0,0.0,0.0,0.0,0.0,0.0,0.0,0.0,0.0,0.0,0.0,0.0,0.0,0.0,0.0,0.0,0.0,0.0,0.0,0.0,0.0,0.0,0.0,0.0,0.0,0.0,0.0,0.0,0.0,0.0,0.0,0.0,0.0,0.0,0.0,0.0,0.0,0.0,0.0,0.0,0.0,0.0,0.0,0.0,0.0,0.0,0.0,0.0,0.0,0.0,0.0,0.0,0.0,0.0,0.0,0.0,0.0,2.853,2.8705,2.9167,2.8987,2.8876,2.8606,2.6289,2.5055,2.4648,2.4648,0.0,0.0,0.0,0.0,0.0,0.0,0.0,0.0,0.0,0.0,0.0,0.0,0.0,0.0,0.0,0.0,0.0,0.0,0.0,0.0,0.0,2.3771,2.4813,2.4875,2.4879,2.4888,0.0,0.0,0.0,0.0,0.0,0.0,0.0,2.5061,2.5442,2.6206,2.7077,2.7885,2.8687,2.8687,2.9046,2.9601,2.7972,2.7219,2.7133,0.0,0.0,0.0,0.0,0.0,0.0,0.0,0.0,0.0,0.0,0.0,0.0,0.0,0.0,0.0,0.0,0.0,0.0,0.0,0.0,0.0,0.0,0.0,0.0,0.0,0.0,0.0,0.0,0.0,0.0,0.0,0.0,0.0,0.0,0.0,0.0,0.0,0.0,0.0,0.0,0.0,2.4078,2.3951,0.0,0.0,0.0,0.0,0.0,0.0,0.0,0.0,0.0,0.0,0.0,0.0,0.0,2.7533,2.8161,2.8495,2.9061,2.9773,2.9537,2.9436,2.9525,2.9222,2.9042,2.9028,2.8634,0.0,2.6897,2.6897,0.0,0.0,0.0,0.0,0.0,0.0,0.0,0.0,0.0,0.0,0.0,0.0,0.0,0.0,0.0,0.0,0.0,0.0,0.0,0.0,0.0,2.389,2.4915,2.4961,2.4994,2.5043,2.5111,2.5103,0.0,0.0,0.0,0.0,2.5924,2.5943,2.6606,2.7972,2.8357,2.8952,2.9733,2.9733,2.9932,3.0234,2.9423,2.8946,2.8742,2.8218,0.0,0.0,0.0,0.0,0.0,0.0,0.0,0.0,0.0,0.0,0.0,0.0,0.0,0.0,0.0,0.0,0.0,0.0,0.0,0.0,0.0,0.0,0.0,0.0,0.0,0.0,0.0,0.0,0.0,0.0,0.0,0.0,0.0,0.0,0.0,0.0,0.0,0.0,0.0,2.5334,2.5765,2.605,2.631,2.6379,0.0,0.0,0.0,0.0,0.0,0.0,0.0,0.0,0.0,2.8015,2.856,2.8993,2.9292,2.9704,3.017,3.0777,3.0593,3.0643,3.0951,3.0784,3.0642,3.0458,3.0458,2.9862,2.8851,2.8279,2.7489,2.6587,0.0,0.0,0.0,0.0,2.5526,2.5526,0.0,0.0,0.0,0.0,0.0,0.0,0.0,0.0,0.0,0.0,0.0,0.0,2.2455,2.3998,2.5056,2.5056,2.5115,2.5182,2.5253,2.5253,0.0,0.0,0.0,2.5948,2.6612,2.7065,2.7933,2.9226,2.9438,2.9854,3.0443,3.0443,3.0443,3.0443,3.0449,3.0323,3.0056,2.9383,2.9053,2.8913,0.0,0.0,0.0,0.0,0.0,0.0,0.0,0.0,0.0,0.0,0.0,0.0,0.0,0.0,0.0,0.0,0.0,0.0,0.0,0.0,0.0,0.0,0.0,0.0,0.0,0.0,0.0,0.0,0.0,0.0,0.0,0.0,0.0,0.0,0.0,0.0,0.0,2.6753,2.7369,2.7973,2.8343,2.8527,0.0,0.0,0.0,0.0,0.0,0.0,2.9106,2.9195,2.9414,2.9737,3.0147,3.0443,3.0565,3.0814,3.1244,3.1766,3.1659,3.1757,3.2094,3.2038,3.1925,3.161,3.161,3.1225,3.0505,2.9459,2.8577,2.7926,2.7775,2.7446,2.7029,2.7029,2.7029,2.7,0.0,0.0,0.0,0.0,0.0,0.0,0.0,0.0,0.0,0.0,0.0,2.2513,2.2585,2.4143,2.5182,2.5182,2.5253,2.5322,2.5397,2.5387,2.5423,2.5484,2.6227,2.6652,2.6691,2.8321,2.9209,2.9292,3.0117,3.0563,3.0602,3.0602,3.0602,3.0602,3.0593,3.0511,3.0367,3.0203,3.0098,2.9961,2.907,0.0,0.0,0.0,0.0,0.0,0.0,0.0,0.0,0.0,0.0,0.0,0.0,0.0,0.0,0.0,0.0,0.0,0.0,0.0,0.0,0.0,0.0,0.0,0.0,0.0,0.0,0.0,0.0,0.0,0.0,0.0,0.0,0.0,0.0,0.0,0.0,0.0,0.0,2.8876,2.8958,0.0,0.0,0.0,0.0,2.9327,3.0422,3.1006,3.0768,3.1445,3.1724,3.1502,3.1406,3.1577,3.2057,3.2049,3.2269,3.2796,3.2625,3.2461,3.2398,3.2247,3.2094,3.1996,3.1996,3.1966,3.1834,3.052,2.9643,2.8998,2.8998,2.8983,2.8954,2.8954,2.8954,2.8866,0.0,0.0,0.0,0.0,0.0,0.0,0.0,0.0,1.9979,2.0049,2.1559,2.2651,2.2719,2.4274,2.5341,2.5341,2.5397,2.544,2.5449,2.5456,2.5723,2.6301,2.6618,2.7284,2.8404,2.9602,3.0205,3.0205,3.051,3.0685,3.0736,3.0736,3.0736,3.0736,3.0685,3.0646,3.0576,3.0443,3.0337,3.0266,2.996,2.9449,0.0,0.0,0.0,0.0,0.0,0.0,0.0,0.0,0.0,0.0,0.0,0.0,0.0,0.0,0.0,0.0,0.0,0.0,0.0,0.0,0.0,0.0,0.0,0.0,0.0,0.0,0.0,0.0,0.0,0.0,0.0,0.0,0.0,0.0,0.0,0.0,0.0,3.0071,3.0407,0.0,3.0977,3.1086,3.1258,3.1615,3.2,3.2138,3.1991,3.2174,3.2283,3.2305,3.2402,3.2705,3.324,3.3137,3.316,3.315,3.3065,3.292,3.2718,3.2664,3.2484,3.2247,3.2247,3.2135,3.1966,3.1498,3.0848,3.0026,2.9844,2.9466,2.9098,2.9098,2.9098,2.9068,0.0,0.0,0.0,0.0,0.0,0.0,0.0,0.0,2.0069,2.0116,2.1646,2.2747,2.2831,2.4384,2.5429,2.5437,2.5468,2.5517,2.5538,2.5525,2.5912,2.679,2.7409,2.8393,2.9844,3.0443,3.0726,3.0739,3.0724,3.0767,3.079,3.0794,3.0798,3.0798,3.0747,3.0724,3.0735,3.0646,3.0552,3.0492,3.0449,3.0059,2.9506,0.0,0.0,0.0,0.0,0.0,0.0,0.0,0.0,0.0,0.0,0.0,0.0,0.0,0.0,0.0,0.0,0.0,0.0,0.0,0.0,0.0,0.0,0.0,0.0,0.0,0.0,0.0,0.0,0.0,0.0,0.0,0.0,0.0,0.0,3.0447,3.0994,3.1167,3.164,3.2085,3.244,3.2534,3.2723,3.3041,3.3195,3.3212,3.311,3.3189,3.3268,3.3372,3.3421,3.3615,3.3896,3.3864,3.3694,3.345,3.345,3.3309,3.3058,3.3058,3.2881,3.2578,3.2578,3.2484,3.2277,3.2206,3.1779,3.1203,3.0851,3.0485,3.0097,3.0097,3.0056,2.9941,0.0,0.0,0.0,0.0,0.0,0.0,0.0,2.0069,2.0135,2.0188,2.1716,2.2824,2.2906,2.4467,2.549,2.5499,2.5493,2.5537,2.5604,2.56,2.6004,2.6894,2.8614,2.9936,3.0781,3.081,3.0796,3.0801,3.0808,3.0792,3.0792,3.0796,3.0797,3.0797,3.0793,3.0808,3.0801,3.0796,3.0778,3.0736,3.0604,3.0549,3.054,0.0,0.0,0.0,0.0,0.0,0.0,0.0,0.0,0.0,0.0,0.0,0.0,0.0,0.0,0.0,0.0,0.0,0.0,0.0,0.0,0.0,0.0,0.0,0.0,0.0,0.0,0.0,0.0,0.0,0.0,0.0,0.0,0.0,3.1551,3.1379,3.1512,3.2091,3.2622,3.2917,3.2909,3.3345,3.359,3.3482,3.4064,3.4309,3.4068,3.4612,3.4851,3.4691,3.4513,3.4301,3.4101,3.4101,3.4,3.3694,3.3694,3.3555,3.3309,3.3293,3.315,3.2897,3.2897,3.2897,3.2897,3.2523,3.2398,3.2398,3.2094,3.1996,3.1996,3.1996,3.1868,3.1573,0.0,0.0,0.0,0.0,0.0,0.0,0.0,2.0162,2.0241,2.0273,2.1779,2.2893,2.2966,2.4529,2.5576,2.5565,2.5576,2.5595,2.5675,2.5668,2.635,2.785,2.9537,3.0556,3.0793,3.0797,3.08,3.0801,3.0801,3.0801,3.08,3.08,3.08,3.08,3.08,3.08,3.0801,3.08,3.1148,3.1704,3.1617,3.1566,3.1573,0.0,0.0,0.0,0.0,0.0,0.0,0.0,0.0,0.0,0.0,0.0,0.0,0.0,0.0,0.0,0.0,0.0,0.0,0.0,0.0,0.0,0.0,0.0,0.0,0.0,0.0,0.0,0.0,0.0,0.0,0.0,3.1955,3.2007,3.1706,3.2527,3.3157,3.3108,3.3771,3.4321,3.4661,3.4726,3.4947,3.5411,3.5436,3.5334,3.5183,3.5232,3.5165,3.4994,3.4835,3.4691,3.4546,3.4448,3.43,3.4151,3.405,3.3899,3.3745,3.3642,3.3503,3.3361,3.3256,3.315,3.3058,3.2827,3.2773,3.2718,3.2221,3.1996,3.1996,3.1996,3.1693,3.1152,0.0,0.0,0.0,0.0,0.0,0.0,0.0,2.0233,2.0308,2.0332,2.1855,2.2959,2.299,2.4563,2.562,2.5639,2.5636,2.5652,2.5704,2.603,2.6864,2.824,2.9589,3.0469,3.0781,3.0798,3.0795,3.0792,3.0808,3.0804,3.0801,3.0777,3.0774,3.0796,3.0777,3.078,3.0801,3.079,3.1302,3.2126,3.2457,3.2567,3.2591,3.307,3.3225,3.3172,3.3147,3.3122,3.3005,3.2463,0.0,0.0,0.0,0.0,0.0,0.0,0.0,0.0,0.0,0.0,0.0,0.0,0.0,0.0,0.0,0.0,0.0,0.0,0.0,0.0,0.0,0.0,0.0,0.0,3.3022,3.3291,3.2979,3.3538,3.4052,3.4234,3.4834,3.5337,3.5562,3.5774,3.6017,3.6301,3.6105,3.5975,3.5861,3.5667,3.5487,3.5304,3.5165,3.5008,3.4785,3.4723,3.4594,3.4415,3.4333,3.4201,3.405,3.3949,3.3797,3.3658,3.3555,3.3398,3.3346,3.3203,3.3096,3.3005,0.0,0.0,0.0,0.0,3.1457,3.0937,0.0,0.0,0.0,0.0,0.0,0.0,0.0,2.0265,2.033,2.0392,2.1842,2.2885,2.3003,2.4481,2.5535,2.5683,2.5704,2.5698,2.5705,2.6517,2.7382,2.8258,2.9115,2.9972,3.0765,3.0794,3.0785,3.0785,3.0782,3.0769,3.0789,3.0725,3.072,3.0769,3.0711,3.0721,3.0789,3.0782,3.1344,3.2293,3.306,3.3455,3.3541,3.359,3.3604,3.3585,3.3537,3.3502,3.348,3.3322,0.0,0.0,0.0,0.0,0.0,0.0,0.0,0.0,0.0,0.0,0.0,0.0,0.0,0.0,0.0,0.0,0.0,0.0,0.0,0.0,0.0,0.0,0.0,0.0,3.4201,3.5127,3.5016,3.4686,3.4715,3.5379,3.59,3.6141,3.5972,3.6488,3.6748,3.6585,3.6444,3.6318,3.6268,3.5993,0.0,0.0,0.0,3.5299,3.4955,3.4944,3.4866,3.469,3.4626,3.4497,3.4349,3.425,3.4101,3.3949,3.3848,3.3745,3.3745,3.3511,3.3292,3.3087,3.2848,3.2788,3.264,3.1696,3.118,3.0747,0.0,0.0,0.0,0.0,0.0,0.0,0.0,2.0265,2.0321,2.0398,2.1316,2.2231,2.3011,2.4016,2.4911,2.564,2.5707,2.5697,2.5703,2.6523,2.7358,2.8176,2.9054,2.99,3.0691,3.0726,3.0711,3.0722,3.0724,3.0691,3.0632,3.063,3.0642,3.0642,3.0622,3.0622,3.063,3.0711,3.1605,3.3018,3.322,3.3768,3.4511,3.5213,3.5439,3.5396,3.5381,3.5373,3.5262,3.4549,3.426,3.4093,3.3389,3.3015,0.0,0.0,0.0,0.0,0.0,0.0,0.0,0.0,0.0,0.0,0.0,0.0,0.0,0.0,0.0,0.0,0.0,0.0,0.0,3.4946,3.5658,3.639,3.6879,3.6741,3.6544,3.6425,3.6934,3.7235,3.7124,3.7058,3.6992,3.6908,3.6771,3.6609,3.6461,3.6276,3.6148,3.6079,3.5861,3.5622,3.547,3.5379,3.5258,3.5182,3.5041,0.0,3.4804,3.4643,3.4497,3.4399,3.425,3.4101,3.3951,3.3221,3.2526,3.1946,3.1977,3.2023,3.1945,3.1171,3.055,2.999,0.0,0.0,0.0,0.0,0.0,0.0,0.0,2.0287,2.0321,2.0388,2.1182,2.209,2.3003,2.3881,2.4757,2.5611,2.57,2.5703,2.5693,2.6101,2.6713,2.7515,2.8388,2.9231,3.0024,3.0439,3.0625,3.0607,3.0602,3.0565,3.05,3.0492,3.0501,3.0501,3.0501,3.0501,3.0501,3.0539,3.1534,3.3102,3.3161,3.3998,3.526,3.5767,3.5936,3.5898,3.5932,3.594,3.5822,3.5392,3.5232,3.5126,3.4692,3.4224,3.3845,0.0,0.0,0.0,0.0,0.0,0.0,0.0,0.0,0.0,0.0,0.0,0.0,0.0,0.0,3.5434,3.5369,0.0,3.6325,3.6224,3.676,3.7313,3.7608,3.7868,3.7862,3.7455,3.7646,3.7739,3.7559,3.7411,3.7317,3.7203,3.7031,3.6891,3.6748,3.6609,3.6485,3.6335,3.6208,3.6062,3.5854,3.5739,3.5684,3.5599,3.5367,3.5011,3.4597,3.4446,3.4107,3.3634,3.3463,3.3385,3.3257,3.2659,3.2176,3.1774,3.1339,3.1092,3.0961,3.0548,2.9935,2.9309,0.0,0.0,0.0,0.0,0.0,0.0,0.0,2.0306,2.0334,2.039,2.1065,2.1874,2.2741,2.3623,2.4575,2.56,2.5703,2.5693,2.5673,2.5684,2.6034,2.684,2.7554,2.8385,2.9338,2.9993,3.0365,3.0462,3.0451,3.0419,3.0329,3.0333,3.034,3.0309,3.0309,3.0309,3.034,3.0529,3.1507,3.2956,3.3194,3.4244,3.566,3.578,3.588,3.5918,3.5953,3.5957,3.5897,3.5927,3.5916,3.5919,3.5919,3.5437,3.4837,3.4782,3.427,0.0,0.0,0.0,0.0,0.0,0.0,0.0,0.0,3.6834,3.6946,3.7544,3.7547,3.745,3.7366,3.7392,3.737,3.7234,3.776,3.817,3.8089,3.8524,3.8713,3.83,3.8153,3.8018,3.781,3.7721,3.7613,3.7503,3.7337,3.7185,3.7087,3.697,3.6811,3.6609,3.6585,3.6444,3.6182,3.6131,3.6053,3.5956,3.5514,3.502,3.4385,3.4063,3.3545,3.2857,3.2652,3.2451,3.229,3.2017,3.1797,3.1572,3.0681,3.0272,3.0101,2.9927,2.9438,2.8873,0.0,0.0,0.0,0.0,0.0,0.0,0.0,0.0,2.0398,2.039,2.0534,2.0981,2.1842,2.2715,2.3901,2.5565,2.5693,2.5671,2.5617,2.5604,2.596,2.6786,2.6902,2.7679,2.9197,2.9303,2.9668,3.0309,3.0311,3.0273,3.0131,3.0128,3.0104,3.0037,3.0037,3.0037,3.0109,3.093,3.1852,3.2819,3.364,3.4571,3.5457,3.5579,3.5729,3.5904,3.5912,3.591,3.5906,3.5976,3.5996,3.5995,3.5986,3.5876,3.5747,3.5747,3.5666,3.558,3.5528,3.6032,3.6775,3.7647,3.7754,3.7694,0.0,3.7829,3.7763,3.7865,3.7747,3.7659,3.7585,3.8096,3.8483,3.8331,3.8874,3.9296,3.9167,3.9082,3.8989,3.8833,3.8541,3.8336,3.8223,3.807,3.7933,3.7864,3.7721,3.7559,3.7354,3.7279,3.7164,3.7031,3.6851,3.6673,3.6533,3.6485,3.636,3.6259,3.5444,3.4941,3.4695,3.3939,3.3389,3.3134,3.29,3.2359,3.1709,3.1517,3.1068,3.0391,3.0016,2.9879,2.979,2.9492,2.9323,2.9213,0.0,0.0,0.0,0.0,0.0,0.0,0.0,0.0,0.0,0.0,2.0467,2.0821,2.1708,2.3022,2.416,2.4871,2.5375,2.564,2.5605,2.5554,2.5667,2.5964,2.6478,2.7238,2.8302,2.8821,2.9435,3.018,3.0185,3.0094,2.9984,2.9972,2.994,2.9836,2.9872,2.9853,2.9874,3.0795,3.168,3.2566,3.3448,3.4388,3.5232,3.5331,3.5476,3.5631,3.5799,3.5833,0.0,3.5919,3.5938,3.595,3.5995,3.5976,3.5954,3.5962,3.5955,3.604,3.6494,3.7196,3.7894,3.8263,3.8287,3.8349,3.8802,3.8852,3.8917,3.9373,3.9355,3.9237,3.9127,3.9317,3.9463,3.9399,3.9509,3.9599,3.9551,3.9376,3.9245,3.9137,3.897,3.8755,3.8465,3.8303,3.8204,3.814,3.7967,3.7828,3.7703,3.7577,3.7503,3.7374,3.7223,3.7126,3.7009,3.6913,3.6584,3.6011,3.5521,3.4777,3.3857,3.335,3.2832,3.2207,3.2029,3.1657,3.1224,3.1125,3.0775,3.0359,3.0215,3.0044,2.987,2.9547,2.9412,2.9412,0.0,0.0,0.0,0.0,0.0,0.0,0.0,0.0,0.0,0.0,2.0458,2.0837,2.1696,2.2929,2.3878,2.4369,2.4923,2.5333,2.5568,2.5499,2.5441,2.5376,2.5966,2.661,2.7324,2.8154,2.8949,2.9699,2.9912,2.9962,2.9827,2.979,2.9718,2.9626,2.9645,2.9626,2.9664,3.081,3.1657,3.2336,3.345,3.4358,3.5037,3.5102,3.5235,3.535,3.5629,3.5763,3.5791,3.5853,3.588,3.5877,3.5952,3.5962,3.5971,3.5996,3.617,3.6594,3.763,3.8332,3.8832,3.9059,3.9085,3.919,3.9752,3.982,3.9947,4.0511,4.0539,4.0427,4.0306,4.0234,4.0138,4.0078,3.9914,3.9785,3.9804,3.9599,3.9477,3.9427,3.9324,3.9137,3.8766,3.8634,3.8528,3.8451,3.8252,3.8086,3.8054,3.7933,3.7828,3.7757,3.7613,3.7503,3.7465,3.7317,3.6796,3.5962,3.5563,3.4644,3.335,3.2867,3.23,3.1654,3.1466,3.1274,3.1134,3.0982,3.0781,3.0634,3.0485,3.0316,3.0103,2.977,2.9608,2.9518,0.0,0.0,0.0,0.0,0.0,0.0,0.0,0.0,0.0,0.0,0.0,0.0,0.0,2.1855,2.2564,2.4244,2.4362,2.4666,2.5441,2.5441,2.5376,2.5313,2.5262,2.5619,2.6422,2.7184,2.7903,2.8636,2.9429,2.9737,2.9607,2.955,2.9472,2.9412,2.9334,2.9314,2.9425,3.1208,3.1981,3.215,3.3949,3.471,3.4829,3.4964,3.5038,3.5143,3.5483,3.5646,3.5708,3.5773,3.5791,3.5814,3.588,3.5899,3.5919,3.5987,3.6601,3.7611,3.9271,3.9741,3.994,4.0725,4.0922,4.0902,4.0878,4.081,4.0746,4.0706,4.0642,4.0559,4.0504,4.0444,4.0342,4.0215,4.0138,4.0057,3.9996,3.9826,3.9693,3.9693,3.9556,3.9433,3.9298,3.9045,3.8881,3.8792,3.8603,3.8446,3.8382,3.8322,3.8223,3.8101,3.7933,3.7864,3.7864,3.7703,3.7184,3.6381,3.5439,3.4606,3.374,3.2634,3.2107,3.2073,3.1728,3.1542,3.1483,3.1269,3.1112,3.0935,3.0634,3.0468,3.0426,3.0103,2.9858,2.9653,0.0,0.0,0.0,0.0,0.0,0.0,0.0,0.0,0.0,0.0,0.0,0.0,0.0,0.0,0.0,0.0,2.3679,2.4405,2.4626,2.5112,2.5341,2.5243,2.5157,2.5494,2.626,2.699,2.773,2.846,2.9269,2.9589,2.9394,2.9373,2.9332,2.9265,2.9246,2.9225,2.9336,3.1028,3.176,3.1953,3.3664,3.4473,3.4623,3.4749,3.4869,3.4982,0.0,3.5364,3.5514,3.5585,3.565,3.5743,3.5811,3.5833,3.5967,3.6609,3.7415,3.8359,3.9531,4.0267,4.0723,4.1,4.1072,4.1058,4.0986,4.0913,4.0859,4.0837,4.0738,4.0642,4.0593,4.0504,4.0425,4.0339,4.027,4.0215,4.0139,4.0038,3.9954,3.9892,3.9781,3.967,3.9556,3.9324,3.9129,3.8989,3.8844,3.8773,3.8743,3.8627,3.8515,3.8428,3.835,3.8271,3.8238,3.7543,3.6793,3.5984,3.4458,3.3559,3.3259,3.2696,3.2438,3.2404,3.2126,3.1965,3.1893,3.1671,3.1483,3.1329,3.1055,3.0814,3.0609,3.0401,3.0146,2.9858,0.0,0.0,0.0,0.0,0.0,0.0,0.0,0.0,0.0,0.0,0.0,0.0,0.0,0.0,0.0,0.0,0.0,2.3941,2.4179,2.4924,2.5322,2.5201,2.5118,2.5266,2.5721,2.645,2.7201,2.7884,2.8671,2.9153,2.931,2.9249,2.9203,2.9156,2.9134,2.9112,2.9204,3.0554,3.1172,3.133,3.2733,3.3413,3.359,3.3738,3.4031,0.0,3.458,3.4923,3.5307,3.5438,3.5581,3.5679,3.5747,3.6009,3.6489,3.7396,3.8274,3.9151,4.0073,4.0703,4.111,4.1101,4.1104,4.1081,4.1031,4.0974,4.0921,4.0898,4.0818,4.0742,4.0642,4.0588,4.0549,4.0489,4.0408,4.0456,4.0708,4.0692,4.0729,4.0974,4.091,4.0691,0.0,0.0,3.9796,3.9264,3.9129,3.9045,3.9045,3.8939,3.8833,3.8766,3.8707,3.8664,3.8572,3.7656,3.6614,3.5454,3.3991,3.3238,3.3178,3.2912,3.2784,3.2752,3.2506,3.2335,3.2284,3.2001,3.1819,3.1617,3.1329,3.1095,3.0855,3.0609,3.0359,3.0103,0.0,0.0,0.0,0.0,0.0,0.0,0.0,0.0,0.0,0.0,0.0,0.0,0.0,0.0,0.0,0.0,0.0,0.0,2.4087,2.4829,2.5234,2.5198,2.5069,2.4966,2.4898,2.5631,2.6291,2.6934,2.7735,2.8493,2.9228,2.9156,2.9089,2.9089,2.904,2.8994,2.9072,2.9931,3.0286,3.0383,3.133,3.1782,3.1912,3.2037,3.2651,3.3468,3.3712,3.4331,3.5081,3.5398,3.5534,3.5612,3.5678,3.6393,3.7365,3.8246,3.9126,3.9992,4.0854,4.1107,4.1094,4.1093,4.1103,4.1085,4.1013,4.1006,4.0993,4.0915,4.0888,4.0859,4.073,4.0706,4.0688,4.0617,4.0577,4.0835,4.1594,4.1681,4.1953,0.0,0.0,0.0,0.0,0.0,4.0798,3.9607,3.9401,3.9324,3.9324,3.9192,3.9129,3.9129,3.9073,3.8989,3.8921,3.7948,3.6599,3.4832,3.4008,3.3605,3.352,3.3309,3.319,3.3117,3.283,3.2687,3.2606,3.2266,3.2055,3.1894,3.1487,3.1274,3.1151,3.0692,3.0485,3.0316,0.0,0.0,0.0,0.0,0.0,0.0,0.0,0.0,0.0,0.0,0.0,0.0,0.0,0.0,0.0,0.0,0.0,0.0,2.3185,2.3967,2.4649,2.5182,2.5063,2.4966,2.4898,2.5565,2.5976,2.6112,2.7456,2.8194,2.8329,2.892,2.9112,2.9017,2.9017,2.8994,2.9072,2.9931,3.0286,3.0383,3.1395,3.1823,3.1912,3.204,3.2314,3.2713,3.3505,3.397,3.432,3.509,3.5457,3.5612,3.5679,3.6356,3.7316,3.8241,3.9129,3.9994,4.0867,4.1099,4.1108,4.1094,4.109,4.1101,4.1085,4.1076,4.1064,4.0993,4.0932,4.0898,4.0849,4.0784,4.0694,4.0675,4.1161,4.1605,4.1758,4.2321,0.0,4.2851,0.0,4.2412,4.1551,4.1416,4.0973,4.0011,3.9717,3.9575,3.9526,3.9452,3.9401,3.9401,3.9401,3.9324,3.9192,3.7662,3.6044,3.4388,3.409,3.3947,3.3868,3.3707,3.3569,3.3444,3.319,3.3037,3.2961,3.2606,3.2404,3.2318,3.1894,3.1617,3.1368,3.1015,3.0692,3.0375,0.0,0.0,0.0,0.0,0.0,0.0,0.0,0.0,0.0,0.0,0.0,0.0,0.0,0.0,0.0,0.0,0.0,0.0,0.0,2.3492,2.431,2.4648,2.4912,2.5013,2.4959,2.5254,2.5558,2.5845,2.6637,2.7397,2.8059,2.8479,2.882,2.9085,2.9085,2.9085,2.9126,2.9654,2.9861,0.0,0.0,3.0849,3.0912,3.1053,3.1393,3.1954,3.2911,3.3843,3.4691,3.5235,3.5502,3.5601,3.5679,3.659,3.7741,3.8291,3.9338,4.044,4.0968,4.1108,4.1101,4.1091,4.1093,4.1105,4.1097,4.1094,4.1075,4.1013,4.0964,4.0935,4.0907,4.0848,4.0781,4.0757,4.1422,4.2044,4.2371,4.315,4.3775,0.0,4.4037,0.0,4.2776,4.2298,4.1705,4.0826,4.0186,3.9826,3.9781,3.9693,3.9689,3.9689,3.9647,3.9236,3.8377,3.7362,3.6024,3.4363,3.4293,3.4245,3.4173,3.4074,3.3921,3.3762,3.3569,3.3397,3.3238,3.2912,3.2672,3.2523,3.2126,3.1802,3.1504,3.1134,3.0773,3.0401,0.0,0.0,0.0,0.0,0.0,0.0,0.0,0.0,0.0,0.0,0.0,0.0,0.0,0.0,0.0,0.0,0.0,0.0,0.0,0.0,0.0,2.4023,2.4617,2.4977,2.5032,2.4903,2.5126,2.5775,2.5758,2.6433,2.7789,2.7968,2.8408,2.9077,2.9188,2.9243,2.9243,2.9326,2.9347,2.9347,2.9492,2.9589,2.9645,0.0,0.0,0.0,3.226,3.3806,0.0,3.5553,3.5616,3.5608,3.5679,3.6891,3.8315,3.8373,3.9623,4.1019,4.1086,4.1097,4.1099,4.1105,4.1094,4.1107,4.1101,4.1101,4.1086,4.1025,4.1006,4.098,4.0926,4.0908,4.0886,4.0812,4.157,4.2402,4.3095,4.4002,4.4826,4.5526,4.5568,4.5168,4.4307,4.3425,4.2543,4.1665,4.0634,4.0038,4.0017,3.9954,3.9933,3.9933,3.9848,3.8987,3.7254,3.7171,3.6299,3.4626,3.4583,3.4517,3.445,3.4363,3.4221,3.4049,3.3895,3.3726,3.352,3.3178,3.2898,3.2606,3.2266,3.1912,3.1579,3.1173,3.0814,3.0443,0.0,0.0,0.0,0.0,0.0,0.0,0.0,0.0,0.0,0.0,1.9953,2.0188,0.0,0.0,0.0,0.0,0.0,0.0,0.0,0.0,0.0,0.0,2.4174,2.4504,2.516,2.5031,2.501,2.5064,2.5656,2.6028,2.6241,2.7587,2.8297,2.8388,2.9134,2.9453,2.9453,2.9513,2.9551,2.9551,2.9753,2.9839,2.9855,0.0,0.0,0.0,0.0,0.0,0.0,0.0,3.5657,3.5607,3.5689,3.6929,3.8372,3.84,3.9623,4.1019,4.1086,4.1097,4.1099,4.1105,4.1094,4.1107,4.1107,4.1104,4.1091,4.1086,4.1046,4.0996,4.0988,4.0927,4.0877,4.0807,4.2071,4.3086,4.3192,4.4549,4.558,0.0,4.5657,4.5295,4.4381,4.3497,4.2616,4.1757,4.0842,4.0272,4.0176,4.0098,4.0076,4.0076,3.9996,3.9138,3.7449,3.7389,3.6496,3.485,3.4792,3.4732,3.4727,3.4583,3.4473,3.4316,3.4124,3.3921,3.3726,3.3433,3.3135,3.2802,3.2438,3.2055,3.1726,3.1308,3.0895,3.0426,0.0,0.0,0.0,0.0,0.0,0.0,0.0,1.9099,1.9256,1.9419,1.9638,1.9882,2.0118,2.0218,2.0327,0.0,0.0,0.0,0.0,0.0,0.0,0.0,0.0,0.0,0.0,2.5205,2.5118,2.5063,0.0,2.5655,2.6031,2.6795,2.7366,2.7765,2.8628,2.9041,2.9113,2.9614,2.9834,2.9864,3.0007,3.0085,0.0,0.0,0.0,0.0,0.0,0.0,0.0,0.0,3.5359,3.5708,3.5736,3.6975,3.8416,3.8449,3.9656,4.1,4.1085,4.1108,4.1101,4.1091,4.1093,4.1107,4.1103,4.0753,4.055,4.1018,4.0695,4.047,4.0918,4.0945,4.0878,4.0818,4.1862,4.2814,4.3214,4.4327,4.5283,4.5696,4.5726,4.5329,4.4449,4.3549,4.2687,4.1827,4.0946,4.0415,4.0309,4.0272,4.0234,4.0215,4.0177,3.9548,3.8289,3.7795,3.692,3.5683,3.5191,3.4908,3.4849,3.4791,3.4668,3.4495,3.4316,3.4099,3.3815,3.3549,3.3226,3.2852,3.2404,3.202,3.1634,3.1157,3.0716,3.0274,0.0,0.0,0.0,0.0,0.0,0.0,0.0,1.8825,1.8998,1.9196,1.9331,1.9521,1.9839,2.003,2.0176,0.0,0.0,0.0,0.0,0.0,0.0,0.0,0.0,0.0,0.0,0.0,0.0,2.5236,2.5126,0.0,0.0,0.0,0.0,0.0,2.8056,2.856,2.8831,2.9522,2.9972,0.0,0.0,3.0317,0.0,0.0,0.0,0.0,0.0,0.0,3.4264,0.0,3.5099,3.5833,3.5818,3.6888,3.8194,3.8441,3.9563,4.0808,4.1023,4.1097,4.1107,4.1093,4.1092,4.1047,4.0865,4.0297,3.9945,4.0443,3.9935,3.9692,4.056,4.0682,4.0675,4.0779,4.1524,4.2373,4.3202,4.4012,4.4834,4.5684,4.5738,0.0,4.4479,4.3618,4.2739,4.1873,4.0995,4.0466,4.0396,4.0398,4.0379,4.0325,4.0325,3.9905,3.9045,3.8343,3.7484,3.6434,3.5734,3.5264,3.4945,3.4927,3.4811,3.4626,3.4495,3.4221,3.3895,3.3615,3.3238,3.2802,3.237,3.1965,3.1504,3.1004,3.0535,3.0146,0.0,0.0,0.0,0.0,0.0,0.0,0.0,1.8603,1.8771,1.893,1.9048,1.9227,1.9431,1.9743,1.9984,0.0,0.0,0.0,0.0,0.0,0.0,0.0,0.0,0.0,0.0,0.0,0.0,2.5383,2.5369,0.0,0.0,0.0,0.0,0.0,0.0,2.8318,2.9072,2.9216,0.0,0.0,0.0,0.0,0.0,0.0,0.0,0.0,0.0,3.2596,3.3526,3.4311,3.5178,3.588,3.588,3.6537,3.7467,3.8263,3.9169,4.009,4.0873,4.1105,4.1094,4.1094,4.109,4.0884,4.0098,3.9864,3.9609,3.8887,3.8611,3.879,3.9668,3.9818,4.0034,4.0682,4.1524,4.2373,4.3202,4.4059,4.4896,4.5699,0.0,0.0,4.4495,4.3618,4.2739,4.1873,4.0989,4.0476,4.0396,4.0398,4.0398,4.0379,4.0379,3.9957,3.9095,3.8999,3.8175,3.6584,3.6427,3.5938,3.5176,3.4963,3.4851,3.4772,3.4583,3.4293,3.3972,3.3698,3.325,3.2669,3.2335,3.1929,3.1466,3.0965,3.0535,3.0146,0.0,0.0,0.0,0.0,0.0,0.0,1.7956,1.8328,1.845,1.8641,1.8771,1.9075,1.9704,1.9987,2.0275,2.0607,0.0,0.0,0.0,0.0,0.0,0.0,0.0,0.0,0.0,0.0,2.5484,2.5466,2.5456,0.0,0.0,0.0,0.0,0.0,0.0,2.7351,2.7775,2.8822,0.0,0.0,0.0,0.0,0.0,0.0,0.0,0.0,0.0,0.0,3.2636,3.2985,3.4017,3.5185,3.5191,3.5776,3.6651,3.7523,3.8388,3.9261,4.0131,4.039,4.0371,4.0387,4.0342,4.0096,3.9231,3.8599,3.8283,3.8466,3.804,3.8035,3.9446,3.9673,3.9879,4.0682,4.1086,4.1594,4.2396,4.3266,4.4123,4.4979,4.5457,4.5179,4.3813,4.3327,4.2527,4.1123,4.07,4.0492,4.046,4.046,4.046,4.046,4.046,4.0287,3.9941,3.9426,3.8565,3.7394,3.6821,3.6083,3.5209,3.5073,3.4945,3.4773,3.4586,3.4316,3.3972,3.3597,3.3142,3.2636,3.2127,3.162,3.1201,3.0658,3.0172,2.9738,0.0,0.0,0.0,0.0,0.0,1.6219,1.7718,1.8035,1.8184,1.8365,1.8718,1.9188,1.9816,2.0438,2.0971,2.1356,2.1887,0.0,0.0,0.0,0.0,0.0,0.0,0.0,0.0,0.0,2.5421,2.543,2.5437,2.5444,0.0,0.0,2.5468,2.5506,0.0,0.0,0.0,0.0,0.0,0.0,0.0,0.0,0.0,0.0,0.0,0.0,0.0,0.0,0.0,0.0,0.0,3.435,0.0,0.0,0.0,0.0,3.7723,3.8413,3.9277,3.9491,3.9489,3.9481,3.9451,3.9185,3.8311,3.7644,3.7305,3.7631,3.7182,3.7234,3.8963,3.9257,3.9567,4.0621,4.0792,4.1079,4.1893,4.2531,4.3343,4.4452,4.48,4.4484,4.3293,4.2653,4.1816,4.0585,4.0489,4.0489,4.0489,4.0489,4.0489,4.0489,4.0489,4.0489,4.0489,3.9896,3.9035,3.7924,3.729,3.638,3.5242,3.5145,3.5001,3.4773,3.4586,3.4293,3.3921,3.3465,3.3001,3.2537,3.1913,3.1393,3.0902,3.0384,2.9886,2.938,0.0,0.0,0.0,0.0,0.0,0.0,1.7449,1.7772,1.7966,1.8091,1.8918,1.9538,1.9605,2.1088,2.214,2.2275,2.199,0.0,0.0,0.0,0.0,0.0,0.0,0.0,0.0,0.0,2.5236,2.5297,2.5292,2.5335,2.5396,2.5396,2.5401,2.5394,0.0,0.0,0.0,0.0,0.0,0.0,0.0,0.0,0.0,0.0,0.0,0.0,0.0,0.0,0.0,0.0,0.0,0.0,0.0,0.0,0.0,0.0,3.7305,3.7498,3.8377,3.8567,3.8514,3.8514,3.8518,3.8283,3.7414,3.7214,3.6949,3.6013,3.5826,3.6334,3.8016,3.8307,3.8858,4.0529,4.08,4.1079,4.1893,4.2009,4.2634,4.4293,4.3762,4.3177,4.3111,4.154,4.0508,4.0489,4.0489,4.0489,4.0489,4.0489,4.0489,4.0489,4.0489,4.0489,4.0489,4.0489,3.9642,3.8007,3.7913,3.6983,3.5281,3.516,3.5001,3.4773,3.4586,3.4221,3.3762,3.3361,3.2844,3.2249,3.1802,3.1235,3.0651,3.0316,2.9842,2.9243,0.0,0.0,0.0,0.0,0.0,0.0,0.0,1.7455,1.7612,1.7749,1.8614,1.9441,2.0039,2.1079,2.2024,2.2729,2.2973,0.0,0.0,0.0,0.0,0.0,0.0,0.0,0.0,0.0,2.4791,2.4889,2.4943,2.496,2.4995,2.5053,2.5072,2.5052,2.511,2.5283,0.0,0.0,0.0,0.0,0.0,0.0,0.0,0.0,0.0,0.0,0.0,0.0,0.0,0.0,0.0,0.0,0.0,0.0,0.0,3.5357,3.5948,3.6593,3.7426,3.7633,3.7604,3.7613,3.7615,3.7381,3.6501,3.6281,3.6156,3.5854,3.581,3.6308,3.7996,3.8257,3.8786,4.0529,4.0796,4.0868,4.1094,4.1622,4.24,4.3492,4.3331,4.288,4.2255,4.1178,4.0489,4.0489,4.0489,4.0489,4.0489,4.0489,4.0489,4.0489,4.0489,4.0489,4.0489,4.0489,3.9662,3.8007,3.7932,3.7003,3.5289,3.5108,3.4946,3.479,3.4431,3.4074,3.3698,3.3154,3.2601,3.2039,3.147,3.0925,3.0351,2.9913,2.938,2.8826,0.0,0.0,0.0,0.0,0.0,0.0,0.0,1.7167,1.7288,1.7432,1.8572,1.9585,2.0102,2.1182,2.2125,2.2756,2.3067,0.0,0.0,0.0,0.0,0.0,0.0,0.0,0.0,2.4207,2.4293,2.4393,2.4476,2.4501,2.4538,2.4586,2.4615,2.4639,2.4676,2.4742,0.0,0.0,0.0,0.0,0.0,0.0,2.911,0.0,0.0,0.0,0.0,0.0,0.0,0.0,0.0,0.0,0.0,0.0,0.0,0.0,3.5053,3.5646,3.6481,3.6711,3.6703,3.6704,3.6701,3.6567,3.5995,3.5838,3.5788,3.5773,3.5756,3.627,3.7936,3.8225,3.8764,4.0474,4.0771,4.0746,4.0668,4.1117,4.1658,4.2155,4.2437,4.2271,4.1393,4.0816,4.0489,4.0489,4.0489,4.0489,4.0489,4.0489,4.0489,4.0489,4.0489,4.0489,4.0489,4.02,3.9354,3.8007,3.7606,3.668,3.5277,3.5091,3.4908,3.4687,3.434,3.3954,0.0,3.2939,3.2368,3.1823,3.1201,3.0601,3.0054,2.9589,2.9059,2.8573,0.0,0.0,0.0,0.0,0.0,0.0,0.0,1.6892,1.7018,1.7167,1.8742,1.9872,1.9872,2.1305,2.2321,2.2443,0.0,0.0,0.0,0.0,0.0,0.0,0.0,0.0,0.0,2.3699,2.3783,2.3844,2.3909,2.3969,2.4025,2.4025,2.4063,2.4155,2.4136,2.4227,2.4368,2.4489,2.507,2.5879,2.6008,2.7087,0.0,0.0,0.0,0.0,0.0,0.0,0.0,0.0,0.0,0.0,0.0,0.0,0.0,0.0,0.0,0.0,0.0,3.5855,3.5903,3.5885,3.5892,3.5884,3.5799,3.5791,0.0,3.5718,3.5747,3.6288,3.7904,3.8249,3.8813,4.043,4.07,4.0668,4.0607,4.0646,4.067,4.0607,4.1312,4.147,4.0566,4.0489,4.0489,4.0489,4.0489,4.0489,4.0489,4.0489,4.0489,4.0489,4.0431,4.0412,4.0412,3.9662,3.8834,3.7911,3.703,3.6128,3.5277,3.5073,3.4831,3.458,3.4293,3.3831,3.3262,3.2766,3.2197,3.1603,3.0958,3.0284,2.9766,2.938,2.8905,2.8363,0.0,0.0,0.0,0.0,0.0,0.0,0.0,0.0,0.0,0.0,1.8441,1.952,1.952,2.1005,2.2015,0.0,0.0,0.0,0.0,0.0,0.0,0.0,0.0,0.0,0.0,2.3182,2.3236,2.3289,2.3305,2.3315,2.3338,2.3401,2.3446,2.3494,2.3577,2.3723,2.3943,2.408,2.4358,2.4761,2.5495,2.6129,0.0,0.0,0.0,0.0,2.9998,3.0316,0.0,0.0,0.0,0.0,0.0,0.0,0.0,0.0,3.351,3.4579,3.4766,0.0,3.5885,3.585,3.5815,3.5799,0.0,3.5727,3.5718,3.5708,0.0,3.7003,3.8001,3.8704,3.9445,4.0461,4.0621,4.0626,4.0603,4.1131,4.127,4.06,4.1277,4.147,4.0566,4.0489,4.0489,4.0489,4.0489,4.0489,4.0489,4.0489,4.0489,4.0489,3.9892,3.9565,3.9565,3.9392,3.8531,3.7002,3.6727,3.6093,3.5141,3.4945,3.4732,3.4495,3.4074,3.3606,3.3111,3.2588,3.1932,3.1184,3.0757,3.0172,2.9515,2.9013,2.8605,2.8186,0.0,0.0,0.0,0.0,0.0,0.0,0.0,0.0,0.0,0.0,0.0,0.0,0.0,0.0,0.0,0.0,0.0,0.0,0.0,0.0,0.0,0.0,0.0,0.0,2.2685,2.2712,2.2721,2.2799,2.2816,2.2998,2.3328,2.3371,2.3624,2.4051,2.4186,2.4378,2.4581,2.4789,2.4769,2.4681,2.5262,0.0,0.0,0.0,0.0,0.0,2.9351,2.9868,0.0,3.0367,3.0447,3.051,0.0,0.0,0.0,0.0,3.2829,3.3944,3.4342,3.5133,3.5834,3.5773,3.5745,3.5736,3.5659,0.0,0.0,0.0,0.0,3.7293,3.8511,3.911,3.9656,4.0477,4.0598,4.0583,4.0573,4.0927,4.1027,4.0546,4.0912,4.1027,4.0546,4.0489,4.0489,4.0489,4.0489,4.0489,4.0489,4.0489,4.0315,3.995,3.9492,3.9262,3.9296,3.8512,3.7632,3.6699,3.6201,3.5665,3.5089,3.4889,3.4628,3.434,3.3921,3.3437,3.2908,3.2369,3.1714,3.1044,3.051,2.9913,2.9335,2.8842,2.8429,2.8039,0.0,0.0,0.0,0.0,0.0,0.0,0.0,0.0,0.0,0.0,0.0,0.0,0.0,0.0,0.0,0.0,0.0,0.0,0.0,0.0,0.0,0.0,0.0,2.2237,2.2237,2.2321,2.2349,2.2321,2.2479,2.2881,2.3493,2.3612,2.4091,2.4854,2.5108,2.532,2.5464,2.5727,2.5584,2.5163,2.5363,0.0,0.0,0.0,0.0,0.0,0.0,0.0,0.0,3.0035,3.0209,3.0379,3.0455,0.0,0.0,0.0,0.0,0.0,3.3981,3.4942,3.5718,3.5689,3.5689,3.5698,3.5781,0.0,0.0,0.0,0.0,0.0,3.9108,3.9494,0.0,4.0492,4.0573,4.0573,4.0523,4.0489,4.0489,4.0489,4.0489,4.0489,4.0489,4.0489,4.0489,4.0489,4.0489,4.0489,4.0489,4.0373,3.9988,3.9315,3.8962,3.8827,3.8896,3.7425,3.6607,3.6458,3.5602,3.5143,3.5057,3.4849,3.4539,3.4148,3.3788,3.3291,3.2699,3.2127,3.1545,3.0965,3.0258,2.971,2.9213,2.8763,2.8348,2.797,0.0,0.0,0.0,0.0,0.0,0.0,0.0,0.0,0.0,0.0,0.0,0.0,0.0,0.0,0.0,0.0,0.0,0.0,0.0,0.0,0.0,0.0,2.1974,2.2056,2.2056,2.2056,2.2027,2.1986,2.2608,2.2945,2.3031,2.371,2.4236,2.4571,2.4778,2.5011,2.5244,2.5473,2.5646,2.5787,2.5995,0.0,0.0,0.0,0.0,0.0,0.0,0.0,0.0,2.9013,2.9587,3.0324,3.0337,0.0,0.0,0.0,0.0,0.0,3.3102,3.4269,3.5489,3.5581,3.5623,3.5786,3.6453,0.0,0.0,0.0,0.0,0.0,0.0,3.9914,4.0453,4.0504,4.0523,4.0504,4.0489,4.0489,4.0489,4.0489,4.0489,4.0489,4.0489,4.0489,4.0489,4.0489,4.0489,4.0489,4.0489,3.9784,3.9327,3.9211,3.7763,3.6999,3.6999,3.675,3.6205,3.5433,3.5215,3.5018,3.4831,3.4647,3.434,3.3998,3.355,3.3032,3.2419,3.1932,3.1355,3.0733,3.0189,2.9665,2.9075,2.8589,2.8266,2.7905,0.0,0.0,0.0,0.0,0.0,0.0,0.0,0.0,0.0,0.0,0.0,0.0,0.0,0.0,0.0,0.0,0.0,0.0,0.0,0.0,0.0,2.2271,2.2394,2.2438,2.2498,2.2803,2.2972,2.2926,2.3241,2.3556,2.3967,2.4829,2.5363,2.5596,2.5741,2.5994,2.6256,2.6493,2.6503,2.6401,0.0,0.0,0.0,0.0,0.0,0.0,0.0,0.0,0.0,0.0,2.9089,2.9574,3.0046,0.0,0.0,0.0,0.0,0.0,3.2845,3.4068,3.5369,3.5411,3.5817,3.6286,0.0,0.0,0.0,0.0,0.0,0.0,0.0,0.0,4.0479,4.0444,4.0463,4.0463,4.0463,4.0463,4.0463,4.0463,4.0463,4.0463,4.0463,4.0463,4.0463,4.0463,4.0463,4.0252,3.9772,3.9372,3.8722,3.782,3.7022,3.6361,3.5848,3.5835,3.5611,3.5138,3.5035,3.4889,3.4689,3.4476,3.4197,3.3815,3.3284,3.2795,3.23,3.164,3.1083,3.0526,3.0033,2.9486,2.892,2.8381,2.7905,2.7539,0.0,0.0,0.0,0.0,0.0,0.0,0.0,0.0,0.0,0.0,0.0,0.0,0.0,0.0,0.0,0.0,0.0,0.0,0.0,0.0,2.19,2.2685,2.2914,2.306,2.3156,2.3572,2.3786,2.3786,2.3866,2.429,2.5062,2.5779,2.6274,2.6485,2.6623,2.6825,2.7135,2.7355,2.7315,2.7028,0.0,0.0,0.0,0.0,0.0,0.0,0.0,0.0,0.0,0.0,0.0,0.0,0.0,0.0,0.0,3.0152,3.1384,3.2737,3.2747,3.3972,3.5254,3.5254,0.0,0.0,0.0,0.0,0.0,0.0,0.0,0.0,0.0,4.0398,4.0398,4.0398,4.0398,4.0398,4.0398,4.0398,4.0398,4.0398,4.0398,4.0398,4.0398,4.0398,4.0319,4.0109,4.0109,3.9725,3.8862,3.8632,3.7926,3.6607,3.6383,3.5914,3.5176,3.5145,3.5091,3.5053,3.4945,3.4771,3.4539,3.4316,3.3998,3.3569,3.3075,3.2494,3.1882,3.1175,3.0493,2.9889,2.9534,2.9116,2.8685,2.8186,2.764,2.7181,0.0,0.0,0.0,0.0,0.0,0.0,0.0,0.0,0.0,0.0,0.0,0.0,0.0,0.0,0.0,0.0,0.0,0.0,0.0,0.0,2.1696,2.2476,2.3243,2.3737,2.3934,2.3836,2.3753,2.3702,2.4235,2.4987,2.5815,2.5901,2.6115,2.6485,2.6589,2.6792,2.7117,2.7341,2.7491,2.7643,2.7936,0.0,0.0,0.0,0.0,0.0,0.0,0.0,0.0,0.0,0.0,0.0,0.0,0.0,3.0003,3.0003,3.1251,3.2597,3.2597,3.3834,3.511,3.511,3.5876,0.0,3.7635,3.8441,0.0,4.0128,0.0,0.0,0.0,4.0398,4.0398,4.0398,4.0398,4.0398,4.0398,4.0398,4.0398,4.0398,4.0398,4.0398,4.0398,4.0398,4.007,3.9246,3.9188,3.8843,3.8035,3.722,3.6709,3.6506,3.5711,3.524,3.511,3.4964,3.4927,3.4908,3.483,3.4666,3.4386,3.4074,3.3716,3.3321,3.2876,3.1998,3.0802,3.0367,2.9359,2.8183,2.8394,2.84,2.8235,2.8054,2.764,2.7181,0.0,0.0,0.0,0.0,0.0,0.0,0.0,0.0,0.0,0.0,0.0,0.0,0.0,0.0,0.0,0.0,0.0,0.0,0.0,0.0,2.1537,2.2394,2.3209,2.3898,2.4477,2.4816,2.4958,2.4922,2.5123,2.5436,2.5897,2.5897,2.6115,2.6485,2.652,2.6708,2.7055,2.7166,2.7386,2.7659,2.794,2.7976,0.0,0.0,0.0,0.0,0.0,0.0,0.0,0.0,2.6681,2.7765,2.8307,2.9074,2.9822,2.9857,3.112,3.2479,3.2477,3.3692,3.4983,3.4983,3.6045,0.0,0.0,3.8765,3.9834,4.0158,4.0215,0.0,0.0,0.0,4.0272,4.0272,4.0309,4.0346,4.0346,4.0346,4.0346,4.0346,4.0346,4.0346,4.0346,3.9849,3.939,3.9065,3.8529,3.7842,3.7022,3.6661,3.6226,3.564,3.5281,3.5038,3.4983,3.4888,3.479,3.4649,3.4645,3.445,3.4148,3.3895,3.3541,3.3063,3.2154,3.1322,3.0486,2.9495,2.8649,2.7932,2.7969,2.7828,2.762,2.7902,2.764,2.7181,0.0,0.0,0.0,0.0,0.0,0.0,0.0,0.0,0.0,0.0,0.0,0.0,0.0,0.0,0.0,0.0,0.0,0.0,2.0527,2.0794,2.1342,2.2229,2.2863,2.3663,2.4626,2.5114,2.5436,2.5701,2.5621,2.5712,2.5897,2.5897,2.6115,2.6434,2.6485,2.6691,2.6975,2.707,2.7293,2.7587,2.7806,2.8053,0.0,0.0,0.0,0.0,0.0,0.0,0.0,0.0,2.6059,2.712,2.7772,2.8745,2.9645,2.9719,3.096,3.2298,3.2298,3.3526,3.4811,3.4811,0.0,0.0,3.7449,3.8819,4.0057,4.0057,4.0096,4.0117,4.0117,0.0,4.0176,4.0176,4.0215,4.0234,4.0234,4.0234,4.0234,4.0234,3.9986,3.9815,3.9815,3.907,3.844,3.8155,3.76,3.6896,3.6041,3.6002,3.57,3.5076,3.5001,3.4927,3.4831,3.4769,3.4645,3.445,3.4363,3.4197,3.3921,3.3652,3.3164,3.2519,3.152,3.0559,2.9605,2.8589,2.7822,2.7324,2.7347,2.7273,2.7222,2.7811,2.764,2.7181,0.0,0.0,0.0,0.0,0.0,0.0,0.0,0.0,0.0,0.0,0.0,0.0,0.0,0.0,0.0,0.0,0.0,0.0,2.0174,2.0527,2.1077,2.1945,2.2194,2.2937,2.4358,2.4446,2.4895,2.5701,2.5621,2.5712,2.5897,2.5897,2.6026,2.6295,2.6434,2.6657,2.6926,2.7038,2.7261,2.7496,2.7642,2.7864,2.801,0.0,0.0,0.0,0.0,0.0,0.0,0.0,2.5411,2.682,2.6953,2.8147,2.9512,2.9588,3.0789,3.2105,3.2105,3.3325,3.4602,0.0,0.0,0.0,3.7167,3.8653,3.9996,3.9996,4.0057,4.0096,4.0096,4.0096,4.0096,4.0117,4.0117,4.0117,4.0098,4.0098,4.0098,4.0098,3.9298,3.8804,3.8804,3.8061,3.7243,3.6368,3.6291,3.5949,3.5131,3.5092,3.5057,3.4889,3.4908,3.4831,3.4687,3.4623,3.4495,3.4293,3.4099,3.3921,3.3762,3.3379,3.2606,3.1564,3.1075,2.9799,2.7964,2.7561,2.682,2.603,2.6498,2.6826,2.7094,2.7746,2.764,2.7181,0.0,0.0,0.0,0.0,0.0,0.0,0.0,0.0,0.0,0.0,0.0,0.0,0.0,0.0,0.0,0.0,0.0,0.0,1.9854,2.0154,2.0571,2.1077,2.172,2.2303,2.2753,2.3356,2.4317,2.5637,2.5616,2.5637,2.5754,2.5844,2.6007,2.6239,2.6415,2.6606,2.6775,2.6957,2.7152,2.7324,2.7539,2.7719,2.7776,0.0,0.0,0.0,0.0,0.0,0.0,0.0,0.0,0.0,2.7421,2.841,2.9307,2.9368,3.0583,3.1893,3.1893,3.3086,0.0,3.4316,0.0,0.0,0.0,3.8362,0.0,0.0,3.9804,3.9826,3.9889,3.9933,3.9975,4.0017,4.0057,3.9888,3.926,3.9184,3.8975,3.8404,3.8118,3.7966,3.7966,3.7186,3.6577,3.6329,3.5778,3.5322,3.5039,3.4964,3.4946,3.4907,3.4769,3.4668,3.4623,3.4409,3.4245,3.4099,3.386,3.3698,3.3625,3.2748,3.1995,3.1303,2.9791,2.8681,2.7825,2.6631,2.5799,2.5345,2.5822,2.6132,2.6396,2.7063,2.725,2.7181,0.0,0.0,0.0,0.0,0.0,0.0,0.0,0.0,0.0,0.0,0.0,0.0,0.0,0.0,0.0,0.0,0.0,0.0,0.0,1.9803,2.0135,2.0441,2.1054,2.1605,2.2061,2.2833,2.3742,2.4648,2.4996,2.5199,2.5293,2.5713,2.597,2.6115,2.6329,2.6521,2.6674,2.6825,2.7006,2.7213,2.7386,2.7539,2.7678,0.0,0.0,0.0,0.0,0.0,0.0,0.0,0.0,0.0,2.7596,2.8356,2.9067,2.9152,3.0364,3.1644,3.1644,3.2828,0.0,3.4049,3.5118,3.627,3.6656,0.0,0.0,0.0,3.9176,3.9104,3.8852,3.8839,3.8883,3.8965,3.9007,3.8838,3.8307,3.8231,3.806,3.7585,3.7243,3.7053,3.7053,3.6255,3.5742,3.5742,3.5286,3.5002,3.4965,3.4888,3.483,3.4788,3.4666,3.4539,3.445,3.4245,3.3907,3.339,3.3195,3.2865,3.2415,3.2008,3.1244,3.0162,2.8387,2.7436,2.7071,2.5971,2.5301,2.5045,2.5524,2.5823,2.6107,2.6775,2.7085,2.7181,0.0,0.0,0.0,0.0,0.0,0.0,0.0,0.0,0.0,0.0,0.0,0.0,0.0,0.0,0.0,0.0,0.0,0.0,0.0,0.0,1.9722,2.003,2.0357,2.0926,2.1813,2.2585,2.2991,2.2991,2.3922,2.4437,2.4593,2.5419,2.5819,2.5875,2.6156,2.6417,2.6572,2.6674,2.6891,2.7149,2.7181,2.74,2.7672,2.7701,0.0,0.0,0.0,0.0,0.0,0.0,0.0,0.0,2.7585,2.8179,2.8785,2.8923,3.0033,3.1268,3.1341,3.2478,3.3688,3.3762,3.4458,0.0,3.6342,3.7899,3.8945,3.8367,0.0,3.8079,3.7411,3.7279,3.73,3.7383,3.7383,3.7348,3.7275,3.7277,3.7258,3.7182,3.6519,3.6083,3.6083,3.5343,3.4889,3.4889,3.4888,3.4887,3.4887,3.4827,3.4727,3.4602,3.4561,3.4413,3.4086,3.4012,3.343,3.2381,3.222,3.1598,3.0563,3.1049,3.0272,2.8456,2.7013,2.6243,2.5937,2.5567,2.5224,2.5029,2.5446,2.5762,2.6046,2.6652,2.7025,2.7181,0.0,0.0,0.0,0.0,0.0,0.0,0.0,0.0,0.0,0.0,0.0,0.0,0.0,0.0,0.0,0.0,0.0,0.0,0.0,0.0,1.8903,1.9732,2.0185,2.0519,2.0727,2.1054,2.1252,2.132,2.2836,2.3552,2.3619,2.4525,2.501,2.5081,2.5867,2.6258,2.6365,2.659,2.6725,2.6825,2.7085,2.7244,2.7338,2.7612,2.7274,0.0,0.0,0.0,0.0,0.0,0.0,0.0,2.7913,2.8288,2.851,2.8569,2.9334,3.0275,3.0911,3.1801,0.0,0.0,3.4178,3.5154,3.6121,3.6722,3.7071,3.7144,3.7181,3.7216,3.7141,3.7126,3.7171,3.73,3.7322,3.7076,3.6396,3.6302,3.6056,3.5433,3.5206,3.5093,3.5093,3.4923,3.4829,3.4829,3.4809,3.4788,3.4747,3.4666,3.4583,3.445,3.434,3.3905,3.3111,3.2988,3.2405,3.1382,3.121,3.0525,2.9438,2.9568,2.8732,2.7178,2.6657,2.6173,2.5738,2.5492,2.5201,2.4838,2.4858,2.5287,2.5985,2.5998,2.6508,2.7181,0.0,0.0,0.0,0.0,0.0,0.0,0.0,0.0,0.0,0.0,0.0,0.0,0.0,0.0,0.0,0.0,0.0,0.0,0.0,0.0,1.8383,1.953,1.9889,2.015,2.0216,2.0423,2.0543,2.061,2.1521,2.2216,2.274,2.3689,2.4297,2.4694,2.528,2.5785,2.6258,2.6417,2.6538,2.6725,2.6891,2.7053,2.7213,2.74,2.7295,2.7081,2.7197,0.0,0.0,0.0,0.0,0.0,0.0,0.0,2.8119,2.8192,2.8864,2.9727,3.0499,0.0,0.0,3.3028,0.0,3.4141,3.4772,3.4979,3.5101,3.5246,3.5788,3.613,3.5815,3.5787,3.5833,3.5985,3.6007,3.5878,3.5486,3.543,3.526,3.4845,3.4788,3.4788,3.4788,3.4788,3.4788,3.4747,3.4708,3.4666,3.4623,3.4517,3.424,3.3757,3.3603,3.3068,3.209,3.1957,3.1372,3.0324,3.0148,2.9431,2.8268,2.8146,2.7592,2.6674,2.6349,2.603,2.5701,2.5454,2.5123,2.4782,2.4605,2.5164,2.597,2.574,2.6292,2.7181,0.0,0.0,0.0,0.0,0.0,0.0,0.0,0.0,0.0,0.0,0.0,0.0,0.0,0.0,0.0,0.0,0.0,0.0,0.0,0.0,0.0,1.9075,1.9492,1.9747,1.9884,2.0061,2.0235,2.032,2.0407,0.0,0.0,0.0,2.3541,2.4091,2.4563,2.5179,2.595,2.6134,2.6364,2.664,2.6674,2.6858,2.7117,2.7166,2.7324,2.7526,2.7526,2.7569,2.7595,2.7595,0.0,0.0,0.0,0.0,2.773,2.78,2.8364,2.9148,2.9923,0.0,3.1854,3.2764,3.2993,0.0,3.3226,3.3404,3.3502,3.3502,3.4439,3.5027,3.4375,3.4316,3.4404,3.4517,3.4561,3.4545,3.4538,3.4521,3.4484,3.4333,3.4314,3.437,3.4521,3.4408,3.435,3.4419,3.4245,3.4105,3.4039,3.3906,3.3496,3.2757,3.26,3.2047,3.1038,3.0901,3.0315,2.9267,2.9058,2.8398,2.731,2.704,2.6809,2.6537,2.6154,2.5864,2.5626,2.5394,2.51,2.4742,2.458,2.5121,2.597,2.5661,2.6258,2.713,0.0,0.0,0.0,0.0,0.0,0.0,0.0,0.0,0.0,0.0,0.0,0.0,0.0,0.0,0.0,0.0,0.0,0.0,1.4809,0.0,0.0,1.8006,1.8759,1.9288,1.9487,1.9581,1.9747,2.0041,2.0076,0.0,0.0,0.0,0.0,2.2467,2.3897,2.4671,2.4977,2.5832,2.6256,2.631,2.6572,2.6725,2.6791,2.7021,2.7135,2.7181,2.7213,2.7244,2.7276,2.7276,2.7276,0.0,0.0,0.0,2.7465,2.7448,2.7596,2.7932,2.8763,0.0,3.1469,0.0,3.2606,3.2687,0.0,0.0,3.3178,0.0,3.3688,3.412,3.4042,3.4148,3.4245,3.4316,3.4386,3.4207,3.3518,3.3406,3.3163,3.2451,3.2358,3.2639,3.335,3.277,3.2657,3.3347,3.2686,3.2229,3.2162,3.2029,3.1856,3.1624,3.1481,3.0943,3.0005,2.9872,2.9286,2.8269,2.7864,2.7445,2.704,2.6775,2.6555,2.6418,2.6118,2.5791,2.5416,2.5333,2.5045,2.4645,2.4539,2.5121,2.597,2.555,2.6174,2.713,0.0,0.0,0.0,0.0,0.0,0.0,0.0,0.0,0.0,0.0,0.0,0.0,0.0,0.0,0.0,1.2341,1.2685,1.3411,1.4501,1.5466,1.6272,1.6906,1.778,1.8307,1.8528,1.895,1.9325,1.9669,0.0,0.0,0.0,2.0597,2.1217,0.0,0.0,0.0,0.0,2.5036,2.5628,2.6203,2.6364,2.6521,2.6657,2.6842,2.6908,2.699,2.7023,2.7023,2.7023,2.694,2.6923,2.6923,2.6923,0.0,0.0,0.0,2.707,2.7321,2.8243,2.9346,3.0299,0.0,3.097,3.1069,3.11,3.1342,3.1528,3.1528,3.1856,3.2365,3.2983,3.287,3.2704,3.2794,3.2846,3.278,3.2512,3.2478,3.2347,3.2035,3.1976,3.2086,3.2459,3.2139,3.202,3.2352,3.1968,3.1695,3.1644,3.1483,3.1139,3.0625,3.0402,2.9863,2.8981,2.8792,2.8362,2.7707,2.7417,2.7135,2.6808,2.6572,2.6417,2.6293,2.6026,2.5733,2.5378,2.524,2.495,2.4636,2.476,2.5312,2.5969,2.5905,2.6385,2.6989,0.0,0.0,0.0,0.0,0.0,0.0,0.0,0.0,0.0,0.0,0.0,0.0,0.0,0.0,0.0,0.0,1.2341,1.2996,1.4034,1.4436,1.503,1.5855,1.6661,1.7283,1.7746,1.8238,1.8702,0.0,0.0,0.0,1.9493,1.9741,2.0284,0.0,2.1638,2.2582,0.0,0.0,0.0,0.0,2.6101,2.631,2.6503,2.6623,2.6691,2.6792,2.6742,2.6742,2.6742,2.6607,2.6556,2.6556,2.6556,2.6556,0.0,0.0,0.0,0.0,0.0,0.0,2.9059,2.9403,2.9557,2.9658,0.0,0.0,3.011,3.0159,3.0261,3.0578,3.1409,3.1488,3.1434,3.1507,3.1579,3.1598,3.1504,3.1489,3.1436,3.1297,3.1235,3.1266,3.147,3.1259,3.1135,3.1316,3.1057,3.0875,3.0827,3.0604,3.0228,2.9602,2.935,2.8891,2.8219,2.7968,2.7677,2.7296,2.7166,2.7026,2.691,2.6703,2.6507,2.636,2.5979,2.5659,2.5355,2.5146,2.4871,2.4611,2.4983,2.5423,2.5938,2.612,2.6535,2.6899,0.0,0.0,0.0,0.0,0.0,0.0,0.0,0.0,0.0,0.0,0.0,0.0,1.0283,1.0697,1.1105,1.1516,1.1884,1.2377,1.2932,1.3783,1.4387,1.4783,1.5482,0.0,1.7311,1.7366,1.781,0.0,0.0,0.0,1.8936,1.9302,1.9487,1.9677,2.1013,2.178,2.2147,0.0,0.0,0.0,0.0,0.0,0.0,2.645,2.652,2.652,2.6382,2.633,2.633,2.6241,2.6241,2.6241,2.6241,2.6241,2.6241,0.0,0.0,0.0,0.0,2.7629,0.0,2.8682,2.8996,2.9175,0.0,0.0,2.9607,2.9791,2.9376,2.9052,2.9254,3.0323,3.1232,3.1232,3.1341,3.1164,3.0475,3.0365,3.0111,2.9422,2.9285,2.9554,3.0309,2.9614,2.9462,3.0221,2.9454,2.8937,2.8937,2.8688,2.8514,2.8478,2.829,2.8134,2.8014,2.7617,2.7279,2.7007,2.6808,2.6995,2.7437,2.7254,2.7102,2.6896,2.6021,2.5486,2.5294,2.5084,2.4846,2.4611,2.4983,2.5348,2.5753,2.6056,2.6484,2.6727,0.0,0.0,0.0,0.0,0.0,0.0,0.0,0.0,0.0,0.0,0.0,0.0,0.0,1.0312,1.0697,1.1067,1.1653,1.2138,1.2544,1.3044,1.3438,1.3705,1.4505,1.5184,1.5743,1.6136,0.0,0.0,0.0,1.8082,1.85,1.886,1.9101,1.9288,2.0197,2.0976,2.1721,2.2864,0.0,0.0,0.0,0.0,0.0,0.0,2.617,2.617,2.6063,2.6026,2.6026,2.5864,2.5754,2.568,2.568,2.5626,2.5535,2.5535,0.0,0.0,0.0,0.0,0.0,2.6886,2.7097,2.7224,2.7363,2.7555,2.7725,2.7792,2.7799,2.783,2.7936,2.8667,2.9314,2.9411,2.9471,2.9489,2.929,2.9278,2.9192,2.897,2.8887,2.8967,2.9241,2.8949,2.8846,2.9094,2.8775,2.851,2.8484,2.8273,2.8136,2.8136,2.7911,2.7689,2.7509,2.7247,2.7023,2.6808,2.659,2.6768,2.7321,2.7118,2.7153,2.7396,2.6969,2.6222,2.5294,2.4982,2.4992,2.5211,2.5542,2.5939,2.6303,2.6606,2.668,2.6539,0.0,0.0,0.0,0.0,0.0,0.0,0.0,0.0,0.0,0.0,0.0,0.0,0.0,0.0,1.0695,1.1048,1.1454,1.1836,1.2222,1.2473,1.2756,1.3057,1.3581,1.4156,1.4726,1.5122,0.0,0.0,0.0,0.0,0.0,1.8128,1.8508,1.8898,1.945,2.0177,0.0,0.0,0.0,2.3787,0.0,0.0,2.5605,0.0,0.0,2.5828,2.5733,2.5696,2.5659,2.547,2.5301,2.5185,2.5185,2.5091,0.0,0.0,0.0,0.0,2.5301,0.0,0.0,0.0,2.5758,2.5905,2.603,2.6208,2.6401,2.647,2.6674,2.6889,2.7051,2.7426,2.78,2.8146,2.8282,2.8388,2.8518,2.8543,2.8594,2.8651,2.8619,2.8587,2.8587,2.8484,2.8406,2.838,2.8255,2.8174,2.8146,2.794,2.7795,2.7719,2.7509,2.7293,2.7085,2.6925,2.6759,2.6538,2.64,2.6571,2.7059,2.7153,2.7371,2.7655,2.7646,2.6962,2.5839,2.5554,2.557,2.5793,2.6123,2.6371,2.6594,2.6858,2.6712,2.6297,0.0,0.0,0.0,0.0,0.0,0.0,0.0,0.0,0.0,0.9458,0.0,0.0,0.0,0.0,0.0,1.1481,1.1411,1.1501,1.1918,1.21,1.2401,1.2816,1.2862,1.3378,1.4372,0.0,0.0,0.0,0.0,0.0,0.0,0.0,1.772,1.85,1.8827,1.9354,2.0,0.0,2.1786,2.2686,0.0,2.4692,2.5333,0.0,0.0,0.0,2.5355,2.5294,2.5256,2.506,0.0,0.0,0.0,0.0,0.0,0.0,0.0,0.0,0.0,0.0,0.0,0.0,0.0,0.0,2.553,2.5626,2.5758,2.6033,2.6068,2.621,2.659,2.6691,2.6906,2.7624,2.7922,2.8099,2.8174,2.8246,2.8282,2.8362,2.8309,2.8273,2.8273,2.8164,2.8071,2.8071,2.7893,2.7789,2.7789,2.76,2.7386,2.7181,2.7055,2.6925,2.6791,2.6657,2.645,2.6168,2.6184,2.6385,2.6808,2.7421,2.7639,2.7637,2.8001,2.7731,2.7013,2.6792,2.6512,2.6336,2.6682,2.6617,2.6441,2.6703,2.65,2.6056,0.0,0.0,0.0,0.0,0.0,0.0,0.8486,0.8576,0.8795,0.0,0.0,0.0,1.0092,1.0642,1.1183,1.1631,1.1839,1.2088,1.2476,1.2769,1.3089,1.3443,1.3205,1.3299,1.3877,0.0,0.0,0.0,1.4702,1.5306,1.635,1.6715,0.0,0.0,1.8397,1.8745,1.9205,2.0489,0.0,2.2408,2.338,2.4241,0.0,0.0,0.0,0.0,0.0,2.4791,2.4751,2.4549,2.4385,2.4177,0.0,0.0,0.0,0.0,0.0,0.0,2.4078,0.0,0.0,0.0,0.0,0.0,2.4974,2.5075,2.5176,2.5346,2.5589,2.5775,2.5957,2.6156,2.635,2.6674,2.7132,2.7509,2.7659,2.7719,2.7719,2.7748,2.7719,2.7719,2.7719,2.7707,2.7647,2.7587,2.743,2.7338,2.7307,2.7117,2.6956,2.6825,2.6657,2.6556,2.6521,2.6295,2.6134,2.6063,2.586,2.6086,2.6691,2.7235,2.7678,2.7973,2.8582,2.8543,2.8077,2.687,2.6581,2.6855,2.6705,2.6703,2.6806,2.652,2.6258,2.5893,0.0,0.0,0.0,0.0,0.0,0.8047,0.8371,0.8632,0.898,0.0,0.0,0.0,1.0569,1.0853,1.1214,1.1711,1.191,1.2136,1.2542,1.2837,1.314,1.347,1.3385,1.342,1.3718,1.3505,1.3617,1.4224,1.4387,1.4968,1.5991,1.6283,1.6877,0.0,0.0,0.0,0.0,0.0,0.0,0.0,2.2647,0.0,0.0,2.4686,2.4726,0.0,0.0,0.0,2.4302,2.4094,2.3867,0.0,0.0,0.0,0.0,0.0,0.0,0.0,0.0,0.0,0.0,0.0,0.0,0.0,2.4328,2.4477,2.4599,2.4735,2.4989,2.5185,2.5346,2.5481,2.5652,2.5905,2.621,2.6607,2.7036,2.7117,2.7166,2.7166,2.7166,2.7166,2.7166,2.7117,2.7068,2.7036,2.6923,2.6858,2.6758,2.6657,2.6556,2.6487,2.6314,2.6225,2.6189,2.5974,2.5828,2.5754,2.5584,2.5641,2.5942,2.6844,2.7316,2.7567,2.8435,2.8716,2.8431,2.7377,2.7081,2.7349,2.7055,2.6908,2.6846,2.6379,2.5974,2.5591,0.0,0.0,-0.0124,0.0413,0.4568,0.793,0.8245,0.8789,0.9255,0.0,1.0146,1.0667,1.1226,1.1115,1.125,1.178,1.1808,1.1983,1.2443,1.2701,1.2957,1.3264,1.3501,1.3673,1.3813,1.39,1.4049,1.4313,1.4408,1.4823,1.5652,1.5843,1.6434,1.7363,0.0,0.0,0.0,0.0,0.0,2.1395,2.1783,2.2783,0.0,0.0,2.4219,2.4219,2.3967,2.394,2.3882,2.361,2.3392,0.0,0.0,0.0,0.0,0.0,2.2799,0.0,0.0,0.0,0.0,0.0,2.3421,0.0,2.3653,2.3867,2.4036,2.4177,2.4317,2.4467,2.4704,2.4784,2.4902,2.5214,2.5253,2.554,2.6282,2.6488,2.659,2.659,2.659,2.659,2.659,2.6454,2.6386,2.6386,2.635,2.6279,2.6225,2.6225,2.6189,2.6134,2.601,2.5917,2.586,2.5717,2.5551,2.5378,2.5339,2.524,2.5013,2.6283,2.6753,2.6614,2.7782,2.8288,2.8192,2.791,2.779,2.774,2.7452,2.7093,2.6674,2.6218,2.5701,2.5245,0.0,0.0,-0.4012,-0.0155,0.4568,0.793,0.8245,0.8595,0.9005,0.9518,1.0146,1.0624,1.0922,1.1157,1.1463,1.2006,1.2233,1.2512,1.2862,1.3201,1.3537,1.3836,1.3684,1.3728,1.3944,1.3686,1.3604,1.3836,1.3893,1.4409,1.5323,1.5393,1.5982,1.7015,0.0,0.0,0.0,0.0,0.0,2.0684,2.1263,2.2402,2.3681,2.3724,2.3739,2.3696,2.3494,2.3451,2.3363,2.2963,2.2783,2.2692,0.0,0.0,0.0,2.2356,0.0,0.0,0.0,0.0,0.0,0.0,2.2754,0.0,2.3024,2.3201,2.3348,2.348,2.3653,2.3782,2.3852,2.4048,2.4271,2.4354,2.4436,2.4799,2.5561,2.5726,2.5726,2.5726,2.5726,2.5726,2.5726,2.5709,2.5689,2.5689,2.5721,2.5754,2.5754,2.5754,2.5717,2.5717,2.5605,2.5492,2.5492,2.5432,2.5301,2.5185,2.5107,2.5005,2.4854,2.5628,2.5819,2.5638,2.6995,2.7486,2.7311,2.7549,2.7625,2.7575,2.7196,2.6817,2.6351,2.5742,2.5258,2.4821,0.0,0.0,-0.5953,-0.3567,0.2954,0.7888,0.8092,0.8538,0.8933,0.9242,0.9873,1.0453,1.089,1.1353,1.1824,1.2411,1.2672,1.3035,1.3527,1.3581,1.3767,1.4118,1.3914,1.3887,1.4092,1.4049,1.4058,1.4221,1.4382,1.4767,1.5341,1.5471,1.5917,1.6577,0.0,0.0,0.0,0.0,1.9001,2.0215,2.0795,0.0,2.3246,2.3246,2.3246,2.3201,2.3038,2.2859,2.2678,2.2324,2.2184,0.0,2.1902,2.1793,2.1793,2.1793,2.1793,2.1793,0.0,0.0,0.0,2.1996,2.2123,0.0,0.0,2.2159,2.222,2.199,2.2089,2.2217,2.2245,2.2456,2.2622,2.2705,2.2787,2.3016,2.3406,2.4288,2.4902,2.4902,2.4942,2.4965,2.4965,2.502,2.5059,2.5059,2.5091,2.513,2.5208,2.5208,2.5224,2.5301,2.524,2.5162,2.5084,2.506,2.4966,2.4871,2.4831,2.4726,2.4595,2.5222,2.5361,2.5205,2.6108,2.644,2.6344,2.6649,2.6781,2.671,2.6857,2.6553,2.6028,2.5577,2.5077,2.4536,-2.0593,0.0,-0.6793,-0.6759,0.1347,0.7895,0.7955,0.8508,0.8983,0.9136,0.9674,1.0344,1.0973,1.1503,0.0,0.0,1.294,1.3377,1.3863,1.3756,1.387,1.4236,1.4195,1.4137,1.4221,1.4479,1.4576,1.4605,1.4834,1.5108,1.5334,1.557,1.5836,1.61,0.0,0.0,0.0,0.0,0.0,1.9956,0.0,2.1454,2.2754,2.2754,2.2754,2.2768,2.2509,2.2278,2.2044,2.1746,2.1664,2.1602,2.1361,2.1264,0.0,0.0,0.0,0.0,0.0,2.1264,2.1264,2.1361,2.1472,2.1409,0.0,0.0,0.0,2.0542,2.0529,2.0641,2.0711,2.0837,2.092,2.1044,2.1111,2.1137,2.1137,2.2506,2.3557,2.3738,2.3871,2.3989,2.3989,2.421,2.4385,2.441,2.441,2.4492,2.4655,2.4655,2.4751,2.4846,2.4886,2.4806,2.4686,2.4701,2.4645,2.4508,2.4508,2.4426,2.425,2.4787,2.4946,2.4773,2.5228,2.5373,2.5325,2.5654,2.5654,2.559,2.637,2.6326,2.577,2.5356,2.4851,2.4234,-2.0593,-1.3206,0.0,-0.6561,0.138,0.7804,0.8052,0.8481,0.9004,0.9535,0.9919,1.0372,0.0,0.0,0.0,0.0,0.0,1.2995,1.3268,1.3771,1.4062,1.4116,1.4445,1.4502,1.4291,1.4429,1.4424,1.4269,1.4419,1.4605,1.48,1.5062,1.5367,0.0,1.5944,0.0,0.0,0.0,1.8611,0.0,2.0127,2.1033,0.0,2.2278,2.2278,2.2263,2.1983,2.1793,2.1616,2.1375,2.118,2.1082,2.0908,2.0809,2.0709,2.0709,0.0,0.0,2.0709,2.0709,2.0709,2.0709,2.0536,2.0388,2.0321,0.0,1.9905,1.9836,0.0,1.9998,1.9998,0.0,0.0,2.0258,2.0258,2.0258,2.0258,2.0456,2.0869,2.1643,2.2188,2.253,2.253,2.3079,2.3523,2.3681,2.3724,2.3852,2.4147,2.4204,2.4245,2.4385,2.4385,2.4385,2.4359,2.4359,2.4302,2.4162,2.4162,2.412,2.4024,2.4101,2.4003,2.3788,2.4448,2.455,2.43,2.4834,2.4803,2.4582,2.571,2.5879,2.5412,2.4794,2.4234,2.3616,-2.0593,-1.3183,0.0,0.0,0.1496,0.7927,0.8217,0.8705,0.9207,0.9659,1.0094,0.0,0.0,0.0,0.0,0.0,0.0,1.3447,1.3908,1.397,1.4061,1.4301,1.4331,1.4317,1.4294,1.4501,1.448,1.4258,1.4451,1.4504,1.4512,1.4743,1.5017,1.5334,1.5865,0.0,1.7115,0.0,1.8773,0.0,0.0,2.0598,0.0,2.1602,2.1712,2.1616,2.1423,2.1264,2.1104,2.0822,2.0673,2.0623,2.0472,2.0372,0.0,2.0233,0.0,0.0,0.0,2.0169,2.0194,1.9872,1.9811,1.9698,1.9028,1.8821,1.8675,1.8342,0.0,0.0,0.0,0.0,0.0,0.0,1.8559,1.8601,1.8601,1.8601,1.9099,2.0485,2.094,2.1312,2.1787,2.2423,2.2889,2.3054,2.3054,2.3246,2.361,2.3653,2.3739,2.4009,2.4009,2.4051,2.4151,2.4151,2.4109,2.4051,2.4051,2.3967,2.3782,2.3782,2.3653,2.3451,2.3555,2.3538,2.3414,2.3722,2.3688,2.3539,2.4229,2.4503,2.4517,2.4332,2.3826,2.3198,-2.0905,0.0,0.0,0.0,0.1639,0.8121,0.855,0.8971,0.941,0.9904,1.0317,0.0,1.1624,1.2035,0.0,0.0,1.3329,1.3692,1.4172,1.4019,1.4096,1.4449,1.4325,1.427,1.438,1.4586,1.4588,1.4287,1.4591,1.4673,1.4585,1.4873,1.5099,1.5345,0.0,1.6574,1.7135,0.0,1.8846,1.9458,1.9864,2.0169,2.0459,2.097,2.1118,2.1019,2.0885,2.0772,2.061,2.0372,2.022,2.0169,2.008,1.9926,1.9836,0.0,0.0,0.0,1.9483,1.9434,1.9284,1.8931,1.8897,1.8708,1.7888,1.7668,1.7523,1.7109,1.7031,0.0,0.0,0.0,1.7144,1.7144,0.0,1.7227,1.7227,1.7227,1.7739,1.922,1.9639,2.0126,2.1097,2.165,2.2052,2.242,2.2466,2.2663,2.3083,2.3098,2.326,2.361,2.361,2.3653,2.3812,2.3855,2.3855,2.3812,2.3855,2.3754,2.3523,2.3523,2.3392,2.3172,2.2979,2.2844,2.2706,2.2791,2.27,2.2511,2.279,2.2977,2.3107,2.3506,2.3285,2.2689,-2.1684,-1.357,0.0,0.0,0.0,0.8435,0.907,0.9176,0.9552,1.0432,1.0583,0.0,0.0,0.0,0.0,0.0,0.0,1.339,1.3511,1.3932,1.4282,1.451,1.4619,1.4608,1.4505,1.4644,1.4596,1.4281,1.4767,1.4966,1.5008,1.5526,1.5833,1.6014,1.6389,1.7016,1.7788,1.8091,1.8648,1.9396,1.9552,1.9708,1.9901,0.0,2.061,2.061,2.0472,2.0321,2.0182,2.0042,1.9823,1.9604,1.9604,1.9512,1.942,1.942,1.9052,1.8646,1.8646,1.8253,1.7859,1.7835,1.757,1.7252,1.7215,1.6892,1.6534,1.6522,1.6522,1.6522,1.6522,1.6522,1.6522,1.6522,1.6522,0.0,0.0,1.6522,1.6778,1.7487,1.8118,1.8963,2.0327,2.0462,2.0846,2.1752,2.1841,2.2044,2.2601,2.2601,2.2783,2.3127,2.3127,2.3172,2.3319,2.3466,2.3466,2.3319,2.3451,2.3451,2.3319,2.3319,2.3172,2.2889,2.2889,2.2618,2.2231,2.2245,2.193,2.1456,2.18,2.1511,2.1018,2.2134,2.234,2.2051,0.0,0.0,0.0,0.0,0.0,0.0,0.9097,0.963,1.013,1.0569,1.0894,1.1312,0.0,1.2127,1.2313,1.2744,1.3078,1.3468,1.3896,1.4262,1.4591,1.4899,1.4834,1.4818,1.4879,1.4768,1.4592,1.4414,1.467,1.474,1.4682,1.5102,1.5362,1.5569,0.0,1.6782,0.0,0.0,0.0,0.0,0.0,1.9344,1.9436,1.9901,2.0055,2.0055,1.9914,1.9862,1.9772,1.9629,1.946,1.9282,1.8951,1.8675,1.8386,1.8099,1.7832,1.7613,1.7613,1.7568,1.7388,1.6967,1.6878,1.6752,1.6353,1.6134,1.6057,1.6057,1.6057,1.6057,1.6057,1.6057,1.6057,1.6057,1.6057,1.6057,0.0,1.6057,1.6132,1.6349,1.7275,1.8085,1.8655,1.9422,2.0091,2.0685,2.1062,2.152,2.2044,2.2137,2.237,2.2783,2.2904,2.3038,2.3172,2.3319,2.3319,2.3319,2.3363,2.329,2.3157,2.3083,2.2963,2.2812,2.2555,2.2356,2.2184,2.1793,2.1471,2.1095,2.0845,2.0576,2.0372,2.1494,2.1536,2.0811,-2.3495,0.0,0.0,0.0,0.0,0.0,0.9629,1.0168,1.0579,1.0805,1.1181,1.156,1.2058,1.212,1.236,1.2859,1.3147,1.3525,1.3961,1.4261,1.4592,1.4911,1.4804,1.48,1.4925,1.4766,1.4675,1.4506,1.4725,1.4807,1.482,1.5148,1.5473,1.571,0.0,1.6787,1.7068,1.7675,1.8139,0.0,0.0,1.8922,0.0,1.9279,1.95,1.9656,1.95,1.946,1.9356,1.921,1.8972,1.8638,1.8365,1.7972,1.7606,1.7335,1.7012,1.6834,1.6834,1.6728,1.6586,1.6183,1.6192,1.6154,1.5775,1.5691,1.5691,1.5691,1.5691,1.5691,1.5691,1.5691,1.5691,1.5691,1.5691,1.5691,0.0,1.5691,1.5691,1.5691,1.6483,1.7181,1.7492,1.8435,1.9265,1.9869,2.0456,2.097,2.1471,2.1712,2.1996,2.237,2.254,2.2723,2.2918,2.3083,2.3142,2.3112,2.3201,2.3157,2.3007,2.2888,2.2797,2.2644,2.2338,2.2137,2.1949,2.152,2.1131,2.0723,2.0169,1.9763,1.96,2.0579,2.0465,1.9553,-2.4417,-1.4881,0.0,0.0,0.2708,0.0,0.0,1.0611,1.0784,1.1267,1.1498,1.1747,1.2058,1.2243,1.2508,1.306,1.3236,1.3445,1.3784,1.4032,1.4313,1.4586,1.4635,1.4595,1.4621,1.4738,1.4637,1.4506,1.4793,1.5137,1.5352,1.57,1.6066,0.0,1.6648,0.0,1.7278,1.7545,1.7755,1.7909,1.8247,1.8464,1.856,1.856,1.8881,1.9316,1.9186,1.9093,1.8934,1.8815,1.8312,1.7784,1.7725,1.7396,1.7008,1.6985,1.6632,1.6256,1.6256,1.5868,1.5468,1.5468,1.5468,1.5468,1.5468,1.5468,1.5468,1.5468,1.5468,1.5468,1.5468,1.5468,1.5468,1.5468,1.5468,1.5468,1.5468,1.5468,1.5468,1.5468,1.578,1.6227,1.6864,1.7594,1.8344,1.9262,1.9986,2.0523,2.0934,2.1229,2.1554,2.1949,2.2137,2.2324,2.2555,2.2768,2.2828,2.2795,2.2962,2.2962,2.2809,2.2764,2.2644,2.237,2.2231,2.1949,2.1568,2.1277,2.0822,2.0321,1.9759,1.9081,1.8526,1.9368,1.9119,1.8267,-2.7047,-1.6867,-0.4917,0.0,0.8805,1.0415,1.0576,1.1038,1.1403,1.1483,1.1809,1.2058,1.2243,1.2305,1.2508,1.306,1.3379,1.3741,1.4231,1.4514,1.48,1.5063,1.4822,1.4706,1.4815,1.4448,1.4292,1.4382,1.4565,1.4647,1.4765,0.0,0.0,0.0,0.0,1.641,1.6658,1.6931,1.7256,1.7634,1.7909,1.8073,1.8073,1.8193,1.8302,1.8464,1.8667,1.8721,1.8661,1.8177,1.7798,1.7347,1.6634,1.6164,1.5847,1.5495,1.5301,1.521,1.521,1.5097,1.5006,1.5006,1.5006,1.5006,1.5006,1.5006,1.5006,1.5006,1.5006,1.5006,1.5006,1.5006,1.5006,0.0,0.0,1.5006,1.5006,1.5006,1.5006,1.5006,1.521,1.5527,1.5972,1.6977,1.7763,1.8163,1.9309,2.0118,2.0523,2.0809,2.1153,2.1568,2.1793,2.2044,2.2324,2.2449,2.2555,2.2661,2.2706,2.2706,2.2615,2.2431,2.2338,2.2231,2.1793,2.1471,2.1277,2.0772,2.0271,1.9759,1.9056,1.8146,1.7313,1.7764,1.7567,1.6911,-2.8062,-1.7271,0.0,0.988,0.0,1.1799,1.1326,1.1567,1.1809,1.1809,1.2058,1.2243,1.2305,1.2367,1.264,1.306,1.3394,1.3803,1.4231,1.4592,1.4864,1.507,1.489,1.478,1.483,1.4547,1.4298,1.4147,1.4241,1.4351,1.4359,0.0,0.0,0.0,0.0,1.5941,1.6181,1.6581,1.6909,1.7301,1.7534,1.7689,0.0,1.7865,1.7931,1.7897,1.7886,1.7966,1.7919,1.7578,1.7082,1.6462,1.5893,1.5479,1.5124,1.4866,1.4776,1.473,1.473,1.4684,1.4627,1.4627,1.4627,1.4627,1.4627,1.4673,1.473,1.473,1.4776,1.4787,1.4787,1.4787,1.4787,0.0,0.0,1.4787,1.4787,1.4787,1.4787,1.4787,1.4903,1.5085,1.5267,1.648,1.7375,1.7581,1.8832,1.9695,2.0118,2.0409,2.0709,2.1104,2.141,2.1664,2.1949,2.2137,2.2278,2.2324,2.2417,2.237,2.2324,2.2137,2.1996,2.1902,2.1423,2.1131,2.0871,2.0321,1.9759,1.9121,1.7961,1.68,1.582,1.5861,1.5937,1.5833,-2.7481,-1.6619,0.0,0.0,0.0,1.3525,1.2594,1.2336,1.2251,1.2251,1.2336,1.2367,1.2367,1.256,1.2765,1.3124,1.3419,1.3755,1.4085,1.4403,1.4665,1.4864,1.4864,1.4798,1.4629,1.464,1.443,1.403,1.4072,1.4108,1.4201,0.0,0.0,0.0,0.0,0.0,0.0,1.6343,1.6684,1.6965,1.7145,1.7267,1.7412,1.7534,1.7556,1.7445,1.7011,1.7025,1.7119,1.6868,1.6199,1.5423,1.5367,1.5054,1.4695,1.4695,1.4592,1.4534,1.4534,1.443,1.4337,1.4337,1.4337,1.4337,1.4337,1.443,1.4534,1.4534,1.4592,1.4695,1.4695,1.4695,1.4695,0.0,1.473,1.473,1.473,1.473,1.473,1.473,1.4776,0.0,1.4776,1.6086,1.7081,1.7265,1.8488,1.9331,1.9695,1.9965,2.0321,2.0709,2.097,2.1277,2.152,2.1746,2.1902,2.1949,2.2044,2.2044,2.1949,2.1746,2.1602,2.1458,2.1033,2.0723,2.0409,1.9695,1.9016,1.8244,1.6687,1.5391,1.4276,1.3984,1.4235,1.461,-2.4229,0.0,0.0,0.0,0.0,1.4467,1.4275,1.3605,1.3171,1.3171,1.2975,1.2858,1.2858,1.2928,1.3067,1.349,1.3388,1.3639,1.4292,1.4242,1.4339,1.4625,1.4577,1.4474,1.4482,1.4268,1.4191,1.4062,1.3932,1.3924,1.4115,1.41,0.0,0.0,0.0,0.0,1.5526,1.5874,0.0,1.6545,1.6637,1.6807,1.692,1.6931,1.674,1.6375,1.6299,1.6589,1.689,1.607,1.5481,1.5077,1.4719,1.4403,1.4161,1.4161,1.4114,1.4114,1.4114,1.4114,1.4067,1.4067,1.4067,1.4067,1.4067,1.4114,1.4114,1.4114,1.4114,1.4161,1.4161,1.4161,1.4161,1.4161,1.4244,1.4326,1.4326,1.4373,1.4477,1.4477,1.4581,1.4627,1.4627,1.5904,1.6746,1.6807,1.8191,1.9081,1.9291,1.9643,2.0016,2.0271,2.0573,2.0822,2.1082,2.1277,2.1423,2.152,2.152,2.152,2.152,2.1229,2.1068,2.0894,2.0396,1.994,1.9527,1.8833,1.7677,1.6234,1.5216,1.4282,1.3432,1.287,1.2461,1.2218,-2.3418,0.0,0.0,0.0,0.956,1.5504,1.5504,1.4884,1.4187,1.3802,1.345,1.3277,1.3277,1.3216,1.3222,1.3459,1.3471,1.3615,1.4077,1.4219,1.4345,1.4482,1.4425,1.4353,1.4281,1.4182,1.4018,1.3917,1.3977,1.3884,1.3722,1.3842,1.3952,1.3992,0.0,1.4834,0.0,0.0,1.5768,1.6019,1.6239,1.641,1.6602,1.6637,1.6454,1.6073,1.5829,1.5782,1.5705,1.5236,1.4833,1.4499,1.4273,1.4104,1.3973,1.3915,1.3868,1.3773,1.3716,1.3621,1.3573,1.3573,1.3573,1.3573,1.3573,1.3621,1.3716,1.3773,1.3868,1.3915,1.3973,1.402,1.402,1.402,1.4057,1.4093,1.4093,1.415,1.4244,1.428,1.4373,1.4529,1.484,1.5758,1.6446,1.6658,1.7839,1.8679,1.8999,1.9251,1.95,1.9772,2.0131,2.0372,2.0586,2.0772,2.0921,2.097,2.097,2.097,2.0871,2.061,2.0359,2.0156,1.9567,1.9097,1.862,1.7457,1.6213,1.4914,1.4034,1.3183,1.2282,1.158,1.1095,1.0842,0.0,-1.7532,0.0,0.0,0.6456,1.368,1.368,1.4692,1.5129,1.4447,1.3925,1.3631,1.3631,1.3511,1.345,1.339,1.3538,1.3611,1.3778,1.4077,1.4303,1.43,1.4314,1.4209,1.4065,1.4065,1.3943,1.3831,1.3948,1.3771,1.3437,1.3671,1.3685,1.3631,0.0,1.4538,1.4911,1.5128,1.5362,1.5614,1.5826,1.6066,1.6249,1.6306,1.6085,1.5732,1.5258,1.4784,1.4384,1.4384,1.4152,1.3915,1.3915,1.3868,1.3821,1.3716,1.3621,1.3515,1.3372,1.3266,1.3218,1.3218,1.3218,1.3218,1.3218,1.3266,1.3372,1.3515,1.3621,1.3716,1.3821,1.3868,1.3868,1.3868,1.3915,1.3973,1.3973,1.3973,1.4099,1.4279,1.429,1.4531,1.5115,1.5684,1.6225,1.6655,1.7527,1.8247,1.8637,1.8839,1.904,1.9263,1.9681,1.9939,2.0029,2.0321,2.0409,2.0409,2.0409,2.0308,2.0169,1.9837,1.9579,1.9239,1.8608,1.795,1.7291,1.5938,1.4728,1.3726,1.294,1.2012,1.108,1.0458,0.9951,0.9794,0.0,0.0,0.0,-2.0066,-0.6003,0.5216,0.5216,1.1433,1.5863,1.5201,1.4409,1.395,1.395,1.3941,1.389,1.3761,1.3606,1.354,1.3603,1.3762,1.385,1.3855,1.4032,1.4065,1.3863,1.3863,1.3848,1.3818,1.3651,1.3608,1.3754,1.3644,1.377,1.4024,1.3926,1.4121,1.4529,1.4588,1.4834,1.5274,1.542,1.5594,1.5748,1.5507,1.5117,1.4661,1.4216,1.376,1.3326,1.3326,1.345,1.3621,1.3621,1.3467,1.3266,1.3266,1.3266,1.3218,1.3218,1.3218,1.3218,1.3218,1.3218,1.3218,1.3218,1.3218,1.3218,1.3218,1.3266,1.3266,1.3266,1.3362,1.3467,1.3467,1.3668,1.3821,1.3821,1.3915,1.418,1.4605,1.4658,1.485,1.5329,1.5945,1.6363,1.6512,1.7375,1.7963,1.8139,1.8464,1.8679,1.8851,1.9263,1.9473,1.9473,1.9759,1.9811,1.9708,1.9708,1.9552,1.9279,1.8992,1.862,1.8201,1.7468,1.6327,1.4953,1.4186,1.3347,1.2389,1.1703,1.0892,1.0078,0.939,0.8986,0.8706,-3.5321,-2.8309,-2.2286,-2.2245,-1.2048,-0.388,-0.388,0.3009,0.8111,0.7852,1.1794,1.4616,1.4616,1.4419,1.43,1.424,1.3881,1.3682,1.3743,1.3852,1.3878,1.3615,1.3953,1.392,1.3419,1.3419,1.3346,1.3273,1.3288,1.3341,1.3289,1.337,1.3423,1.3443,1.3498,1.3631,1.3923,1.4112,1.4419,1.4775,1.4951,1.5137,1.5391,1.512,1.473,1.439,1.4043,1.36,1.3218,1.3218,1.3266,1.3362,1.3362,1.3228,1.3094,1.3055,1.2958,1.29,1.2803,1.2803,1.2803,1.2803,1.2803,1.2803,1.2803,1.2852,1.29,1.3007,1.3132,1.3218,1.3218,1.3266,1.3266,1.3266,1.342,1.3666,1.3944,1.4084,1.4359,1.4942,1.4995,1.5225,1.5797,1.6052,1.6331,1.6665,1.7302,1.7689,1.7865,1.8073,1.8182,1.8236,1.856,1.8709,1.8709,1.8975,1.8975,1.8815,1.8815,1.8578,1.8124,1.7786,1.7113,1.6156,1.5467,1.4532,1.3468,1.2801,1.2004,1.1142,1.0395,0.9703,0.9,0.8366,0.7981,0.7723,-3.532,-3.0327,-2.6068,-2.6032,-1.8783,-1.2927,-1.2911,-0.5717,-0.0286,-0.0286,0.6817,1.2677,1.4758,1.4784,1.4597,1.4529,1.4181,1.3935,1.3709,1.3988,1.3972,1.3485,1.3836,1.3775,1.32,1.3119,1.3046,1.29,1.3046,1.3078,1.2998,1.3027,1.3097,1.3081,1.3062,1.3216,1.339,1.37,1.4001,1.43,1.4478,1.465,1.4801,1.4542,1.4218,1.3896,1.3609,1.3303,1.2987,1.2987,1.2987,1.3035,1.3084,1.2997,1.2813,1.2774,1.2686,1.2578,1.248,1.2421,1.2372,1.2421,1.2431,1.2421,1.248,1.2578,1.2686,1.2783,1.291,1.3035,1.3035,1.3132,1.318,1.318,1.3387,1.3638,1.4012,1.4216,1.4574,1.5195,1.5247,1.5487,1.6111,1.6208,1.639,1.6729,1.7088,1.7368,1.7479,1.7579,1.7623,1.7689,1.7952,1.8061,1.8061,1.817,1.817,1.7897,1.782,1.7468,1.6834,1.6317,1.5332,1.4049,1.3459,1.2679,1.1881,1.126,1.0564,0.9748,0.9064,0.849,0.7967,0.7391,0.7087,0.6903,-3.5312,-3.5168,-3.5024,-3.5024,-2.7682,-2.1698,-2.1658,-1.3758,-0.7776,-0.7772,-0.0626,0.7137,1.4225,1.497,1.4852,1.4529,1.4469,1.4231,1.3571,1.3975,1.3999,1.3349,1.3651,1.3645,1.32,1.3046,1.29,1.29,1.29,1.2893,1.2879,1.2618,1.2796,1.3302,1.2806,1.2744,1.3042,1.3329,1.364,1.383,1.413,1.4073,1.3902,1.3626,1.3368,1.3039,1.2681,1.2529,1.2529,1.2529,1.2529,1.2529,1.2832,1.2725,1.2529,1.2529,1.2431,1.2274,1.2274,1.2224,1.2126,1.2283,1.2274,1.2323,1.248,1.248,1.248,1.248,1.2627,1.2735,1.2735,1.2929,1.3085,1.3085,1.3541,1.3922,1.3882,1.4242,1.4727,1.5314,1.542,1.5669,1.6322,1.6524,1.6627,1.657,1.6751,1.6864,1.7011,1.7011,1.7067,1.719,1.7412,1.7523,1.7523,1.7446,1.7279,1.7011,1.6687,1.6224,1.5603,1.4296,1.321,1.2212,1.1494,1.0766,1.0015,0.943,0.8849,0.821,0.7832,0.7381,0.6859,0.6548,0.635,0.6199,-3.5226,-3.5209,-3.5209,-3.5209,-3.2845,-3.0758,-3.0139,-2.2605,-1.6751,-1.6149,-0.8794,-0.0736,0.6896,1.2214,1.5245,1.5118,1.4765,1.4291,1.3881,1.3919,1.3737,1.3333,1.3431,1.3336,1.2966,1.2673,1.2452,1.2298,1.215,1.2231,1.2512,1.2333,1.2451,1.2699,1.2228,1.2305,1.2744,1.2858,1.3094,1.3433,1.3423,1.3374,1.3363,1.2969,1.2782,1.266,1.2323,1.2224,1.2224,1.2224,1.2175,1.2126,1.2175,1.2224,1.2224,1.2126,1.1977,1.1877,1.1877,1.1877,1.1828,1.1877,1.1877,1.1877,1.1927,1.2076,1.2274,1.248,1.2529,1.2578,1.2578,1.2735,1.2832,1.2832,1.3332,1.388,1.4188,1.465,1.5144,1.5699,1.5749,1.5857,1.6171,1.6228,1.6296,1.642,1.6488,1.6658,1.6864,1.6864,1.6864,1.6797,1.6853,1.6797,1.656,1.6436,1.6151,1.5748,1.5429,1.465,1.3459,1.2366,1.1439,1.0627,0.9996,0.9302,0.8603,0.8081,0.7497,0.6915,0.6593,0.6268,0.5943,0.5617,0.5488,0.5463,-3.5209,-3.5209,-3.5209,-3.5209,-3.5196,-3.4895,-3.4001,-2.907,-2.5129,-2.4265,-1.6737,-0.9607,-0.4763,0.5057,1.241,1.5187,1.501,1.4538,1.413,1.3932,1.3743,1.3392,1.3255,1.3091,1.2893,1.2452,1.2157,1.2003,1.1781,1.1803,1.2058,1.1922,1.1981,1.2054,1.1787,1.1934,1.2251,1.2436,1.2594,1.2802,1.2772,1.2685,1.2556,1.2334,1.2209,1.21,1.2009,1.1927,1.1927,1.1927,1.1877,1.1828,1.1728,1.1719,1.1769,1.1778,1.1669,1.1528,1.1477,1.1427,1.1427,1.1528,1.1528,1.1578,1.1678,1.1828,1.2026,1.2224,1.2323,1.2382,1.2431,1.2529,1.2627,1.2627,1.3268,1.39,1.4228,1.4824,1.5422,1.5768,1.5798,1.5904,1.6009,1.6009,1.6077,1.6202,1.6202,1.6316,1.6477,1.6524,1.6467,1.6353,1.6296,1.6124,1.5826,1.5584,1.5225,1.4746,1.3888,1.2846,1.1516,1.0571,0.9748,0.8994,0.8415,0.7762,0.7051,0.6662,0.6203,0.5675,0.5481,0.5282,0.5084,0.4885,0.4821,0.4928,-3.5209,-3.5209,-3.5209,-3.5209,-3.5215,-3.4859,-3.3855,-3.3023,-3.2155,-3.1231,-2.4154,-1.8982,-1.8457,-0.5649,0.6054,1.3978,1.5013,1.4911,1.4249,1.4092,1.3838,1.3518,1.3156,1.292,1.2893,1.2298,1.1929,1.1929,1.1687,1.1621,1.1501,1.1405,1.1317,1.1311,1.1453,1.156,1.1622,1.2058,1.2163,1.196,1.218,1.1987,1.1576,1.1701,1.1636,1.1469,1.1628,1.1628,1.1628,1.1628,1.1628,1.1628,1.1368,1.1267,1.1326,1.1427,1.1377,1.1226,1.1124,1.1023,1.0972,1.1226,1.1276,1.1368,1.1619,1.1678,1.1728,1.1877,1.1977,1.2126,1.2234,1.2382,1.248,1.248,1.3336,1.399,1.399,1.4827,1.5478,1.5672,1.5672,1.573,1.5856,1.5914,1.5914,1.5914,1.5914,1.5914,1.5914,1.6009,1.6009,1.5856,1.573,1.5546,1.5294,1.4893,1.4341,1.3786,1.2189,1.0892,0.9888,0.8988,0.8091,0.7256,0.6802,0.621,0.5484,0.5359,0.5027,0.4558,0.4558,0.4422,0.4287,0.4287,0.4356,0.4596,-3.5209,-3.5209,-3.5209,-3.5209,-3.5162,-3.4615,-3.3113,-3.2627,-3.1876,-3.0416,-2.8444,-2.4928,-1.9041,-1.5155,-0.7573,0.5926,1.2159,1.5128,1.4597,1.415,1.3822,1.3751,1.2991,1.2613,1.2659,1.2077,1.1558,1.1111,1.0985,1.0924,1.0929,1.0797,1.0863,1.1048,1.088,1.1059,1.1373,1.1622,1.1676,1.1464,1.1495,1.1368,1.1124,1.1006,1.0996,1.1074,1.1074,1.1074,1.1074,1.1074,1.1074,1.1074,1.1023,1.0972,1.1023,1.1023,1.1023,1.0972,1.0972,1.0922,1.0922,1.0972,1.1074,1.1167,1.1377,1.1469,1.1578,1.1728,1.1877,1.1977,1.1977,1.2175,1.2332,1.2332,1.3162,1.3809,1.399,1.4723,1.5313,1.5478,1.5478,1.5546,1.573,1.574,1.5798,1.5914,1.5914,1.5856,1.573,1.5788,1.572,1.5536,1.5478,1.5128,1.4478,1.4181,1.3329,1.1911,1.078,0.9697,0.8807,0.7767,0.692,0.6203,0.5679,0.5153,0.4619,0.4425,0.4225,0.3959,0.3959,0.3959,0.3889,0.3889,0.3959,0.4056,-3.5209,-3.5209,-3.5193,-3.5196,-3.5145,-3.4522,-3.2811,-3.2477,-3.18,-3.0116,-2.9907,-2.8295,-2.4111,-2.0482,-1.5021,-0.675,0.3938,1.1556,1.4632,1.4249,1.3785,1.3591,1.2755,1.2255,1.2182,1.1546,1.09,1.0327,1.0331,1.0202,1.0142,1.0202,1.0265,1.0322,1.05,1.0744,1.0989,1.1091,1.103,1.0814,1.0775,1.0615,1.0469,1.049,1.0573,1.0616,1.0718,1.0718,1.0718,1.0718,1.0718,1.0726,1.0675,1.0624,1.0616,1.0514,1.0616,1.0667,1.0514,1.0514,1.0514,1.0667,1.0871,1.1023,1.1175,1.1276,1.1368,1.1578,1.1678,1.1769,1.1877,1.2026,1.219,1.2415,1.3137,1.3723,1.3976,1.4678,1.5147,1.5196,1.5254,1.5371,1.5439,1.5556,1.5604,1.5662,1.5662,1.5662,1.5546,1.5546,1.5488,1.5313,1.5186,1.4765,1.413,1.3277,1.2228,1.0926,0.9831,0.8871,0.8037,0.6929,0.6079,0.5352,0.4957,0.4428,0.3959,0.3828,0.3696,0.3493,0.3493,0.3493,0.3493,0.3493,0.3587,0.3783,-3.5209,-3.5209,-3.5193,-3.52,-3.5147,-3.4504,-3.276,-3.2441,-3.18,-3.0116,-2.9893,-2.9895,-2.9895,-2.3988,-1.962,-1.8551,-0.5698,0.5484,1.278,1.3711,1.3821,1.3324,1.2554,1.1984,1.1696,1.088,1.0263,0.9712,0.9672,0.9542,0.9321,0.9626,0.9682,0.9518,1.0168,1.0471,1.0481,1.0465,1.0328,1.0144,1.0048,0.9914,0.9792,1.0058,1.0213,1.0265,1.0368,1.0419,1.0419,1.0419,1.0419,1.0419,1.0265,1.0265,1.0213,0.9999,1.0154,1.0308,1.0051,0.9999,1.0102,1.0368,1.0667,1.0871,1.1023,1.1074,1.1175,1.1368,1.1469,1.1578,1.1778,1.1922,1.2117,1.2608,1.3183,1.3672,1.4063,1.4589,1.497,1.497,1.5098,1.5156,1.5156,1.5313,1.5362,1.5362,1.541,1.541,1.541,1.541,1.5303,1.5156,1.4843,1.4419,1.383,1.2482,1.1303,1.0421,0.925,0.8291,0.7391,0.6346,0.5491,0.4764,0.4431,0.3966,0.3498,0.3498,0.3362,0.3226,0.3226,0.3226,0.3226,0.3226,0.3351,0.358,-3.5209,-3.5209,-3.5193,-3.52,-3.5147,-3.4504,-3.276,-3.2441,-3.1801,-3.012,-2.9912,-2.9878,-2.9825,-2.8781,-2.5447,-1.8907,-1.0469,-0.2413,0.4882,1.0816,1.3813,1.3482,1.2546,1.1852,1.1485,1.0471,0.9712,0.9351,0.9286,0.9096,0.8991,0.9111,0.9245,0.9518,0.9646,0.9718,0.9826,0.9964,0.9748,0.941,0.9535,0.9545,0.9465,0.9517,0.9681,0.9903,0.9903,1.0007,1.0102,1.0102,1.0102,1.0051,1.0051,0.9947,0.9844,0.9725,0.9621,0.9629,0.9947,0.9999,1.0051,1.0265,1.047,1.0624,1.0718,1.0922,1.1124,1.1175,1.1326,1.1519,1.1569,1.2037,1.2434,1.2498,1.325,1.3922,1.41,1.4464,1.4834,1.497,1.5029,1.5029,1.5029,1.5147,1.5205,1.5205,1.5362,1.541,1.541,1.541,1.5303,1.5039,1.4843,1.4172,1.2989,1.212,1.1108,1.0085,0.9122,0.8161,0.7199,0.6284,0.5491,0.4764,0.4295,0.383,0.3498,0.3295,0.3228,0.3226,0.3226,0.3226,0.3226,0.3226,0.3285,0.3445,-3.5209,-3.5212,-3.5198,-3.5147,-3.5092,-3.4621,-3.3333,-3.2728,-3.1954,-3.0707,-3.0107,-2.9789,-2.9754,-2.9771,-2.8353,-2.4798,-1.7678,-1.027,-0.2983,0.7913,1.3839,1.3256,1.2271,1.1196,1.0157,0.9438,0.8902,0.8627,0.8522,0.8469,0.8403,0.8625,0.8829,0.8952,0.9268,0.9379,0.9377,0.9408,0.9221,0.8997,0.9004,0.9025,0.9061,0.9159,0.9323,0.948,0.948,0.9532,0.9577,0.9577,0.9577,0.9577,0.9577,0.9524,0.948,0.9413,0.9413,0.9465,0.9621,0.9792,0.9903,1.0007,1.0213,1.0419,1.0573,1.0718,1.0922,1.1074,1.1226,1.1387,1.1696,1.2026,1.2396,1.2877,1.3363,1.3802,1.4136,1.4378,1.4556,1.4684,1.4793,1.4843,1.4843,1.497,1.5088,1.5088,1.5205,1.5313,1.5313,1.5362,1.5303,1.5088,1.4547,1.3761,1.2928,1.212,1.1303,1.0415,0.939,0.8431,0.7596,0.6613,0.5756,0.5096,0.4561,0.4095,0.3763,0.356,0.3426,0.3362,0.3362,0.3295,0.3232,0.3283,0.3358,0.345,-3.5193,-3.5198,-3.5164,-3.5092,-3.502,-3.4698,-3.3809,-3.3109,-3.2278,-3.122,-3.045,-2.9925,-2.9718,-2.9699,-2.9717,-2.9789,-2.2929,-1.549,-0.819,0.4357,1.1908,1.2923,1.1787,1.0478,0.9017,0.8635,0.8247,0.7852,0.7852,0.7852,0.7917,0.8187,0.8382,0.8441,0.8832,0.8976,0.8835,0.8757,0.8657,0.8557,0.8451,0.8527,0.8699,0.8798,0.8949,0.9054,0.9054,0.9054,0.9113,0.9113,0.9113,0.9113,0.9113,0.9106,0.9054,0.9054,0.9159,0.9256,0.9361,0.9524,0.9688,0.974,0.9947,1.0213,1.0419,1.0573,1.0718,1.0972,1.1074,1.1285,1.1825,1.2016,1.241,1.3213,1.3455,1.3682,1.4163,1.4207,1.4267,1.4387,1.4488,1.4597,1.4597,1.4784,1.4911,1.4911,1.5088,1.5156,1.5215,1.5313,1.5313,1.5215,1.4369,1.3649,1.3103,1.2359,1.1615,1.0933,0.9843,0.8952,0.8177,0.7199,0.6346,0.569,0.509,0.4558,0.4161,0.3959,0.3828,0.3632,0.3563,0.3496,0.337,0.3468,0.3564,0.3657,-3.5198,-3.52,-3.5147,-3.502,-3.5001,-3.468,-3.3753,-3.3545,-3.2902,-3.1224,-3.0941,-3.0603,-2.9795,-2.97,-2.9717,-2.9789,-2.2929,-1.549,-0.819,-0.068,0.6236,1.2538,1.1101,0.9786,0.9017,0.8495,0.7977,0.7521,0.7521,0.7521,0.7521,0.7661,0.7922,0.8226,0.8269,0.8221,0.8097,0.8023,0.7999,0.7979,0.7961,0.8162,0.8421,0.8427,0.8527,0.8626,0.8626,0.8745,0.8804,0.8804,0.8804,0.8804,0.8804,0.8745,0.8626,0.8626,0.8738,0.891,0.9159,0.9309,0.9465,0.9569,0.9732,0.9903,1.0265,1.0419,1.0573,1.0718,1.0922,1.1183,1.1562,1.2124,1.2715,1.3142,1.3617,1.3983,1.401,1.401,1.401,1.401,1.4198,1.4327,1.4327,1.4547,1.4715,1.4715,1.4902,1.5098,1.5215,1.5215,1.5215,1.5215,1.4547,1.3881,1.3268,1.2728,1.205,1.124,1.0528,0.9773,0.8888,0.8037,0.7256,0.6544,0.5815,0.5223,0.4697,0.4422,0.4156,0.3961,0.3825,0.3758,0.377,0.3809,0.3914,0.4092,-3.52,-3.5129,-3.5057,-3.5001,-3.4965,-3.4832,-3.4452,-3.3903,-3.3296,-3.2577,-3.1541,-3.0733,-3.0355,-2.9907,-2.9664,-2.9717,-2.7213,-2.0518,-0.8497,-0.567,0.0384,1.1193,1.0408,0.9332,0.8495,0.8042,0.7526,0.7138,0.7138,0.7138,0.7138,0.7335,0.7526,0.7772,0.7744,0.7711,0.7666,0.76,0.7589,0.7526,0.7634,0.7788,0.799,0.8055,0.8215,0.8374,0.8421,0.8527,0.8533,0.8533,0.8533,0.8533,0.8533,0.8527,0.8474,0.8474,0.8527,0.8586,0.8791,0.9047,0.9316,0.9465,0.9569,0.9732,0.9955,1.0213,1.0419,1.0573,1.0718,1.1052,1.1747,1.2074,1.2425,1.3169,1.3451,1.3657,1.383,1.389,1.389,1.401,1.4079,1.4139,1.4139,1.4318,1.4437,1.4437,1.4666,1.4902,1.5098,1.5254,1.5313,1.5215,1.497,1.4488,1.3881,1.3268,1.2658,1.205,1.1296,1.0534,0.9773,0.8877,0.8172,0.7461,0.6732,0.6075,0.555,0.5156,0.4761,0.4495,0.4359,0.4204,0.4079,0.4114,0.4152,0.4264,-3.5147,-3.5075,-3.5001,-3.4964,-3.4946,-3.4887,-3.4848,-3.4276,-3.3742,-3.3417,-3.2079,-3.1065,-3.0725,-3.0016,-2.9608,-2.97,-2.9806,-2.4552,-1.2025,-0.7726,-0.067,1.0456,0.9964,0.9011,0.8172,0.7591,0.7138,0.6749,0.6618,0.6613,0.6679,0.6876,0.7068,0.7251,0.7173,0.7218,0.725,0.7125,0.7136,0.7203,0.7252,0.7413,0.7568,0.7681,0.7848,0.8008,0.8109,0.8103,0.8103,0.8103,0.8103,0.8103,0.8103,0.8156,0.8209,0.8215,0.8268,0.8374,0.8527,0.8784,0.9054,0.9211,0.9413,0.9569,0.9732,0.9947,1.0213,1.0419,1.0522,1.0886,1.1765,1.1944,1.2249,1.3055,1.3241,1.3294,1.3528,1.3528,1.3588,1.3769,1.383,1.3881,1.395,1.4079,1.4207,1.4267,1.4497,1.4725,1.497,1.5196,1.5313,1.5264,1.5215,1.497,1.4488,1.3881,1.3338,1.2911,1.2166,1.1413,1.078,0.9894,0.9134,0.8431,0.7647,0.6994,0.6408,0.5888,0.5495,0.51,0.4873,0.4674,0.4563,0.4573,0.4535,0.4551,-3.502,-3.5001,-3.4964,-3.4907,-3.4887,-3.4848,-3.4727,-3.4645,-3.428,-3.3428,-3.254,-3.1678,-3.08,-2.9978,-2.955,-2.9701,-2.9755,-2.6685,-1.9316,-0.619,0.4164,1.0524,0.9849,0.8888,0.7982,0.7274,0.6749,0.642,0.609,0.602,0.621,0.635,0.6482,0.6724,0.6599,0.6667,0.6768,0.6514,0.6603,0.6879,0.6879,0.7041,0.7317,0.7317,0.7365,0.7521,0.7521,0.7521,0.7521,0.7521,0.7521,0.7521,0.7521,0.7568,0.7723,0.7842,0.8062,0.8221,0.8374,0.8474,0.8685,0.8956,0.9211,0.9413,0.9562,0.9681,0.9903,1.0213,1.0419,1.0781,1.1654,1.1896,1.2192,1.2866,1.2989,1.2989,1.2989,1.2989,1.305,1.3241,1.3407,1.358,1.3769,1.395,1.407,1.4267,1.4267,1.4506,1.497,1.5156,1.5264,1.541,1.5264,1.5215,1.5215,1.4547,1.407,1.383,1.3139,1.2528,1.1981,1.0961,1.0142,0.9454,0.8619,0.7847,0.7138,0.6613,0.6222,0.5841,0.5453,0.5306,0.5272,0.5179,0.5127,0.5069,-3.4945,-3.4927,-3.4926,-3.4829,-3.4747,-3.4666,-3.4645,-3.4539,-3.4357,-3.4045,-3.2747,-3.1775,-3.1514,-3.0211,-2.9414,-2.9607,-2.9737,-2.4681,-1.2589,-0.3561,0.4056,1.0316,0.9652,0.863,0.7652,0.7068,0.6548,0.602,0.5954,0.5954,0.602,0.602,0.6218,0.647,0.6295,0.6367,0.6538,0.6391,0.6304,0.6277,0.6495,0.6603,0.6712,0.6933,0.7041,0.709,0.7198,0.7192,0.7246,0.7311,0.7365,0.7365,0.7467,0.7521,0.7568,0.7729,0.7783,0.7889,0.8162,0.8268,0.8427,0.8752,0.9008,0.9159,0.9413,0.9569,0.9732,0.9903,1.0058,1.0415,1.1145,1.1439,1.1783,1.257,1.2805,1.2867,1.2989,1.2989,1.305,1.3111,1.3233,1.3354,1.3415,1.3709,1.389,1.395,1.4249,1.4606,1.497,1.5156,1.5264,1.541,1.5488,1.5566,1.5566,1.4902,1.4478,1.4291,1.3752,1.3208,1.2712,1.1911,1.1163,1.0351,0.9646,0.8877,0.8037,0.7456,0.6955,0.6539,0.618,0.5923,0.5762,0.5774,0.5487,0.5269,-3.4869,-3.4849,-3.4788,-3.4747,-3.4645,-3.4539,-3.4495,-3.4386,-3.4293,-3.4221,-3.2762,-3.1714,-3.1714,-3.025,-2.9312,-2.9472,-2.97,-2.3797,-0.9554,-0.5099,0.1108,1.0325,0.9709,0.856,0.7396,0.6872,0.6284,0.5693,0.5624,0.5557,0.5491,0.5624,0.5826,0.6013,0.5905,0.6025,0.6166,0.6096,0.6023,0.5956,0.6174,0.6239,0.6277,0.6495,0.6603,0.6652,0.6761,0.6815,0.6869,0.6982,0.7036,0.709,0.7198,0.7306,0.7354,0.7515,0.7568,0.7676,0.7949,0.8055,0.8168,0.8487,0.8752,0.8956,0.9211,0.9361,0.9569,0.9681,0.9844,1.0113,1.08,1.1064,1.1456,1.2077,1.2403,1.256,1.2674,1.2736,1.2797,1.2928,1.305,1.318,1.331,1.3476,1.3649,1.389,1.4189,1.4547,1.4843,1.5029,1.5205,1.5313,1.5556,1.5672,1.5672,1.5371,1.5069,1.4824,1.4478,1.4001,1.3442,1.2712,1.1981,1.124,1.0415,0.9646,0.8882,0.827,0.7793,0.7313,0.6979,0.6664,0.641,0.6173,0.5947,0.5634,-3.4788,-3.4727,-3.4666,-3.4602,-3.4517,-3.4427,-3.4293,-3.4221,-3.4148,-3.4099,-3.2693,-3.1666,-3.1592,-3.0212,-2.9296,-2.9291,-2.9662,-2.4042,-1.0298,-0.9516,-0.3688,0.9461,0.9554,0.8689,0.7265,0.6679,0.602,0.5362,0.5156,0.4957,0.4831,0.5163,0.5362,0.5355,0.5535,0.5653,0.5761,0.5793,0.5747,0.576,0.5983,0.5993,0.594,0.5977,0.6023,0.6182,0.6277,0.6327,0.6386,0.6598,0.6647,0.6707,0.682,0.6928,0.7085,0.7257,0.7365,0.7515,0.7616,0.7783,0.7955,0.8115,0.8487,0.8804,0.8962,0.9159,0.9413,0.951,0.9681,0.9948,1.0424,1.0791,1.1168,1.1455,1.1828,1.2043,1.2197,1.2258,1.2389,1.2736,1.2805,1.2928,1.3241,1.3302,1.3484,1.395,1.4139,1.4378,1.4647,1.4902,1.5039,1.5215,1.5566,1.574,1.574,1.5856,1.5788,1.541,1.5196,1.4793,1.4249,1.3442,1.2712,1.2042,1.1045,1.0238,0.9572,0.9164,0.868,0.8137,0.7744,0.7455,0.7194,0.659,0.6338,0.6183,-3.4666,-3.4602,-3.4517,-3.4404,-3.4316,-3.4245,-3.4148,-3.4099,-3.4023,-3.3947,-3.3022,-3.2125,-3.1507,-3.057,-2.977,-2.9277,-2.9589,-2.6172,-1.7584,-1.22,-0.5828,0.2109,0.693,0.8812,0.7456,0.6605,0.5815,0.5156,0.496,0.4831,0.4831,0.4897,0.5027,0.5153,0.5391,0.5441,0.5516,0.5601,0.5555,0.5528,0.564,0.5676,0.5687,0.5665,0.5783,0.588,0.5784,0.5841,0.5955,0.6114,0.6273,0.649,0.6495,0.6652,0.6815,0.7085,0.7139,0.7246,0.7461,0.7622,0.7783,0.7949,0.8168,0.8434,0.8752,0.8962,0.9113,0.9263,0.9413,0.9619,0.9991,1.0327,1.065,1.0925,1.1161,1.1422,1.1682,1.184,1.2062,1.2397,1.2613,1.2867,1.305,1.3285,1.358,1.395,1.401,1.4249,1.4647,1.4902,1.5039,1.5215,1.5624,1.5856,1.5856,1.6144,1.6144,1.5798,1.5478,1.5137,1.4793,1.4121,1.339,1.2589,1.1856,1.1185,1.0634,0.9959,0.9542,0.9195,0.8651,0.8123,0.7656,0.7318,0.6872,0.6183,-3.4473,-3.4386,-3.4316,-3.4221,-3.4124,-3.4023,-3.3972,-3.3895,-3.3815,-3.378,-3.303,-3.2198,-3.1393,-3.0588,-2.9879,-2.9252,-2.9511,-2.6688,-1.9608,-1.2844,-0.6229,0.02,0.6425,0.9122,0.7777,0.6728,0.5877,0.5087,0.4894,0.4697,0.4567,0.4628,0.4758,0.4891,0.5027,0.512,0.5114,0.5305,0.5279,0.5147,0.5326,0.5341,0.5385,0.5355,0.5447,0.5604,0.5486,0.5588,0.5736,0.5786,0.595,0.6114,0.6282,0.6386,0.6495,0.6815,0.6977,0.7036,0.7252,0.7461,0.7622,0.7783,0.8002,0.8268,0.8639,0.8798,0.8962,0.9061,0.9211,0.9365,0.9528,0.9901,1.0217,1.0324,1.0654,1.0932,1.1163,1.1368,1.1546,1.1791,1.2043,1.2287,1.2522,1.2974,1.3372,1.3717,1.3895,1.4189,1.4556,1.4852,1.5029,1.5098,1.5624,1.5914,1.5914,1.6202,1.6316,1.6144,1.5788,1.5439,1.5088,1.4369,1.37,1.3025,1.2406,1.1818,1.1206,1.074,1.0249,0.9785,0.9173,0.8684,0.8165,0.771,0.7026,0.6261,-3.4269,-3.4197,-3.4124,-3.4049,-3.3947,-3.3842,-3.3753,-3.3698,-3.3633,-3.3549,-3.2984,-3.2192,-3.1247,-3.0308,-2.9594,-2.9189,-2.939,-2.7031,-2.1145,-1.4426,-0.7764,-0.1202,0.4925,0.8188,0.8146,0.7051,0.6009,0.5087,0.4894,0.4631,0.43,0.4495,0.4561,0.4561,0.4697,0.4764,0.4764,0.4957,0.4957,0.4791,0.498,0.5034,0.5044,0.502,0.5132,0.5301,0.5196,0.5319,0.5499,0.5466,0.5572,0.574,0.5959,0.6123,0.6228,0.6544,0.6712,0.6874,0.7036,0.7246,0.7461,0.7616,0.7889,0.8215,0.8474,0.8639,0.8798,0.8903,0.9054,0.9159,0.9159,0.9528,0.9807,0.9807,1.014,1.0441,1.0662,1.0895,1.1094,1.1262,1.1439,1.172,1.1944,1.2635,1.3087,1.3407,1.3779,1.4139,1.4455,1.4803,1.497,1.497,1.5566,1.5856,1.5914,1.6202,1.6374,1.6374,1.6029,1.5682,1.5205,1.4621,1.4047,1.3447,1.3004,1.2407,1.1836,1.1593,1.1031,1.03,0.9697,0.9241,0.8703,0.7787,0.7026,0.6416,-3.4074,-3.3998,-3.3895,-3.378,-3.3753,-3.3671,-3.3549,-3.352,-3.3481,-3.3352,-3.3232,-3.26,-3.1016,-2.9628,-2.8846,-2.9021,-2.9163,-2.8977,-2.8371,-2.1771,-1.5049,-0.8623,-0.2398,0.3314,0.8511,0.7316,0.6145,0.5087,0.4758,0.4495,0.43,0.43,0.4367,0.4364,0.4561,0.4625,0.4628,0.4761,0.4818,0.4803,0.48,0.4857,0.4826,0.4705,0.4725,0.4835,0.4751,0.4845,0.4987,0.5005,0.5183,0.5352,0.5411,0.5677,0.6059,0.6228,0.6386,0.6549,0.682,0.7036,0.7192,0.7461,0.7622,0.7836,0.8162,0.8421,0.8633,0.8626,0.8844,0.9008,0.9008,0.9194,0.9327,0.9425,0.9513,0.9688,1.0126,1.0499,1.077,1.1069,1.1608,1.1944,1.2008,1.2635,1.3087,1.3407,1.3779,1.4139,1.4455,1.4803,1.497,1.497,1.5439,1.5798,1.5914,1.6066,1.6114,1.6114,1.5961,1.573,1.5371,1.5219,1.4772,1.4158,1.4038,1.3688,1.3201,1.253,1.1939,1.1434,1.0651,0.9841,0.9089,0.794,0.733,0.703,-3.3842,-3.378,-3.3698,-3.3605,-3.352,-3.3452,-3.3411,-3.3316,-3.3256,-3.3152,-3.3122,-3.2481,-3.0825,-2.9359,-2.8587,-2.8815,-2.9026,-2.9291,-2.9608,-2.3105,-1.6362,-0.9896,-0.3592,0.2634,0.8762,0.7707,0.6605,0.5554,0.496,0.4564,0.43,0.43,0.4233,0.4164,0.4228,0.4228,0.4159,0.4225,0.4228,0.4228,0.4228,0.4295,0.4356,0.4435,0.4543,0.4655,0.4646,0.4645,0.4738,0.4723,0.4923,0.5183,0.5297,0.5513,0.5841,0.6005,0.6173,0.6386,0.6712,0.6923,0.7139,0.7359,0.7568,0.7723,0.7889,0.8156,0.8421,0.8573,0.8685,0.8791,0.8857,0.9008,0.9106,0.9263,0.9361,0.9516,0.9758,1.0106,1.0378,1.0747,1.1137,1.1403,1.1403,1.2248,1.2872,1.3097,1.379,1.4318,1.4616,1.4852,1.5029,1.5098,1.5498,1.574,1.5914,1.6009,1.6236,1.6491,1.6335,1.6029,1.5612,1.5378,1.5033,1.462,1.448,1.4102,1.3484,1.2899,1.2257,1.1632,1.0962,1.0062,0.9084,0.8394,0.7863,0.7334]}]]